[[{"header":{"parameterUnit":"m.s-1","parameterCategory":1,"la1":31.0,"la2":29.5877,"lo1":-88.7671,"lo2":-86.6584,"dy":0.0162,"dx":0.0185,"nx":115,"ny":88,"refTime":"2023-08-06T00:00:00:Z","depth":0,"parameterNumber":2,"parameterNumberName":"U-component_of_WINDS"},"data":[0.0,0.0,0.0,0.0,0.0,0.0,0.0,0.0,0.0,0.0,0.0,0.0,0.0,0.0,0.0,0.0,0.0,0.0,0.0,0.0,0.0,0.0,0.0,0.0,0.0,0.0,0.0,0.0,0.0,0.0,0.0,0.0,0.0,0.0,0.0,0.0,0.0,0.0,0.0,0.0,0.0,0.0,0.0,0.0,0.0,0.0,0.0,0.0,0.0,0.0,0.0,0.0,0.0,0.0,0.0,0.0,0.0,0.0,0.0,0.0,0.0,0.0,0.0,0.0,0.0,0.0,0.0,0.0,0.0,0.0,0.0,0.0,0.0,0.0,0.0,0.0,0.0,0.0,0.0,0.0,0.0,0.0,0.0,0.0,0.0,0.0,0.0,0.0,0.0,0.0,0.0,0.0,0.0,0.0,0.0,0.0,0.0,0.0,0.0,0.0,0.0,0.0,0.0,0.0,0.0,0.0,0.0,0.0,0.0,0.0,0.0,0.0,0.0,0.0,0.0,0.0,0.0,0.0,0.0,0.0,0.0,0.0,0.0,0.0,0.0,0.0,0.0,0.0,0.0,0.0,0.0,0.0,0.0,0.0,0.0,0.0,0.0,0.0,0.0,0.0,0.0,0.0,0.0,0.0,0.0,0.0,0.0,0.0,0.0,0.0,0.0,0.0,0.0,0.0,0.0,0.0,0.0,0.0,0.0,0.0,0.0,0.0,0.0,0.0,0.0,0.0,0.0,0.0,0.0,0.0,0.0,0.0,0.0,0.0,0.0,0.0,0.0,0.0,0.0,0.0,0.0,0.0,0.0,0.0,0.0,0.0,0.0,0.0,0.0,0.0,0.0,0.0,0.0,0.0,0.0,0.0,0.0,0.0,0.0,0.0,0.0,0.0,0.0,0.0,0.0,0.0,0.0,0.0,0.0,0.0,0.0,0.0,0.0,0.0,0.0,0.0,0.0,0.0,0.0,0.0,0.0,0.0,0.0,0.0,0.0,0.0,0.0,0.0,0.0,0.0,0.0,0.0,0.0,0.0,0.0,0.0,0.0,0.0,0.0,0.0,0.0,0.0,0.0,0.0,0.0,0.0,0.0,0.0,0.0,0.0,0.0,0.0,0.0,0.0,0.0,0.0,0.0,0.0,0.0,0.0,0.0,0.0,0.0,0.0,0.0,0.0,0.0,0.0,0.0,0.0,0.0,0.0,0.0,0.0,0.0,0.0,0.0,0.0,0.0,0.0,0.0,0.0,0.0,0.0,0.0,0.0,0.0,0.0,0.0,0.0,0.0,0.0,0.0,0.0,0.0,0.0,0.0,0.0,0.0,0.0,0.0,0.0,0.0,0.0,0.0,0.0,0.0,0.0,0.0,0.0,0.0,0.0,0.0,0.0,0.0,0.0,0.0,0.0,0.0,0.0,0.0,0.0,0.0,0.0,0.0,0.0,0.0,0.0,0.0,0.0,0.0,0.0,0.0,0.0,0.0,0.0,0.0,0.0,0.0,0.0,0.0,0.0,0.0,0.0,0.0,0.0,0.0,0.0,0.0,0.0,0.0,0.0,0.0,0.0,0.0,0.0,0.0,0.0,0.0,0.0,0.0,0.0,0.0,0.0,0.0,0.0,0.0,0.0,0.0,0.0,0.0,0.0,0.0,0.0,0.0,0.0,0.0,0.0,0.0,0.0,0.0,0.0,0.0,0.0,0.0,0.0,0.0,0.0,0.0,0.0,0.0,0.0,0.0,0.0,0.0,0.0,0.0,0.0,0.0,0.0,0.0,0.0,0.0,0.0,0.0,0.0,0.0,0.0,0.0,0.0,0.0,0.0,0.0,0.0,0.0,0.0,0.0,0.0,0.0,0.0,0.0,0.0,0.0,0.0,0.0,0.0,0.0,0.0,0.0,0.0,0.0,0.0,0.0,0.0,0.0,0.0,0.0,0.0,0.0,0.0,0.0,0.0,0.0,0.0,0.0,0.0,0.0,0.0,0.0,0.0,0.0,0.0,0.0,0.0,0.0,0.0,0.0,0.0,0.0,0.0,0.0,0.0,0.0,0.0,0.0,0.0,0.0,0.0,0.0,0.0,0.0,0.0,0.0,0.0,0.0,0.0,0.0,0.0,0.0,0.0,0.0,0.0,0.0,0.0,0.0,0.0,0.0,0.0,0.0,0.0,0.0,0.0,0.0,0.0,0.0,0.0,0.0,0.0,0.0,0.0,0.0,0.0,0.0,0.0,0.0,0.0,0.0,0.0,0.0,0.0,0.0,0.0,0.0,0.0,0.0,0.0,0.0,0.0,0.0,0.0,0.0,0.0,0.0,0.0,0.0,0.0,0.0,0.0,0.0,0.0,0.0,0.0,0.0,0.0,0.0,0.0,0.0,0.0,0.0,0.0,0.0,0.0,0.0,0.0,0.0,0.0,0.0,0.0,0.0,0.0,0.0,0.0,0.0,0.0,0.0,0.0,0.0,0.0,0.0,0.0,0.0,0.0,0.0,0.0,0.0,0.0,0.0,0.0,0.0,0.0,0.0,0.0,0.0,0.0,0.0,0.0,0.0,0.0,0.0,0.0,0.0,0.0,0.0,0.0,0.0,0.0,0.0,0.0,0.0,0.0,0.0,0.0,0.0,0.0,0.0,0.0,0.0,0.0,0.0,0.0,0.0,0.0,0.0,0.0,0.0,0.0,0.0,0.0,0.0,0.0,0.0,0.0,0.0,0.0,0.0,0.0,0.0,0.0,0.0,0.0,0.0,0.0,0.0,0.0,0.0,0.0,0.0,0.0,0.0,0.0,0.0,0.0,0.0,0.0,0.0,0.0,0.0,0.0,0.0,0.0,0.0,0.0,0.0,0.0,0.0,0.0,0.0,0.0,0.0,0.0,0.0,0.0,0.0,0.0,0.0,0.0,0.0,0.0,0.0,0.0,0.0,0.0,0.0,0.0,0.0,0.0,0.0,0.0,0.0,0.0,0.0,0.0,0.0,0.0,0.0,0.0,0.0,0.0,0.0,0.0,0.0,0.0,0.0,0.0,0.0,0.0,0.0,0.0,0.0,0.0,0.0,0.0,0.0,0.0,0.0,0.0,0.0,0.0,0.0,0.0,0.0,0.0,0.0,0.0,0.0,0.0,0.0,0.0,0.0,0.0,0.0,0.0,0.0,0.0,0.0,0.0,0.0,0.0,0.0,0.0,0.0,0.0,0.0,0.0,0.0,0.0,0.0,0.0,0.0,0.0,0.0,0.0,0.0,0.0,0.0,0.0,0.0,0.0,0.0,0.0,0.0,0.0,0.0,0.0,0.0,0.0,0.0,0.0,0.0,0.0,0.0,0.0,0.0,0.0,0.0,0.0,0.0,0.0,0.0,0.0,0.0,0.0,0.0,0.0,0.0,0.0,0.0,0.0,0.0,0.0,0.0,0.0,0.0,0.0,0.0,0.0,0.0,0.0,0.0,0.0,0.0,0.0,0.0,0.0,0.0,0.0,0.0,0.0,0.0,0.0,0.0,0.0,0.0,0.0,0.0,0.0,0.0,0.0,0.0,0.0,0.0,0.0,0.0,0.0,0.0,0.0,0.0,0.0,0.0,0.0,0.0,0.0,0.0,0.0,0.0,0.0,0.0,0.0,0.0,0.0,0.0,0.0,0.0,0.0,0.0,0.0,0.0,0.0,0.0,0.0,0.0,0.0,0.0,0.0,0.0,0.0,0.0,0.0,0.0,0.0,0.0,0.0,0.0,0.0,0.0,0.0,0.0,0.0,0.0,0.0,0.0,0.0,0.0,0.0,0.0,0.0,0.0,0.0,0.0,0.0,0.0,0.0,0.0,0.0,0.0,0.0,0.0,0.0,0.0,0.0,0.0,0.0,0.0,0.0,0.0,0.0,0.0,0.0,0.0,0.0,0.0,0.0,0.0,0.0,0.0,0.0,0.0,0.0,0.0,0.0,0.0,0.0,0.0,0.0,0.0,0.0,0.0,0.0,0.0,0.0,0.0,0.0,0.0,0.0,0.0,0.0,0.0,0.0,0.0,0.0,0.0,0.0,0.0,0.0,0.0,0.0,0.0,0.0,0.0,0.0,0.0,0.0,0.0,0.0,0.0,0.0,0.0,0.0,0.0,0.0,0.0,0.0,0.0,0.0,0.0,0.0,0.0,0.0,0.0,0.0,0.0,0.0,0.0,0.0,0.0,0.0,0.0,0.0,0.0,0.0,0.0,0.0,0.0,0.0,0.0,0.0,0.0,0.0,0.0,0.0,0.0,0.0,0.0,0.0,0.0,0.0,-5.1256,0.0,0.0,0.0,0.0,0.0,0.0,0.0,0.0,0.0,0.0,0.0,0.0,0.0,0.0,0.0,0.0,0.0,0.0,0.0,0.0,0.0,0.0,0.0,0.0,0.0,0.0,0.0,0.0,0.0,0.0,0.0,0.0,0.0,0.0,0.0,0.0,0.0,0.0,0.0,0.0,0.0,0.0,0.0,0.0,0.0,0.0,0.0,0.0,0.0,0.0,0.0,0.0,0.0,0.0,0.0,0.0,0.0,0.0,0.0,0.0,0.0,0.0,0.0,0.0,0.0,0.0,0.0,0.0,0.0,0.0,0.0,0.0,0.0,0.0,0.0,0.0,0.0,0.0,0.0,0.0,0.0,0.0,0.0,0.0,0.0,0.0,0.0,0.0,0.0,0.0,0.0,0.0,0.0,0.0,0.0,0.0,0.0,0.0,0.0,0.0,0.0,0.0,0.0,0.0,0.0,0.0,0.0,0.0,0.0,0.0,-4.8771,-4.9615,-5.0369,-5.1167,-5.2005,0.0,0.0,0.0,0.0,0.0,0.0,0.0,0.0,0.0,0.0,0.0,0.0,0.0,0.0,0.0,0.0,0.0,0.0,0.0,0.0,0.0,0.0,0.0,0.0,0.0,0.0,0.0,0.0,0.0,0.0,0.0,0.0,0.0,0.0,0.0,0.0,0.0,0.0,0.0,0.0,0.0,0.0,0.0,0.0,0.0,0.0,0.0,0.0,0.0,0.0,0.0,0.0,0.0,0.0,0.0,0.0,0.0,0.0,0.0,0.0,0.0,0.0,0.0,0.0,0.0,0.0,0.0,0.0,0.0,0.0,0.0,0.0,0.0,0.0,0.0,0.0,0.0,0.0,0.0,0.0,0.0,0.0,0.0,0.0,0.0,0.0,0.0,0.0,0.0,0.0,0.0,0.0,0.0,0.0,0.0,0.0,0.0,0.0,0.0,0.0,0.0,0.0,0.0,0.0,0.0,0.0,0.0,0.0,0.0,0.0,0.0,0.0,-5.0718,-5.1422,-5.2018,0.0,0.0,0.0,0.0,0.0,0.0,0.0,0.0,0.0,0.0,0.0,0.0,0.0,0.0,0.0,0.0,0.0,0.0,0.0,0.0,0.0,0.0,0.0,0.0,0.0,0.0,0.0,0.0,0.0,0.0,0.0,0.0,0.0,0.0,0.0,0.0,0.0,0.0,0.0,0.0,0.0,0.0,0.0,0.0,0.0,0.0,0.0,0.0,0.0,0.0,0.0,0.0,0.0,0.0,0.0,0.0,0.0,0.0,0.0,0.0,0.0,0.0,0.0,0.0,0.0,0.0,0.0,0.0,0.0,0.0,0.0,0.0,0.0,0.0,0.0,0.0,0.0,0.0,0.0,0.0,0.0,0.0,0.0,0.0,0.0,0.0,0.0,0.0,0.0,0.0,0.0,0.0,0.0,0.0,0.0,0.0,0.0,0.0,0.0,0.0,0.0,0.0,0.0,0.0,0.0,0.0,0.0,0.0,0.0,0.0,-4.8119,-4.9692,-5.0204,0.0,-5.0832,0.0,0.0,0.0,0.0,0.0,0.0,0.0,0.0,0.0,0.0,0.0,0.0,0.0,0.0,0.0,0.0,0.0,0.0,0.0,0.0,0.0,0.0,0.0,0.0,0.0,0.0,0.0,0.0,0.0,0.0,0.0,0.0,0.0,0.0,0.0,0.0,0.0,0.0,0.0,0.0,0.0,0.0,0.0,0.0,0.0,0.0,0.0,0.0,0.0,0.0,0.0,0.0,0.0,0.0,0.0,0.0,0.0,0.0,0.0,0.0,0.0,0.0,0.0,0.0,0.0,0.0,0.0,0.0,0.0,0.0,0.0,0.0,0.0,0.0,0.0,0.0,0.0,0.0,0.0,0.0,0.0,0.0,0.0,0.0,0.0,0.0,0.0,0.0,0.0,0.0,0.0,0.0,0.0,0.0,0.0,0.0,0.0,0.0,0.0,0.0,0.0,0.0,0.0,0.0,0.0,0.0,0.0,0.0,0.0,0.0,-4.8898,-4.9565,-5.0232,-5.0462,0.0,0.0,0.0,0.0,0.0,0.0,0.0,0.0,0.0,0.0,0.0,0.0,0.0,0.0,0.0,0.0,0.0,0.0,0.0,0.0,0.0,0.0,0.0,0.0,0.0,0.0,0.0,0.0,0.0,0.0,0.0,0.0,0.0,0.0,0.0,0.0,0.0,0.0,0.0,0.0,0.0,0.0,0.0,0.0,0.0,0.0,0.0,0.0,0.0,0.0,0.0,0.0,0.0,0.0,0.0,0.0,0.0,0.0,0.0,0.0,0.0,0.0,0.0,0.0,0.0,0.0,0.0,0.0,0.0,0.0,0.0,0.0,0.0,0.0,0.0,0.0,0.0,0.0,0.0,0.0,0.0,0.0,0.0,0.0,0.0,0.0,0.0,0.0,0.0,0.0,0.0,0.0,0.0,0.0,0.0,0.0,0.0,0.0,0.0,0.0,0.0,0.0,0.0,0.0,0.0,0.0,0.0,0.0,0.0,0.0,-4.8322,-4.9221,-4.9594,-5.0008,-5.0124,-4.9902,0.0,0.0,0.0,0.0,0.0,0.0,0.0,0.0,0.0,0.0,0.0,0.0,0.0,0.0,0.0,0.0,0.0,0.0,0.0,0.0,0.0,0.0,0.0,0.0,0.0,0.0,0.0,0.0,0.0,0.0,0.0,0.0,0.0,0.0,0.0,0.0,0.0,0.0,0.0,0.0,0.0,0.0,0.0,0.0,0.0,0.0,0.0,0.0,0.0,0.0,0.0,0.0,0.0,0.0,0.0,0.0,0.0,0.0,0.0,0.0,0.0,0.0,0.0,0.0,0.0,0.0,0.0,0.0,0.0,0.0,0.0,0.0,0.0,0.0,0.0,0.0,0.0,0.0,0.0,0.0,0.0,0.0,0.0,0.0,0.0,0.0,0.0,0.0,0.0,0.0,0.0,0.0,0.0,0.0,0.0,0.0,0.0,0.0,0.0,0.0,0.0,0.0,0.0,0.0,0.0,0.0,0.0,0.0,-4.778,-4.7945,-4.8567,-4.9804,-4.9359,-4.9333,0.0,0.0,0.0,0.0,0.0,0.0,0.0,0.0,0.0,0.0,0.0,0.0,0.0,0.0,0.0,0.0,0.0,0.0,0.0,0.0,0.0,0.0,0.0,0.0,0.0,0.0,0.0,0.0,0.0,0.0,0.0,0.0,0.0,0.0,0.0,0.0,0.0,0.0,0.0,0.0,0.0,0.0,0.0,0.0,0.0,0.0,0.0,0.0,0.0,0.0,0.0,0.0,0.0,0.0,0.0,0.0,0.0,0.0,0.0,0.0,0.0,0.0,0.0,0.0,0.0,0.0,0.0,0.0,0.0,0.0,0.0,0.0,0.0,0.0,0.0,0.0,0.0,0.0,0.0,0.0,0.0,0.0,0.0,0.0,0.0,0.0,0.0,0.0,0.0,0.0,0.0,0.0,0.0,0.0,0.0,0.0,0.0,0.0,0.0,0.0,0.0,0.0,0.0,0.0,0.0,0.0,0.0,0.0,0.0,-4.7889,-4.845,-4.8927,-4.9286,-4.9199,-4.9199,0.0,0.0,0.0,0.0,0.0,0.0,0.0,0.0,0.0,0.0,0.0,0.0,0.0,0.0,0.0,0.0,0.0,0.0,0.0,0.0,0.0,0.0,0.0,0.0,0.0,0.0,0.0,0.0,0.0,0.0,0.0,0.0,0.0,0.0,0.0,0.0,0.0,0.0,0.0,0.0,0.0,0.0,0.0,0.0,0.0,0.0,0.0,0.0,0.0,0.0,0.0,0.0,0.0,0.0,0.0,0.0,0.0,0.0,0.0,0.0,0.0,0.0,0.0,0.0,0.0,0.0,0.0,0.0,0.0,0.0,0.0,0.0,0.0,0.0,0.0,0.0,0.0,0.0,0.0,0.0,0.0,0.0,0.0,0.0,0.0,0.0,0.0,0.0,0.0,0.0,0.0,0.0,0.0,0.0,0.0,0.0,0.0,0.0,0.0,0.0,0.0,0.0,0.0,0.0,0.0,0.0,0.0,0.0,0.0,-4.8244,0.0,-4.9094,0.0,-4.9077,-4.9094,0.0,0.0,0.0,0.0,0.0,0.0,0.0,0.0,0.0,0.0,0.0,0.0,0.0,0.0,0.0,0.0,0.0,0.0,0.0,0.0,0.0,0.0,0.0,0.0,0.0,0.0,0.0,0.0,0.0,0.0,0.0,0.0,0.0,0.0,0.0,0.0,0.0,0.0,0.0,0.0,0.0,0.0,0.0,0.0,0.0,0.0,0.0,0.0,0.0,0.0,0.0,0.0,0.0,0.0,0.0,0.0,0.0,0.0,0.0,0.0,0.0,0.0,0.0,0.0,0.0,0.0,0.0,0.0,0.0,0.0,0.0,0.0,0.0,0.0,0.0,0.0,0.0,0.0,0.0,0.0,0.0,0.0,0.0,0.0,0.0,0.0,0.0,0.0,0.0,0.0,0.0,0.0,0.0,0.0,0.0,0.0,0.0,0.0,0.0,0.0,0.0,0.0,0.0,0.0,0.0,0.0,0.0,0.0,-4.8274,-4.8951,-4.9001,-4.9001,-4.9018,-4.9001,-4.9001,0.0,0.0,0.0,0.0,0.0,0.0,0.0,0.0,0.0,0.0,0.0,0.0,0.0,0.0,0.0,0.0,0.0,0.0,0.0,0.0,0.0,0.0,0.0,0.0,0.0,0.0,0.0,0.0,0.0,0.0,0.0,0.0,0.0,0.0,0.0,0.0,0.0,0.0,0.0,0.0,0.0,0.0,0.0,0.0,0.0,0.0,0.0,0.0,0.0,0.0,0.0,0.0,0.0,0.0,0.0,0.0,0.0,0.0,0.0,0.0,0.0,0.0,0.0,0.0,0.0,0.0,0.0,0.0,0.0,0.0,0.0,0.0,0.0,0.0,0.0,0.0,0.0,0.0,0.0,0.0,0.0,0.0,0.0,0.0,0.0,0.0,0.0,0.0,0.0,0.0,0.0,0.0,0.0,0.0,0.0,0.0,0.0,0.0,0.0,0.0,0.0,0.0,0.0,0.0,0.0,0.0,0.0,0.0,0.0,-4.9001,-4.9094,-4.9094,-4.9001,-4.9077,-4.9094,0.0,0.0,0.0,0.0,0.0,0.0,0.0,0.0,0.0,0.0,0.0,0.0,0.0,0.0,0.0,0.0,0.0,0.0,0.0,0.0,0.0,0.0,0.0,0.0,0.0,0.0,0.0,0.0,0.0,0.0,0.0,0.0,0.0,0.0,0.0,0.0,0.0,0.0,0.0,0.0,0.0,0.0,0.0,0.0,0.0,0.0,0.0,0.0,0.0,0.0,0.0,0.0,0.0,0.0,0.0,0.0,0.0,0.0,0.0,0.0,0.0,0.0,0.0,0.0,0.0,0.0,0.0,0.0,0.0,0.0,0.0,0.0,0.0,0.0,0.0,0.0,0.0,0.0,0.0,0.0,0.0,0.0,0.0,0.0,0.0,0.0,0.0,0.0,0.0,0.0,0.0,0.0,0.0,0.0,0.0,0.0,0.0,0.0,0.0,0.0,0.0,0.0,0.0,0.0,0.0,0.0,0.0,0.0,0.0,-4.9018,-4.9077,-4.9094,-4.9001,-4.9094,-4.9094,-4.9001,0.0,0.0,0.0,0.0,0.0,0.0,0.0,0.0,0.0,0.0,0.0,0.0,0.0,0.0,0.0,0.0,0.0,0.0,0.0,0.0,0.0,0.0,0.0,0.0,0.0,0.0,0.0,0.0,0.0,0.0,0.0,0.0,0.0,0.0,0.0,0.0,0.0,0.0,0.0,0.0,0.0,0.0,0.0,0.0,0.0,0.0,0.0,0.0,0.0,0.0,0.0,0.0,0.0,0.0,0.0,0.0,0.0,0.0,0.0,0.0,0.0,0.0,0.0,0.0,0.0,0.0,0.0,0.0,0.0,0.0,0.0,0.0,0.0,0.0,0.0,0.0,0.0,0.0,0.0,0.0,0.0,0.0,0.0,0.0,0.0,0.0,0.0,0.0,0.0,0.0,0.0,0.0,0.0,0.0,0.0,0.0,0.0,0.0,0.0,0.0,0.0,0.0,0.0,0.0,0.0,0.0,0.0,0.0,-4.9018,-4.9018,-4.9018,-4.9018,-4.9018,-4.9018,0.0,0.0,0.0,0.0,0.0,0.0,0.0,0.0,0.0,0.0,0.0,0.0,0.0,0.0,0.0,0.0,0.0,0.0,0.0,0.0,0.0,0.0,0.0,0.0,0.0,0.0,0.0,0.0,0.0,0.0,0.0,0.0,0.0,0.0,0.0,0.0,0.0,0.0,0.0,0.0,0.0,0.0,0.0,0.0,0.0,0.0,0.0,0.0,0.0,0.0,0.0,0.0,0.0,0.0,0.0,0.0,0.0,0.0,0.0,0.0,0.0,0.0,0.0,0.0,0.0,0.0,0.0,0.0,0.0,0.0,0.0,0.0,0.0,0.0,0.0,0.0,0.0,0.0,0.0,0.0,0.0,0.0,0.0,0.0,0.0,0.0,0.0,0.0,0.0,0.0,0.0,0.0,0.0,0.0,0.0,0.0,0.0,0.0,0.0,0.0,0.0,0.0,0.0,0.0,0.0,0.0,0.0,0.0,0.0,-4.9018,-4.9018,-4.9018,-4.9018,-4.9018,-4.9018,0.0,0.0,0.0,0.0,0.0,0.0,0.0,0.0,0.0,0.0,0.0,0.0,0.0,0.0,0.0,0.0,0.0,0.0,0.0,0.0,0.0,0.0,0.0,0.0,0.0,0.0,0.0,0.0,0.0,0.0,0.0,0.0,0.0,0.0,0.0,0.0,0.0,0.0,0.0,0.0,0.0,0.0,0.0,0.0,0.0,0.0,0.0,0.0,0.0,0.0,0.0,0.0,0.0,0.0,0.0,0.0,0.0,0.0,0.0,0.0,0.0,0.0,0.0,0.0,0.0,0.0,0.0,0.0,0.0,0.0,0.0,0.0,0.0,0.0,0.0,0.0,0.0,0.0,0.0,0.0,0.0,0.0,0.0,0.0,0.0,0.0,0.0,0.0,0.0,0.0,0.0,0.0,0.0,0.0,0.0,0.0,0.0,0.0,0.0,0.0,0.0,0.0,0.0,0.0,0.0,0.0,0.0,0.0,-4.9018,-4.9018,-4.9018,-4.9018,-4.9018,-4.9018,-4.9018,0.0,0.0,0.0,0.0,0.0,0.0,0.0,0.0,0.0,0.0,0.0,0.0,0.0,0.0,0.0,0.0,0.0,0.0,0.0,0.0,0.0,0.0,0.0,0.0,0.0,0.0,0.0,0.0,0.0,0.0,0.0,0.0,0.0,0.0,0.0,0.0,0.0,0.0,0.0,0.0,0.0,0.0,0.0,0.0,0.0,0.0,0.0,0.0,0.0,0.0,0.0,0.0,0.0,0.0,0.0,0.0,0.0,0.0,0.0,0.0,0.0,0.0,0.0,0.0,0.0,0.0,0.0,0.0,0.0,0.0,0.0,0.0,0.0,0.0,0.0,0.0,0.0,0.0,0.0,0.0,0.0,0.0,0.0,0.0,0.0,0.0,0.0,0.0,0.0,0.0,0.0,0.0,0.0,0.0,0.0,0.0,0.0,0.0,0.0,0.0,0.0,0.0,0.0,0.0,0.0,0.0,0.0,0.0,-4.9018,-4.9018,-4.9018,-4.9018,-4.9018,-4.9018,-4.9018,0.0,0.0,0.0,0.0,0.0,0.0,0.0,0.0,0.0,0.0,0.0,0.0,0.0,0.0,0.0,0.0,0.0,0.0,0.0,0.0,0.0,0.0,0.0,0.0,0.0,0.0,0.0,0.0,0.0,0.0,0.0,0.0,0.0,0.0,0.0,0.0,0.0,0.0,0.0,0.0,0.0,0.0,0.0,0.0,0.0,0.0,0.0,0.0,0.0,0.0,0.0,0.0,0.0,0.0,0.0,0.0,0.0,0.0,0.0,0.0,0.0,0.0,0.0,0.0,0.0,0.0,0.0,0.0,0.0,0.0,0.0,0.0,0.0,0.0,0.0,0.0,0.0,0.0,0.0,0.0,0.0,0.0,0.0,0.0,0.0,0.0,0.0,0.0,0.0,0.0,0.0,0.0,0.0,0.0,0.0,0.0,0.0,0.0,0.0,0.0,0.0,0.0,0.0,0.0,0.0,0.0,0.0,0.0,-4.9018,-4.9018,-4.9018,-4.9018,-4.9018,-4.9018,-4.9018,0.0,0.0,0.0,0.0,0.0,0.0,0.0,0.0,0.0,0.0,0.0,0.0,0.0,0.0,0.0,0.0,0.0,0.0,0.0,0.0,0.0,0.0,0.0,0.0,0.0,0.0,0.0,0.0,0.0,0.0,0.0,0.0,0.0,0.0,0.0,0.0,0.0,0.0,0.0,0.0,0.0,0.0,0.0,0.0,0.0,0.0,0.0,0.0,-5.3467,0.0,0.0,0.0,0.0,0.0,0.0,0.0,0.0,0.0,0.0,0.0,0.0,0.0,0.0,0.0,0.0,0.0,0.0,0.0,0.0,0.0,0.0,0.0,0.0,0.0,0.0,0.0,0.0,0.0,0.0,0.0,0.0,0.0,0.0,0.0,0.0,0.0,0.0,0.0,0.0,0.0,0.0,0.0,0.0,0.0,0.0,0.0,0.0,0.0,0.0,0.0,0.0,0.0,0.0,0.0,0.0,0.0,0.0,0.0,-4.9018,-4.9018,-4.9018,-4.9018,-4.9018,-4.9018,-4.9171,0.0,0.0,0.0,0.0,0.0,0.0,0.0,0.0,0.0,0.0,0.0,0.0,0.0,0.0,0.0,0.0,0.0,0.0,0.0,0.0,0.0,0.0,0.0,0.0,0.0,0.0,0.0,0.0,0.0,0.0,0.0,0.0,0.0,0.0,0.0,0.0,0.0,0.0,0.0,0.0,0.0,0.0,0.0,0.0,0.0,0.0,0.0,0.0,0.0,0.0,0.0,0.0,0.0,0.0,0.0,0.0,0.0,0.0,0.0,0.0,0.0,0.0,0.0,0.0,0.0,0.0,0.0,0.0,0.0,0.0,0.0,0.0,0.0,0.0,0.0,0.0,0.0,0.0,0.0,0.0,0.0,0.0,0.0,0.0,0.0,0.0,0.0,0.0,0.0,0.0,0.0,0.0,0.0,0.0,0.0,0.0,0.0,0.0,0.0,0.0,0.0,0.0,0.0,0.0,0.0,0.0,0.0,-4.9018,-4.9018,-4.9018,-4.9018,-4.9018,-4.9018,-4.9018,-4.9407,-5.0219,0.0,0.0,0.0,0.0,0.0,0.0,0.0,0.0,0.0,0.0,0.0,0.0,0.0,0.0,0.0,0.0,0.0,0.0,0.0,0.0,0.0,0.0,0.0,0.0,0.0,0.0,0.0,0.0,0.0,0.0,0.0,0.0,0.0,0.0,0.0,0.0,0.0,0.0,-4.7968,-4.9157,0.0,0.0,0.0,0.0,0.0,0.0,0.0,0.0,-5.1171,0.0,0.0,0.0,0.0,0.0,0.0,0.0,0.0,0.0,0.0,0.0,0.0,0.0,0.0,0.0,0.0,0.0,0.0,0.0,0.0,0.0,0.0,0.0,0.0,0.0,0.0,0.0,0.0,0.0,0.0,0.0,0.0,0.0,0.0,0.0,0.0,0.0,0.0,0.0,0.0,0.0,0.0,0.0,0.0,0.0,0.0,0.0,0.0,0.0,0.0,0.0,0.0,0.0,0.0,0.0,0.0,-4.9018,-4.9018,-4.9018,-4.9018,-4.9018,-4.9018,-4.9018,-4.9018,-4.9644,-5.0913,0.0,0.0,0.0,0.0,0.0,0.0,0.0,0.0,0.0,0.0,0.0,0.0,0.0,0.0,0.0,0.0,0.0,0.0,0.0,0.0,0.0,0.0,0.0,0.0,0.0,0.0,0.0,0.0,0.0,0.0,0.0,0.0,0.0,0.0,0.0,0.0,0.0,0.0,0.0,-4.8624,-4.9135,0.0,0.0,0.0,0.0,0.0,0.0,0.0,0.0,-5.0605,0.0,0.0,0.0,0.0,0.0,0.0,0.0,0.0,0.0,0.0,0.0,0.0,0.0,0.0,0.0,0.0,0.0,0.0,0.0,0.0,0.0,0.0,0.0,0.0,0.0,0.0,0.0,0.0,0.0,0.0,0.0,0.0,0.0,0.0,0.0,0.0,0.0,0.0,0.0,0.0,0.0,0.0,0.0,0.0,0.0,0.0,0.0,0.0,0.0,0.0,0.0,0.0,0.0,0.0,0.0,-4.9018,-4.9018,-4.9018,-4.9018,-4.9018,-4.9018,-4.9018,-4.9018,-4.9695,0.0,0.0,0.0,0.0,0.0,0.0,0.0,0.0,0.0,0.0,0.0,0.0,0.0,0.0,0.0,0.0,0.0,0.0,0.0,0.0,0.0,0.0,0.0,0.0,0.0,0.0,0.0,0.0,0.0,0.0,0.0,0.0,0.0,0.0,0.0,0.0,0.0,0.0,0.0,0.0,-4.7895,-4.8297,-4.8406,0.0,0.0,0.0,0.0,0.0,0.0,-4.9287,-4.9075,0.0,0.0,0.0,0.0,0.0,0.0,0.0,0.0,0.0,0.0,0.0,0.0,0.0,0.0,0.0,0.0,0.0,0.0,0.0,0.0,0.0,0.0,0.0,0.0,0.0,0.0,0.0,0.0,0.0,0.0,0.0,0.0,0.0,0.0,0.0,0.0,0.0,0.0,0.0,0.0,0.0,0.0,0.0,0.0,0.0,0.0,0.0,0.0,0.0,0.0,0.0,0.0,0.0,0.0,0.0,-4.9221,-4.9221,-4.9221,-4.9221,-4.9373,-4.9441,-4.9458,-4.9458,-5.0067,0.0,0.0,0.0,0.0,0.0,0.0,0.0,0.0,0.0,0.0,0.0,0.0,0.0,0.0,0.0,0.0,0.0,0.0,0.0,0.0,0.0,0.0,0.0,0.0,0.0,0.0,0.0,0.0,0.0,0.0,0.0,0.0,0.0,0.0,0.0,0.0,0.0,0.0,0.0,0.0,0.0,-4.728,-4.746,-4.8545,0.0,0.0,0.0,0.0,-4.8366,-4.8061,0.0,0.0,0.0,0.0,0.0,0.0,0.0,0.0,0.0,0.0,0.0,0.0,0.0,0.0,0.0,0.0,0.0,0.0,0.0,0.0,0.0,0.0,0.0,0.0,0.0,0.0,0.0,0.0,0.0,0.0,0.0,0.0,0.0,0.0,0.0,0.0,0.0,0.0,0.0,0.0,0.0,0.0,0.0,0.0,0.0,0.0,0.0,0.0,0.0,0.0,0.0,0.0,0.0,0.0,0.0,0.0,-4.9932,-4.9965,-4.9965,-4.9982,-5.0608,-5.0931,-5.0914,-5.0963,-5.1352,0.0,0.0,0.0,0.0,0.0,0.0,0.0,0.0,0.0,0.0,0.0,0.0,0.0,0.0,0.0,0.0,0.0,0.0,0.0,0.0,0.0,0.0,0.0,0.0,0.0,0.0,0.0,0.0,0.0,0.0,0.0,0.0,0.0,0.0,0.0,0.0,0.0,0.0,0.0,0.0,0.0,-4.5692,-4.5621,-4.6905,-4.7814,0.0,0.0,-4.8366,-4.7581,-4.7424,0.0,0.0,0.0,0.0,0.0,0.0,0.0,0.0,0.0,0.0,0.0,0.0,0.0,0.0,0.0,0.0,0.0,0.0,0.0,0.0,0.0,0.0,0.0,0.0,0.0,0.0,0.0,0.0,0.0,0.0,0.0,0.0,0.0,0.0,0.0,0.0,0.0,0.0,0.0,0.0,0.0,0.0,0.0,0.0,0.0,0.0,0.0,0.0,0.0,0.0,0.0,0.0,0.0,0.0,0.0,-4.9576,-5.0659,-5.0321,-5.0287,-5.071,-5.1016,-5.1234,-5.1234,-5.1234,-5.1507,0.0,0.0,0.0,0.0,0.0,0.0,0.0,0.0,0.0,0.0,0.0,0.0,0.0,0.0,0.0,0.0,0.0,0.0,0.0,0.0,0.0,0.0,0.0,0.0,0.0,0.0,0.0,0.0,0.0,0.0,0.0,0.0,0.0,0.0,0.0,0.0,0.0,0.0,0.0,0.0,0.0,0.0,-4.4732,-4.5951,0.0,0.0,0.0,-4.7616,-4.6843,0.0,0.0,0.0,0.0,0.0,0.0,0.0,0.0,0.0,0.0,0.0,0.0,0.0,0.0,0.0,0.0,0.0,0.0,0.0,0.0,0.0,0.0,0.0,0.0,0.0,0.0,0.0,0.0,0.0,0.0,0.0,0.0,0.0,0.0,0.0,0.0,0.0,0.0,0.0,0.0,0.0,0.0,0.0,0.0,0.0,0.0,0.0,0.0,0.0,0.0,0.0,0.0,0.0,0.0,0.0,0.0,0.0,-5.1405,-5.093,-5.093,-5.1471,-5.1658,-5.176,-5.171,-5.1524,0.0,0.0,0.0,0.0,0.0,0.0,0.0,0.0,0.0,0.0,0.0,0.0,0.0,0.0,0.0,0.0,0.0,0.0,0.0,0.0,0.0,0.0,0.0,0.0,0.0,0.0,0.0,-4.325,0.0,0.0,0.0,0.0,0.0,0.0,0.0,0.0,0.0,0.0,0.0,0.0,0.0,0.0,-4.4122,-4.4287,-4.517,-4.5846,0.0,0.0,-4.6636,-4.6142,-4.6067,-4.5843,0.0,0.0,0.0,0.0,0.0,0.0,0.0,0.0,0.0,0.0,0.0,0.0,0.0,0.0,0.0,0.0,0.0,0.0,0.0,0.0,0.0,0.0,0.0,0.0,0.0,0.0,0.0,0.0,0.0,0.0,0.0,0.0,0.0,0.0,0.0,0.0,0.0,0.0,0.0,0.0,0.0,0.0,0.0,0.0,0.0,0.0,0.0,0.0,0.0,0.0,0.0,0.0,0.0,0.0,0.0,-5.2198,-5.2181,-5.2147,-5.2249,-5.2959,-5.3281,-5.3044,-5.2388,-5.2287,0.0,0.0,0.0,0.0,0.0,0.0,0.0,0.0,0.0,0.0,0.0,0.0,0.0,0.0,0.0,0.0,0.0,0.0,0.0,0.0,0.0,0.0,0.0,0.0,0.0,0.0,0.0,0.0,0.0,0.0,0.0,0.0,0.0,0.0,0.0,0.0,0.0,0.0,0.0,0.0,0.0,-4.3574,-4.4227,-4.4392,-4.4661,0.0,0.0,-4.5409,-4.5379,-4.5364,-4.5125,-4.4481,0.0,0.0,0.0,0.0,0.0,0.0,0.0,0.0,0.0,0.0,0.0,0.0,0.0,0.0,0.0,0.0,0.0,0.0,0.0,0.0,0.0,0.0,0.0,0.0,0.0,0.0,0.0,0.0,0.0,0.0,0.0,0.0,0.0,0.0,0.0,0.0,0.0,0.0,0.0,0.0,0.0,0.0,0.0,0.0,0.0,0.0,0.0,0.0,0.0,0.0,0.0,0.0,0.0,-5.1826,-5.301,-5.2553,-5.247,-5.2842,-5.3163,-5.323,-5.3007,-5.232,-5.1966,0.0,0.0,0.0,0.0,0.0,0.0,0.0,0.0,0.0,0.0,0.0,0.0,0.0,0.0,0.0,0.0,0.0,0.0,0.0,0.0,0.0,0.0,0.0,0.0,0.0,0.0,0.0,0.0,-4.285,-4.293,-4.2996,0.0,0.0,0.0,0.0,0.0,0.0,0.0,0.0,0.0,0.0,-4.3394,-4.3673,-4.4047,0.0,0.0,-4.5035,-4.5155,-4.4751,-4.4691,-4.4466,-4.3783,-4.3663,0.0,0.0,0.0,0.0,0.0,0.0,0.0,0.0,0.0,0.0,0.0,0.0,0.0,0.0,0.0,0.0,0.0,0.0,0.0,0.0,0.0,0.0,0.0,0.0,0.0,0.0,0.0,0.0,0.0,0.0,0.0,0.0,0.0,0.0,0.0,0.0,0.0,0.0,0.0,0.0,0.0,0.0,0.0,0.0,0.0,0.0,0.0,0.0,0.0,0.0,0.0,0.0,-5.2385,-5.3399,-5.2859,-5.2724,-5.3093,-5.311,-5.2906,-5.2465,-5.178,-5.1294,0.0,0.0,0.0,0.0,0.0,0.0,0.0,0.0,0.0,0.0,0.0,0.0,0.0,0.0,0.0,0.0,0.0,0.0,0.0,0.0,0.0,0.0,0.0,0.0,0.0,0.0,0.0,0.0,-4.2581,-4.2729,-4.3076,0.0,0.0,0.0,0.0,0.0,0.0,0.0,0.0,0.0,0.0,-4.3305,-4.3305,-4.3693,-4.4018,-4.4018,-4.4407,-4.4541,-4.4092,-4.3977,-4.3813,-4.3364,0.0,0.0,0.0,0.0,0.0,0.0,0.0,0.0,0.0,0.0,0.0,0.0,0.0,0.0,0.0,0.0,0.0,0.0,0.0,0.0,0.0,0.0,0.0,0.0,0.0,0.0,0.0,0.0,0.0,0.0,0.0,0.0,0.0,0.0,0.0,0.0,0.0,0.0,0.0,0.0,0.0,0.0,0.0,0.0,0.0,0.0,0.0,0.0,0.0,0.0,0.0,0.0,0.0,-5.3332,-5.3213,-5.3196,-5.3076,-5.2886,-5.2886,-5.2431,-5.1541,-5.0825,-5.0341,-5.022,0.0,0.0,0.0,0.0,0.0,0.0,0.0,0.0,0.0,0.0,0.0,0.0,0.0,0.0,0.0,0.0,0.0,0.0,0.0,0.0,0.0,0.0,0.0,0.0,0.0,0.0,-4.216,-4.2284,-4.2622,0.0,0.0,0.0,0.0,0.0,0.0,0.0,0.0,0.0,0.0,-4.3305,-4.3305,-4.329,-4.3305,-4.3349,-4.3334,-4.3349,-4.3349,-4.3334,-4.3334,-4.3319,0.0,0.0,0.0,0.0,0.0,0.0,0.0,0.0,0.0,0.0,0.0,0.0,0.0,0.0,0.0,0.0,0.0,0.0,0.0,0.0,0.0,0.0,0.0,0.0,0.0,0.0,0.0,0.0,-5.7188,0.0,0.0,0.0,0.0,0.0,0.0,0.0,0.0,0.0,0.0,0.0,-5.3501,-5.323,0.0,0.0,0.0,0.0,0.0,0.0,0.0,0.0,0.0,0.0,0.0,0.0,-5.3041,-5.3024,-5.3007,-5.2669,-5.1995,-5.196,-5.1558,-5.0637,-4.9941,-4.9526,-4.9491,0.0,0.0,0.0,0.0,0.0,0.0,0.0,0.0,0.0,0.0,0.0,0.0,0.0,0.0,0.0,0.0,0.0,0.0,0.0,0.0,0.0,0.0,0.0,0.0,0.0,-4.2242,0.0,0.0,0.0,0.0,0.0,0.0,0.0,0.0,0.0,0.0,0.0,-4.297,-4.3076,-4.3115,-4.3101,-4.3101,-4.3195,-4.325,0.0,0.0,0.0,0.0,0.0,0.0,0.0,0.0,0.0,0.0,0.0,0.0,0.0,0.0,-4.3182,-4.3926,-4.4438,-4.4775,-4.479,0.0,0.0,0.0,0.0,0.0,0.0,0.0,0.0,0.0,0.0,0.0,0.0,0.0,0.0,0.0,0.0,-5.6984,0.0,0.0,0.0,0.0,0.0,0.0,0.0,0.0,-5.3518,-5.3518,-5.3518,-5.3518,-5.3518,0.0,-5.2976,-5.2436,0.0,0.0,0.0,0.0,0.0,0.0,0.0,0.0,-5.2751,-5.2431,-5.2415,-5.196,-5.1105,-5.1055,-5.0638,-4.9856,-4.911,-4.873,-4.873,-4.8249,-4.8233,0.0,0.0,0.0,0.0,0.0,0.0,0.0,0.0,0.0,0.0,0.0,0.0,0.0,0.0,0.0,0.0,0.0,0.0,0.0,0.0,0.0,0.0,0.0,-4.2133,0.0,0.0,0.0,0.0,0.0,0.0,0.0,0.0,0.0,-4.2875,-4.2769,-4.2769,-4.2875,-4.2875,-4.2875,-4.2915,0.0,0.0,0.0,0.0,0.0,0.0,0.0,-4.305,-4.2915,-4.2875,-4.285,-4.2714,-4.2474,-4.2325,-4.2392,0.0,0.0,-4.3016,-4.3566,-4.3818,-4.3466,-4.306,-4.29,-4.3322,-4.2376,-4.1718,0.0,0.0,0.0,0.0,0.0,0.0,0.0,0.0,-5.7188,-5.7188,0.0,-5.6582,0.0,0.0,0.0,0.0,0.0,0.0,0.0,0.0,-5.3518,-5.3518,-5.3518,-5.3518,-5.3518,-5.3518,-5.3501,-5.3349,-5.3112,-5.1897,0.0,0.0,0.0,0.0,0.0,0.0,-5.2448,-5.154,-5.1557,-5.1122,-5.0303,-5.027,-4.9889,-4.9144,-4.8398,-4.8017,-4.8001,-4.8001,-4.8001,-4.8017,-4.8001,0.0,0.0,0.0,0.0,0.0,0.0,0.0,0.0,0.0,0.0,0.0,0.0,0.0,0.0,0.0,0.0,0.0,0.0,0.0,0.0,-4.2092,0.0,0.0,0.0,0.0,0.0,0.0,0.0,0.0,0.0,0.0,-4.2662,-4.2662,-4.2703,-4.2688,0.0,0.0,0.0,0.0,-4.2688,-4.2688,-4.2688,-4.2688,-4.2688,-4.2688,-4.2688,-4.2688,0.0,0.0,-4.2648,-4.2351,-4.2175,-4.2351,-4.2242,-4.2092,-4.2065,-4.2301,-4.2204,-4.1368,-4.1241,-4.1057,-4.093,-4.0372,-3.9738,-5.7978,0.0,0.0,0.0,0.0,-5.7583,-5.7455,-5.7188,-5.7188,-5.7188,-5.7163,-5.6573,0.0,0.0,0.0,0.0,0.0,0.0,-5.3518,-5.3518,-5.3518,-5.3518,-5.3518,-5.3518,-5.3518,-5.3518,-5.3348,-5.3264,-5.3162,-5.269,-5.2504,-5.2637,0.0,0.0,0.0,0.0,-5.215,-5.1451,-5.1848,-5.1781,-5.1017,-5.0982,-5.0369,-4.9127,-4.8382,-4.8001,-4.8001,-4.8001,-4.8001,-4.8001,-4.8001,0.0,0.0,0.0,0.0,0.0,0.0,0.0,0.0,0.0,0.0,0.0,0.0,0.0,0.0,0.0,0.0,0.0,0.0,0.0,-4.2092,-4.2092,-4.2133,0.0,0.0,0.0,0.0,0.0,0.0,0.0,0.0,0.0,-4.2242,-4.2242,-4.2325,0.0,0.0,-4.2514,-4.2459,-4.2622,-4.2662,-4.2514,0.0,0.0,0.0,-4.2688,-4.2648,-4.25,-4.2351,-4.2284,-4.2284,-4.2175,-4.2092,-4.2175,-4.2133,-4.1912,-4.1254,-4.166,-4.2036,-4.187,-4.1773,-4.1535,-4.0845,-4.0389,-4.0029,-5.7978,-5.7997,-5.795,-5.7792,-5.7601,-5.7534,-5.7388,-5.7188,-5.7188,-5.7188,-5.7138,-5.6311,-5.5751,-5.5355,-5.4457,0.0,0.0,0.0,-5.3518,-5.3518,-5.3518,-5.3518,-5.3518,-5.3416,-5.3382,-5.3382,-5.3179,-5.3041,-5.2972,-5.2533,-5.2445,-5.2677,0.0,0.0,-5.1886,-5.2213,-5.2045,-5.1365,-5.1763,-5.1595,-5.0866,-5.085,-5.0436,-4.9574,-4.911,-4.873,-4.8465,-4.8448,-4.8315,-4.8017,-4.8001,-4.8001,0.0,0.0,0.0,0.0,0.0,0.0,0.0,0.0,0.0,0.0,0.0,-4.2201,-4.2092,0.0,0.0,0.0,-4.2092,-4.2092,-4.2092,-4.2092,0.0,0.0,0.0,0.0,0.0,0.0,0.0,-4.1541,-4.1845,-4.2092,-4.2092,-4.2092,-4.2133,-4.2242,-4.2284,-4.2284,-4.2284,0.0,-4.2433,-4.2325,-4.2407,-4.2474,-4.2474,-4.2459,-4.2433,-4.2269,-4.2201,-4.2092,-4.2092,-4.2092,-4.2092,-4.2092,-4.2092,-4.1912,-4.1296,-4.1717,-4.1647,-4.0631,-4.0388,-4.0158,-3.9607,-3.921,-3.8841,-5.7978,-5.7997,-5.7839,-5.7739,-5.7601,-5.748,-5.7356,-5.7188,-5.7188,-5.7188,-5.7094,-5.5932,-5.5325,-5.5177,-5.4045,0.0,0.0,-5.3518,-5.3518,-5.3518,-5.3518,-5.3518,-5.3467,-5.3298,-5.3179,-5.3179,-5.2972,-5.2764,-5.2607,-5.1923,-5.1853,-5.2393,-5.2535,-5.2501,-5.2326,-5.2393,-5.2061,-5.1315,-5.1382,-5.1048,-5.0402,-5.0336,-5.0303,-5.0303,-5.0253,-4.9855,-4.9243,-4.9127,-4.8796,-4.8133,-4.8001,-4.7968,-4.7919,0.0,0.0,0.0,0.0,0.0,0.0,0.0,0.0,0.0,0.0,0.0,0.0,0.0,0.0,0.0,-4.2092,0.0,-4.2092,-4.2092,0.0,0.0,0.0,-4.2092,-4.2092,-4.2092,-4.2092,-4.2092,0.0,0.0,0.0,0.0,-4.2092,-4.2092,-4.2092,-4.2092,-4.2092,-4.2092,-4.2092,-4.2092,-4.2092,-4.2092,-4.2133,-4.2133,-4.2133,-4.2133,-4.2092,-4.2092,-4.2051,-4.1953,-4.1953,-4.1897,-4.1897,-4.1731,-4.1731,-4.1507,-4.093,-3.8251,-3.8037,-3.8115,-3.7978,-3.7348,-3.7036,-5.7978,-5.7997,-5.7839,-5.7721,-5.7583,-5.7559,-5.7412,-5.7188,-5.7188,-5.7188,-5.7112,-5.5879,-5.4826,-5.3948,-5.3618,-5.3518,-5.3518,-5.3518,-5.3518,-5.3518,-5.3518,-5.3518,-5.3518,-5.3314,-5.3179,-5.3179,-5.2834,-5.2659,-5.2589,-5.2333,-5.2262,-5.2409,-5.2445,-5.2179,-5.1614,-5.2127,-5.2061,-5.1315,-5.1862,-5.2078,-5.186,-5.1313,-5.1015,-5.1015,-5.0502,-5.0137,-4.9955,-4.9409,-4.9028,-4.8845,-4.8017,-4.7555,-4.7538,-4.7048,0.0,0.0,0.0,0.0,0.0,0.0,0.0,0.0,0.0,-4.2092,-4.2092,0.0,-4.2092,0.0,-4.2092,-4.2092,-4.2092,-4.2092,0.0,0.0,-4.2092,-4.2092,-4.2092,-4.2092,-4.2092,-4.2092,-4.2092,-4.2092,-4.2092,-4.2092,-4.2092,-4.2092,-4.2092,-4.2092,-4.2092,-4.2092,-4.2092,-4.2092,-4.2092,-4.2092,-4.2092,-4.2092,-4.2092,-4.2092,-4.2092,-4.2092,-4.2092,-4.1437,-4.0972,-4.0916,-4.036,-3.9708,-3.9046,-3.8836,-3.8387,-3.7209,-3.8405,-3.9461,-3.8115,-3.7579,-3.7315,-5.7978,-5.7997,-5.7857,-5.7721,-5.7583,-5.7534,-5.7388,-5.7188,-5.7188,-5.7061,-5.6732,-5.5449,-5.4376,-5.3501,-5.3518,-5.3518,-5.3518,-5.3518,-5.3518,-5.3518,-5.3518,-5.3518,-5.3467,-5.3195,-5.3076,-5.3041,-5.2676,-5.2499,-5.2499,-5.2445,-5.2409,-5.2409,-5.2409,-5.221,-5.1846,-5.2227,-5.221,-5.1777,-5.221,-5.2409,-5.2393,-5.2028,-5.1796,-5.1796,-5.138,-5.1032,-5.0684,-5.0286,-4.9922,-4.9574,-4.851,-4.7896,-4.7846,-4.6864,-4.6001,0.0,0.0,0.0,0.0,0.0,0.0,0.0,0.0,0.0,0.0,0.0,-4.2092,0.0,-4.2092,0.0,-4.2092,-4.2092,-4.2092,-4.2092,-4.2092,-4.2092,-4.2092,-4.2092,-4.2092,-4.2092,-4.2092,-4.2092,-4.2092,-4.2092,-4.2092,-4.2092,-4.2092,-4.2092,-4.2092,-4.2092,-4.2092,-4.2092,-4.2092,-4.2092,-4.2092,-4.2092,-4.2092,-4.2051,-4.1717,-4.1437,-4.1395,-4.0617,-3.9986,-3.9942,-3.9549,-3.9077,-3.8554,-3.8419,-3.8115,-3.7533,-3.8238,-3.8675,-3.7487,-3.7188,-3.7002,-5.8143,-5.8162,-5.7894,-5.7703,-5.7601,-5.7437,-5.7313,-5.7188,-5.7188,-5.6793,-5.6118,-5.4991,-5.4156,-5.3501,-5.3518,-5.3518,-5.3518,-5.3518,-5.3518,-5.3518,-5.3518,-5.3467,-5.3467,-5.3093,-5.2868,-5.285,-5.2535,-5.2409,-5.2409,-5.2409,-5.2409,-5.2409,-5.2409,-5.2409,-5.2409,-5.2409,-5.2409,-5.2409,-5.2409,-5.2409,-5.2409,-5.2409,-5.2409,-5.2409,-5.2409,-5.2075,-5.1481,-5.1295,-5.0913,-5.0266,-4.9128,-4.8462,-4.8329,-4.6606,-4.5463,0.0,-4.3897,0.0,0.0,0.0,0.0,0.0,0.0,0.0,0.0,-4.2092,-4.2092,-4.2092,-4.2092,-4.2092,-4.2092,-4.2092,-4.2092,-4.2092,-4.2092,-4.2092,-4.2092,-4.2092,-4.2092,-4.2092,-4.2092,-4.2092,-4.2092,-4.2092,-4.2092,-4.2092,-4.2092,-4.2092,-4.2092,-4.2092,-4.2092,-4.2092,-4.2092,-4.2092,-4.2092,-4.2092,-4.2092,-4.1995,-4.1479,-4.0788,-4.0689,-3.9899,-3.9197,-3.9019,-3.8854,-3.8765,-3.8841,-3.8765,-3.8496,-3.7671,-3.7579,-3.7453,-3.6722,-3.6499,-3.6417,-5.8988,-5.8909,-5.8113,-5.7721,-5.7601,-5.7437,-5.7313,-5.7188,-5.7188,-5.6546,-5.5507,-5.5308,-5.4551,-5.3534,-5.3518,-5.3518,-5.3518,-5.3518,-5.3518,-5.3518,-5.3518,-5.3433,-5.3264,-5.3024,-5.2799,-5.2659,-5.248,-5.2409,-5.2409,-5.2409,-5.2409,-5.2409,-5.2409,-5.2409,0.0,0.0,0.0,0.0,-5.2409,-5.2409,-5.2409,-5.2409,-5.2409,-5.2409,-5.2409,0.0,-5.2158,-5.1295,-5.0739,-5.0591,-4.9208,0.0,0.0,0.0,0.0,0.0,0.0,0.0,0.0,0.0,0.0,0.0,-4.202,-4.2092,-4.2092,-4.2092,-4.2092,-4.2092,-4.2092,-4.2092,-4.2092,-4.2092,-4.2092,-4.2092,-4.2092,-4.2092,-4.2092,-4.2092,-4.2092,-4.2092,-4.2092,-4.2092,-4.2092,-4.2092,-4.2092,-4.2092,-4.2092,-4.2092,-4.2092,-4.2092,-4.2092,-4.2092,-4.2092,-4.2092,-4.2092,-4.2121,-4.215,-4.2051,-4.2009,-4.148,-4.0674,-3.9779,-3.8868,-3.8291,-3.7453,-3.7015,-3.7028,-3.693,-3.7053,-3.6734,-3.6713,-3.6593,-3.6465,-3.6417,-3.6417,-5.9813,0.0,-5.9121,-5.8598,0.0,-5.7962,-5.7644,-5.7188,-5.7188,-5.667,-5.5755,-5.5189,-5.4551,-5.3913,-5.3601,-5.3518,-5.3518,-5.3518,-5.3518,-5.3501,-5.3382,-5.3314,-5.3179,-5.2903,-5.2711,-5.2605,-5.2464,-5.2409,-5.2409,-5.2409,-5.2409,-5.2409,-5.2409,-5.2409,-5.2409,-5.2409,-5.2409,-5.2409,-5.2409,-5.2409,-5.2409,-5.2409,-5.2409,-5.2409,0.0,0.0,0.0,0.0,0.0,0.0,0.0,0.0,0.0,0.0,0.0,-4.498,-4.4295,-4.3538,-4.2611,-4.2298,-4.2092,-4.2092,-4.2092,-4.2092,-4.2092,-4.2092,-4.2092,-4.2092,-4.2092,-4.2092,-4.2092,-4.2092,-4.2092,-4.2092,-4.2092,-4.2092,-4.2092,-4.2092,-4.2092,-4.2092,-4.2092,-4.2092,-4.2092,-4.2092,-4.2092,-4.2092,-4.2092,-4.2107,-4.2092,-4.2092,-4.2092,-4.2092,-4.2092,-4.2208,-4.2469,-4.2528,-4.2448,-4.2281,-4.1849,-4.1149,-4.02,-3.9243,-3.8457,-3.795,-3.7498,-3.7174,-3.7174,-3.7174,-3.7222,-3.7174,-3.7174,-3.7174,-3.7136,-3.6795,-3.6417,-6.0621,-6.0579,-6.0169,-5.9607,-5.8999,-5.8722,-5.8166,-5.7406,0.0,0.0,0.0,-5.5039,-5.4471,-5.4186,-5.3717,-5.3518,-5.3518,-5.3518,-5.3501,-5.3433,-5.3264,-5.3144,-5.3093,-5.2764,-5.2589,-5.257,-5.2445,-5.2409,-5.2409,-5.2409,-5.2409,-5.2409,-5.2409,-5.2409,-5.2409,-5.2409,-5.2409,-5.2409,-5.2409,-5.2409,-5.2409,-5.2409,-5.2409,-5.2409,-5.2409,-5.2194,-5.1831,-5.1741,-5.145,-5.0989,-5.0079,-4.9521,-4.9355,-4.8019,-4.6827,-4.592,-4.4896,-4.3983,-4.322,-4.2626,-4.2194,-4.2107,-4.2092,-4.2092,-4.2092,-4.2092,-4.2092,-4.2092,-4.2092,-4.2092,-4.2092,-4.2092,-4.2092,-4.2092,-4.2092,-4.2092,-4.2092,-4.2092,-4.2092,-4.2092,-4.2092,-4.2092,-4.2092,-4.2092,-4.215,-4.2237,-4.2295,-4.231,-4.2382,-4.2382,-4.2295,-4.231,-4.2469,-4.2673,-4.3021,-4.3181,-4.2984,-4.2437,-4.1785,-4.0862,-3.9672,-3.8784,-3.8236,-3.8,-3.799,-3.7965,-3.7977,-3.7927,-3.8002,-3.8002,-3.8002,-3.8002,-3.7927,-3.7287,-3.6744,-6.1429,-6.1349,-6.0407,-5.9935,-5.9826,-5.9564,-5.8963,-5.8184,-5.7496,-5.6582,-5.5502,-5.5355,-5.4645,-5.3618,-5.3534,-5.3518,-5.3518,-5.3518,-5.3416,0.0,-5.323,-5.3007,-5.2694,-5.2624,-5.2518,-5.2445,-5.2409,-5.2409,-5.2409,-5.2409,-5.2409,-5.2409,-5.2409,-5.2409,-5.2409,-5.2409,-5.2409,-5.2409,-5.2409,-5.2409,-5.2409,-5.2409,-5.2409,-5.2409,-5.2409,-5.223,-5.1815,-5.1413,-5.1022,-5.0586,-5.0119,-4.9583,-4.8998,-4.8755,-4.7832,-4.6081,-4.5738,-4.5136,-4.396,-4.3238,-4.2644,-4.215,-4.2092,-4.2092,-4.2092,-4.2092,-4.2092,-4.2092,-4.2121,-4.2092,-4.2092,-4.2136,-4.2179,-4.2136,-4.2107,-4.2092,-4.2165,-4.2165,-4.2179,-4.2194,-4.2092,-4.2136,-4.2208,-4.2179,-4.2382,-4.2745,-4.2876,-4.305,-4.3398,-4.3224,-4.2905,-4.2948,-4.3369,-4.3718,-4.3819,-4.3848,-4.3458,-4.2547,-4.2286,-4.1507,-3.9721,-3.9252,-3.8877,-3.8188,-3.8128,-3.8103,-3.8078,-3.8002,-3.8103,-3.814,-3.814,-3.8115,-3.8128,-3.7902,-3.76,-6.2254,-6.2193,-6.1569,-6.1047,-6.0584,-5.9909,-5.9398,-5.8991,-5.8277,-5.7161,-5.5883,-5.5159,-5.4534,-5.3979,-5.3651,-5.3518,-5.3518,-5.3518,-5.3382,-5.3195,-5.3093,-5.2868,-5.2589,-5.2535,-5.248,-5.2409,-5.2409,-5.2409,-5.2409,-5.2409,-5.2409,-5.2409,-5.2409,-5.2409,-5.2409,-5.2409,-5.2409,-5.2409,-5.2409,-5.2409,-5.2409,-5.2409,-5.2409,-5.239,-5.2194,-5.1888,-5.145,-5.1022,-5.0586,-5.0191,-4.9995,-4.9773,-4.9473,-4.9442,-4.8678,-4.7092,-4.6666,-4.5883,-4.4564,-4.3903,-4.3413,-4.3152,-4.3123,-4.3123,-4.3123,-4.2484,-4.2237,-4.2542,-4.2586,-4.2731,-4.3079,-4.3123,-4.3123,-4.3137,-4.3137,-4.3123,-4.3123,-4.3123,-4.3123,-4.3123,-4.3123,-4.3137,-4.3137,-4.3123,-4.3195,-4.35,-4.3544,-4.3689,-4.3993,-4.4023,-4.3906,-4.3645,-4.3805,-4.411,-4.44,-4.4472,-4.3956,-4.2847,-4.2637,-4.1774,-4.0055,-3.9571,-3.9371,-3.9007,-3.8906,-3.8919,-3.8906,-3.8919,-3.8931,-3.8931,-3.8931,-3.8931,-3.8906,-3.8705,-3.8178,-6.2989,-6.2798,-6.2519,-6.1998,-6.1327,-6.0491,-6.005,-5.9789,-5.903,-5.7903,-5.6535,-5.5218,-5.4468,-5.4139,-5.3701,-5.3518,-5.3518,-5.3518,-5.3365,-5.311,-5.2972,-5.2764,-5.2553,-5.2445,-5.2409,-5.2409,-5.2409,-5.2409,-5.2409,-5.2409,-5.2409,-5.2409,-5.2409,-5.2409,-5.2409,-5.2409,-5.2409,-5.2409,-5.2409,-5.2409,-5.2409,-5.2409,-5.2354,-5.223,-5.1977,-5.154,-5.1005,-5.0663,-5.0331,-4.9955,-4.9916,-4.9916,-4.9876,-4.9757,-4.913,-4.8003,-4.7326,-4.6341,-4.5012,-4.447,-4.4139,-4.4008,-4.4008,-4.3993,-4.3921,-4.3108,-4.2716,-4.3123,-4.3224,-4.3427,-4.3834,-4.395,-4.4008,-4.4008,-4.4008,-4.3935,-4.3979,-4.4008,-4.4008,-4.4008,-4.4008,-4.3964,-4.4008,-4.4008,-4.4023,-4.4139,-4.4313,-4.4414,-4.4472,-4.4835,-4.4864,-4.4603,-4.4429,-4.4618,-4.5039,-4.5111,-4.4598,-4.3361,-4.293,-4.2003,-4.0616,-3.9943,-3.9672,-3.9609,-3.9634,-3.9597,-3.9659,-3.9659,-3.9622,-3.9584,-3.9559,-3.9622,-3.9572,-3.917,-3.858,-6.3539,-6.281,-6.2555,-6.2238,-6.1915,-6.177,-6.1308,-6.0558,-5.9408,-5.8387,-5.7386,-5.6056,-5.4727,-5.3669,-5.3551,-5.3534,-5.3518,-5.3518,-5.328,-5.2938,-5.2903,-5.2746,-5.2445,-5.2409,-5.2409,-5.2409,-5.2409,-5.2409,-5.2409,-5.2409,-5.2409,-5.2409,-5.2409,-5.2409,-5.2409,-5.2409,-5.2409,-5.2409,-5.2409,-5.2409,-5.2409,-5.2409,-5.223,-5.1851,-5.1815,-5.1413,-5.0624,-5.0509,-5.0331,-4.9955,-4.9916,-4.9916,-4.9836,-4.9349,-4.8666,-4.7924,-4.7274,-4.6313,-4.5099,-4.485,-4.4589,-4.4066,-4.4066,-4.4066,-4.4066,-4.3906,-4.3834,-4.3935,-4.3921,-4.395,-4.3979,-4.4052,-4.4124,-4.4168,-4.4124,-4.4008,-4.4081,-4.4008,-4.4008,-4.4008,-4.4139,-4.4008,-4.4139,-4.4153,-4.4284,-4.4777,-4.5198,-4.5488,-4.5503,-4.5576,-4.5677,-4.5648,-4.5663,-4.5648,-4.5721,-4.5779,-4.5223,-4.4252,-4.3355,-4.2293,-4.1182,-4.0224,-3.9697,-3.9697,-3.9697,-3.9697,-3.9697,-3.9697,-3.9697,-3.9672,-3.9672,-3.9659,-3.9622,-3.9207,-3.8567,-6.4259,-6.3387,-6.3187,-6.2675,-6.2041,-6.2023,-6.1586,-6.0831,-5.9928,-5.8881,-5.7701,-5.6695,-5.5485,-5.416,-5.416,-5.3923,-5.3518,-5.3382,-5.3161,-5.2903,-5.2764,-5.2605,-5.2409,-5.2409,-5.2409,-5.2409,-5.2409,-5.2409,-5.2409,-5.2409,-5.2409,-5.2409,-5.2409,-5.2409,-5.2409,-5.2409,-5.2409,-5.2409,-5.2409,-5.2302,-5.2086,-5.205,-5.1961,-5.1778,-5.1317,-5.087,-5.0525,-5.0253,-5.0073,-4.9916,-4.9916,-4.9916,-4.9876,-4.9622,-4.8984,-4.7946,-4.6901,-4.6063,-4.5548,-4.5459,-4.5372,-4.5126,-4.5111,-4.5111,-4.5126,-4.5111,-4.5111,-4.5068,-4.4763,-4.4661,-4.501,-4.5097,-4.5111,-4.5111,-4.5111,-4.5097,-4.5111,-4.5097,-4.5111,-4.5111,-4.5111,-4.5082,-4.5111,-4.5111,-4.5213,-4.5459,-4.575,-4.5866,-4.588,-4.588,-4.588,-4.588,-4.588,-4.588,-4.588,-4.588,-4.5384,-4.4466,-4.345,-4.2439,-4.1369,-4.0364,-3.9685,-3.9697,-3.9697,-3.9697,-3.9697,-3.9697,-3.9697,-3.9609,-3.9346,-3.9207,-3.9003,-3.8541,-3.8042,-6.5058,-6.4132,-6.3736,-6.2948,-6.2014,-6.1794,-6.1458,-6.0909,-6.0076,-5.9101,-5.8082,-5.7409,-5.641,-5.5277,-5.5006,-5.4499,-5.3822,-5.3601,-5.3277,-5.2937,-5.2711,-5.2535,-5.2409,-5.2409,-5.2409,-5.2409,-5.2409,-5.2409,-5.2409,-5.2409,-5.2409,-5.2409,-5.2409,-5.2409,-5.2409,-5.2409,-5.2409,-5.2409,-5.2409,-5.2266,-5.1961,-5.1725,-5.154,-5.1392,-5.0832,-5.0448,-5.0331,-5.0073,-4.9916,-4.9916,-4.9916,-4.9916,-4.9876,-4.9717,-4.9041,-4.7734,-4.6565,-4.588,-4.588,-4.588,-4.588,-4.588,-4.588,-4.588,-4.588,-4.588,-4.588,-4.5808,-4.5459,-4.5387,-4.5764,-4.588,-4.588,-4.588,-4.588,-4.588,-4.5851,-4.588,-4.5837,-4.588,-4.5764,-4.588,-4.5866,-4.5822,-4.5808,-4.5837,-4.5866,-4.588,-4.588,-4.588,-4.588,-4.588,-4.588,-4.588,-4.5895,-4.5549,-4.5095,-4.4359,-4.3307,-4.1999,-4.1269,-4.0351,-3.9685,-3.9697,-3.9697,-3.962,-3.948,-3.9544,-3.9192,-3.8991,-3.8716,-3.8391,-3.8214,-3.7642,-3.7308,-6.5865,-6.4845,-6.3848,-6.2849,-6.195,-6.129,-6.101,-6.076,-5.9491,-5.8857,-5.8651,-5.8106,-5.7408,-5.6647,-5.6004,-5.5277,-5.4583,-5.4325,-5.3781,-5.302,-5.2709,-5.2551,-5.2409,-5.2409,-5.2409,-5.2409,-5.2409,-5.2409,-5.2409,-5.2409,-5.2409,-5.2409,-5.2409,-5.2409,-5.2409,-5.2409,-5.2409,-5.2409,-5.2409,-5.239,-5.223,-5.1561,-5.0968,-5.0679,-5.0525,-5.0292,-4.9995,-4.9916,-4.9916,-4.9916,-4.9916,-4.9916,-4.9836,-4.9284,-4.8366,-4.7119,-4.6314,-4.588,-4.588,-4.588,-4.588,-4.588,-4.588,-4.588,-4.588,-4.588,-4.588,-4.588,-4.5808,-4.5808,-4.5866,-4.588,-4.588,-4.588,-4.588,-4.588,-4.588,-4.588,-4.588,-4.588,-4.588,-4.588,-4.588,-4.588,-4.5835,-4.5835,-4.5835,-4.579,-4.573,-4.5776,-4.5703,-4.5689,-4.5689,-4.5851,-4.5747,-4.5201,-4.4606,-4.3746,-4.2546,-4.1356,-4.0932,-4.0503,-4.0019,-3.9647,-3.9533,-3.9392,-3.9237,-3.8848,-3.83,-3.7964,-3.7704,-3.7418,-3.7368,-3.6862,-3.6481,-6.6324,-6.4811,-6.3712,-6.2495,-6.12,-6.0562,-6.003,-5.9527,-5.86,-5.8204,-5.8229,-5.7974,-5.7746,-5.7476,-5.7239,-5.6444,-5.5343,-5.4977,-5.4364,-5.3621,-5.3288,-5.2876,-5.2426,-5.2409,-5.2409,-5.2409,-5.2409,-5.2409,-5.2409,-5.2409,-5.2409,-5.2409,-5.2409,-5.2409,-5.2409,-5.2409,-5.2409,-5.2409,-5.2409,-5.2266,-5.1997,-5.1397,-5.0876,-5.0525,-5.0269,-5.0034,-4.9916,-4.9916,-4.9916,-4.9916,-4.9916,-4.9916,-4.9797,-4.8862,-4.8072,-4.7536,-4.6521,-4.588,-4.588,-4.588,-4.588,-4.588,-4.588,-4.588,-4.588,-4.588,-4.588,-4.588,-4.588,-4.588,-4.588,-4.588,-4.588,-4.588,-4.588,-4.588,-4.588,-4.588,-4.588,-4.588,-4.588,-4.588,-4.579,-4.5595,-4.5413,-4.5367,-4.5138,-4.4972,-4.4869,-4.4627,-4.4433,-4.4317,-4.406,-4.361,-4.3115,-4.3997,-4.4055,-4.2957,-4.1882,-4.1311,-4.0867,-4.0071,-3.9521,-3.9055,-3.9004,-3.8728,-3.8375,-3.7924,-3.7417,-3.7232,-3.696,-3.6566,-3.6566,-3.6088,-3.571,-6.6592,-6.505,-6.3756,-6.2422,-6.1082,-5.9752,-5.8903,-5.8349,-5.7527,-5.7293,-5.7514,-5.7526,-5.7662,-5.7848,-5.7881,-5.7408,-5.6408,-5.5763,-5.5046,-5.4307,-5.3698,-5.3169,-5.2754,-5.2489,-5.2409,-5.2409,-5.2409,-5.2409,-5.2409,-5.2409,-5.2409,-5.2409,-5.2409,-5.2409,-5.2409,-5.2409,-5.2409,-5.2409,-5.2409,-5.2266,-5.1961,-5.1397,-5.0951,-5.0663,-5.0175,-4.9916,-4.9916,-4.9916,-4.9916,-4.9916,-4.9916,-4.9916,-4.9797,-4.8615,-4.7904,-4.7792,-4.6653,-4.588,-4.588,-4.588,-4.588,-4.588,-4.588,-4.588,-4.588,-4.588,-4.588,-4.588,-4.588,-4.588,-4.588,-4.588,-4.588,-4.588,-4.588,-4.588,-4.588,-4.588,-4.579,-4.5654,-4.5473,-4.5427,-4.5367,-4.5092,-4.4794,-4.4638,-4.4273,-4.4106,-4.3778,-4.3515,-4.3192,-4.3164,-4.2986,-4.2317,-4.169,-4.2002,-4.2085,-4.1143,-4.0425,-4.0273,-4.0167,-3.9474,-3.8954,-3.8541,-3.8116,-3.7754,-3.7381,-3.6972,-3.6725,-3.6553,-3.6161,-3.5709,-3.5563,-3.5369,-3.5187,-6.6616,-6.5493,-6.3936,-6.2593,-6.1297,-5.8852,-5.7697,-5.7405,-5.6303,-5.6176,-5.6748,-5.6799,-5.7154,-5.7712,-5.7746,-5.778,-5.7521,-5.6653,-5.5816,-5.506,-5.4064,-5.3516,-5.3301,-5.2754,-5.244,-5.2409,-5.2409,-5.2409,-5.2409,-5.2409,-5.2409,-5.2409,-5.2409,-5.2409,-5.2409,-5.2409,-5.2409,-5.2409,-5.2409,-5.2373,-5.2302,-5.1508,-5.1065,-5.093,-5.0308,-4.9916,-4.9916,-4.9916,-4.9916,-4.9916,-4.9916,-4.9892,-4.9661,-4.8615,-4.7904,-4.7664,-4.6594,-4.597,-4.588,-4.588,-4.588,-4.588,-4.588,-4.588,-4.588,-4.588,-4.588,-4.588,-4.588,-4.588,-4.588,-4.588,-4.588,-4.588,-4.588,-4.588,-4.588,-4.588,-4.57,-4.517,-4.4773,-4.4429,-4.4383,-4.4246,-4.3947,-4.3568,-4.335,-4.3132,-4.2681,-4.2429,-4.2483,-4.2469,-4.1917,-4.1031,-4.0485,-3.9967,-3.963,-3.918,-3.8583,-3.8266,-3.8417,-3.8065,-3.794,-3.7555,-3.7159,-3.6788,-3.6344,-3.594,-3.5695,-3.5501,-3.5113,-3.5053,-3.5029,-3.5005,-3.4932,-6.6324,-6.4893,-6.3719,-6.182,-5.9637,-5.7671,-5.6646,-5.6116,-5.5264,-5.5378,-5.597,-5.6055,-5.6461,-5.7019,-5.7137,-5.7408,-5.7811,-5.7245,-5.6553,-5.588,-5.5322,-5.4455,-5.3533,-5.3185,-5.2837,-5.2475,-5.2409,-5.2409,-5.2409,-5.2409,-5.2409,-5.2409,-5.2409,-5.2409,-5.2409,-5.2409,-5.2409,-5.2409,-5.2409,-5.2266,-5.1961,-5.1397,-5.0968,-5.0663,-5.0191,-4.9916,-4.9916,-4.9916,-4.9916,-4.9916,-4.9916,-4.9701,-4.9147,-4.8407,-4.7691,-4.7163,-4.6403,-4.588,-4.588,-4.588,-4.588,-4.588,-4.588,-4.588,-4.588,-4.588,-4.588,-4.588,-4.588,-4.588,-4.588,-4.588,-4.588,-4.588,-4.588,-4.588,-4.5776,-4.552,-4.5138,-4.4666,-4.4124,-4.3839,-4.362,-4.3254,-4.2615,-4.2393,-4.2095,-4.1801,-4.1576,-4.1241,-4.0972,-4.0944,-4.025,-3.9717,-3.9142,-3.8449,-3.7882,-3.7721,-3.7305,-3.7011,-3.7085,-3.6998,-3.6874,-3.6615,-3.6223,-3.5868,-3.5416,-3.5186,-3.5004,-3.4944,-3.4895,-3.4859,-3.4823,-3.4775,-3.4775,-6.606,-6.4809,-6.3057,-6.1124,-5.8952,-5.6999,-5.5706,-5.5051,-5.4448,-5.46,-5.5192,-5.5294,-5.57,-5.6342,-5.6664,-5.7053,-5.7456,-5.7399,-5.713,-5.6566,-5.5988,-5.5069,-5.3814,-5.3235,-5.2837,-5.2492,-5.2409,-5.2409,-5.2409,-5.2409,-5.2409,-5.2409,-5.2409,-5.2409,-5.2409,-5.2409,-5.2409,-5.2373,-5.2266,-5.205,-5.1741,-5.121,-5.0739,-5.0486,-5.0113,-4.9916,-4.9916,-4.9916,-4.9916,-4.9916,-4.9916,-4.9582,-4.8928,-4.8282,-4.7621,-4.696,-4.6328,-4.588,-4.588,-4.588,-4.588,-4.588,-4.588,-4.588,-4.588,-4.588,-4.588,-4.588,-4.588,-4.588,-4.588,-4.588,-4.5835,-4.5595,-4.5595,-4.5504,-4.5307,-4.4681,-4.4124,-4.3659,-4.3037,-4.2731,-4.2413,-4.2136,-4.1434,-4.1238,-4.0941,-4.0608,-4.0472,-4.0124,-3.9956,-3.9699,-3.9208,-3.858,-3.7795,-3.7028,-3.6181,-3.6203,-3.6246,-3.6174,-3.6211,-3.6051,-3.5904,-3.5733,-3.5454,-3.5381,-3.5016,-3.498,-3.4859,-3.4775,-3.4775,-3.4775,-3.4775,-3.4775,-3.4775,-6.5785,-6.5094,-6.2132,-6.0438,-5.9305,-5.6635,-5.5035,-5.4333,-5.3801,-5.3957,-5.4448,-5.4532,-5.4938,-5.5683,-5.6207,-5.6579,-5.6862,-5.717,-5.7301,-5.6947,-5.6245,-5.5289,-5.4361,-5.3119,-5.2473,-5.2426,-5.2409,-5.2409,-5.2409,-5.2409,-5.2409,-5.2409,-5.2409,-5.2409,-5.2409,-5.2409,-5.2409,-5.2338,-5.205,-5.1815,-5.1704,-5.0962,-5.0486,-5.0448,-5.0097,-4.9916,-4.9916,-4.9916,-4.9916,-4.9916,-4.9876,-4.9541,-4.8846,-4.824,-4.7563,-4.6829,-4.6225,-4.597,-4.588,-4.588,-4.588,-4.588,-4.588,-4.588,-4.588,-4.588,-4.588,-4.588,-4.588,-4.588,-4.588,-4.588,-4.5671,-4.5144,-4.4952,-4.4737,-4.427,-4.3361,-4.2842,-4.2518,-4.1762,-4.1069,-4.1181,-4.1053,-4.0667,-4.0355,-4.0178,-3.9929,-3.9685,-3.9522,-3.9386,-3.9051,-3.8719,-3.8103,-3.7546,-3.6696,-3.5953,-3.5513,-3.5563,-3.5564,-3.5551,-3.5381,-3.5259,-3.5065,-3.4944,-3.4847,-3.4823,-3.4823,-3.4775,-3.4775,-3.4775,-3.4775,-3.4775,-3.4775,-3.4775,-6.5204,-6.3756,-6.167,-5.9819,-5.8118,-5.6111,-5.4703,-5.3783,-5.3584,-5.3636,-5.3788,-5.3788,-5.4228,-5.4871,-5.5124,-5.5646,-5.6398,-5.6603,-5.68,-5.698,-5.6684,-5.567,-5.4444,-5.3069,-5.2409,-5.2409,-5.2409,-5.2409,-5.2409,-5.2409,-5.2409,-5.2409,-5.2409,-5.2409,-5.2409,-5.2409,-5.2409,-5.2338,-5.2013,-5.1614,-5.1247,-5.0794,-5.037,-5.0058,-4.9939,-4.9916,-4.9916,-4.9916,-4.9916,-4.9916,-4.9916,-4.934,-4.8324,-4.7988,-4.7407,-4.6403,-4.606,-4.588,-4.588,-4.588,-4.588,-4.588,-4.588,-4.588,-4.588,-4.588,-4.588,-4.588,-4.588,-4.5866,-4.588,-4.5822,-4.5409,-4.4614,-4.4064,-4.3652,-4.3166,-4.2519,-4.1916,-4.1505,-4.0876,-4.0558,-4.0377,-4.0133,-3.9834,-3.9644,-3.9576,-3.9536,-3.9359,-3.9305,-3.9305,-3.9083,-3.8724,-3.8063,-3.7361,-3.6568,-3.581,-3.515,-3.5041,-3.5053,-3.5029,-3.498,-3.4907,-3.4835,-3.4859,-3.4823,-3.4823,-3.4775,-3.4775,-3.4775,-3.4775,-3.4775,-3.4775,-3.4775,-3.4775,-6.4175,-6.274,-6.1009,-5.9107,-5.7143,-5.5841,-5.4627,-5.3651,-5.3518,-5.3518,-5.3518,-5.3518,-5.3737,-5.4143,-5.4465,-5.5139,-5.6061,-5.6194,-5.6562,-5.6884,-5.6153,-5.5272,-5.4311,-5.3069,-5.2409,-5.2409,-5.2409,-5.2409,-5.2409,-5.2409,-5.2409,-5.2409,-5.2409,-5.2409,-5.2409,-5.2409,-5.2409,-5.2338,-5.1997,-5.1577,-5.1118,-5.0717,-5.0308,-4.9995,-4.9916,-4.9916,-4.9916,-4.9916,-4.9916,-4.9916,-4.9836,-4.9284,-4.8072,-4.7904,-4.7278,-4.606,-4.588,-4.588,-4.588,-4.588,-4.588,-4.588,-4.588,-4.588,-4.588,-4.588,-4.588,-4.588,-4.588,-4.5735,-4.5429,-4.4929,-4.4226,-4.3466,-4.2656,-4.2205,-4.2228,-4.1608,-4.1064,-4.0672,-4.0228,-3.9821,-3.9821,-3.9509,-3.9373,-3.9332,-3.9373,-3.9346,-3.9305,-3.9305,-3.9261,-3.9127,-3.8697,-3.8004,-3.7302,-3.6508,-3.5715,-3.5066,-3.4823,-3.4823,-3.4775,-3.4775,-3.4775,-3.4775,-3.4775,-3.4775,-3.4775,-3.4775,-3.4775,-3.4775,-3.4775,-3.4775,-3.4775,-3.4775,-3.4775,-6.2937,-6.1922,-6.0122,-5.8282,-5.6528,-5.5629,-5.4551,-5.3651,-5.3518,-5.3518,-5.3518,-5.3518,-5.3551,-5.3551,-5.4143,-5.4887,-5.5697,-5.5895,-5.6399,-5.6296,-5.5505,-5.4477,-5.3964,-5.2937,-5.2442,-5.2409,-5.2409,-5.231,-5.221,-5.221,-5.2194,-5.1976,-5.1993,-5.221,-5.2144,-5.2227,-5.2326,-5.2302,-5.1871,-5.1487,-5.1043,-5.0624,-5.023,-4.9955,-4.9916,-4.9916,-4.9916,-4.9916,-4.9916,-4.9916,-4.9916,-4.9203,-4.8157,-4.7904,-4.7234,-4.6225,-4.588,-4.588,-4.588,-4.588,-4.588,-4.588,-4.588,-4.588,-4.5866,-4.5793,-4.5663,-4.5648,-4.5721,-4.5285,-4.4762,-4.3508,-4.2929,-4.2612,-4.139,-4.0903,-4.1214,-4.0768,-4.0137,-4.0124,-3.959,-3.9373,-3.9305,-3.9305,-3.9305,-3.9305,-3.9305,-3.9305,-3.9305,-3.9305,-3.9305,-3.9261,-3.8666,-3.7959,-3.7209,-3.6461,-3.5715,-3.5017,-3.4872,-3.4775,-3.4775,-3.4775,-3.4775,-3.4775,-3.4775,-3.4775,-3.4775,-3.4775,-3.4775,-3.4775,-3.4775,-3.4775,-3.4775,-3.4775,-3.4775,-6.2081,-6.1087,-5.8853,-5.7399,-5.6368,-5.5156,-5.4171,-5.3501,-5.3518,-5.3518,-5.3518,-5.3518,-5.3518,-5.3518,-5.3771,-5.4345,-5.5368,-5.5487,-5.5566,-5.5767,-5.5011,-5.3831,-5.3069,-5.2373,-5.2393,-5.2326,-5.2376,-5.2094,-5.168,-5.1514,-5.1231,-5.0817,-5.0932,-5.0982,-5.1462,-5.1564,-5.1862,-5.2134,-5.1606,-5.1155,-5.086,-5.0304,-4.9907,-4.9789,-4.9805,-4.9829,-4.99,-4.9916,-4.9916,-4.9916,-4.9773,-4.9128,-4.8252,-4.7946,-4.7278,-4.6299,-4.5925,-4.588,-4.5866,-4.5822,-4.5851,-4.5764,-4.5721,-4.588,-4.5837,-4.5358,-4.514,-4.501,-4.469,-4.4443,-4.411,-4.3415,-4.2783,-4.2381,-4.1436,-4.0592,-4.0705,-4.0093,-3.9594,-3.9495,-3.9427,-3.9305,-3.9305,-3.9305,-3.9305,-3.9305,-3.9305,-3.9305,-3.9305,-3.9305,-3.9305,-3.9305,-3.8666,-3.7926,-3.7163,-3.6367,-3.5536,-3.5017,-3.4872,-3.4775,-3.4775,-3.4775,-3.4775,-3.4775,-3.4775,-3.4775,-3.4775,-3.4775,-3.4775,-3.4775,-3.4775,-3.4775,-3.4775,-3.4775,-3.4775,-6.0913,-5.9357,-5.8033,-5.6721,-5.5519,-5.4721,-5.4059,-5.3568,-5.3518,-5.3518,-5.3518,-5.3518,-5.3518,-5.3518,-5.3535,-5.421,-5.5194,-5.5462,-5.5101,-5.4597,-5.3781,-5.2705,-5.1628,-5.1363,-5.1363,-5.1363,-5.1347,-5.1098,-5.0866,-5.0767,-5.0618,-5.0253,-5.0187,-5.0452,-5.0717,-5.0783,-5.0949,-5.1093,-5.073,-5.0314,-5.002,-4.9549,-4.9122,-4.9006,-4.8968,-4.8968,-4.8936,-4.8952,-4.8952,-4.8983,-4.896,-4.885,-4.8424,-4.8057,-4.7349,-4.6565,-4.6015,-4.5737,-4.5547,-4.5401,-4.5271,-4.5053,-4.501,-4.501,-4.4966,-4.4632,-4.4516,-4.4414,-4.4182,-4.3906,-4.3544,-4.2694,-4.2278,-4.1767,-4.1027,-4.0314,-4.0039,-3.9615,-3.9305,-3.9305,-3.9332,-3.9305,-3.9305,-3.9305,-3.9305,-3.9305,-3.9305,-3.9305,-3.9305,-3.9305,-3.9305,-3.9172,-3.8621,-3.7926,-3.7129,-3.6285,-3.5295,-3.4969,-3.4823,-3.4775,-3.4775,-3.4775,-3.4775,-3.4775,-3.4775,-3.4775,-3.4775,-3.4775,-3.4775,-3.4775,-3.4775,-3.4775,-3.4775,-3.4775,-3.4775,-5.9605,-5.7629,-5.7328,-5.6094,-5.452,-5.4281,-5.3946,-5.3534,-5.3518,-5.3518,-5.3518,-5.3518,-5.3518,-5.3534,-5.3687,-5.4327,-5.4991,-5.5405,-5.4845,-5.3155,-5.2589,-5.1496,-5.0469,-5.0154,-5.0021,-4.9922,-5.027,-5.0253,-5.0104,-5.0021,-4.9889,-4.9839,-4.9823,-4.9823,-4.9972,-5.0055,-5.0187,-5.0334,-5.0002,-4.9548,-4.9172,-4.8806,-4.8429,-4.8159,-4.8083,-4.8114,-4.8114,-4.8083,-4.7988,-4.7909,-4.7909,-4.8145,-4.8261,-4.7976,-4.7319,-4.656,-4.5771,-4.5243,-4.4864,-4.4734,-4.456,-4.4023,-4.4037,-4.4052,-4.4066,-4.3964,-4.3834,-4.3776,-4.3616,-4.334,-4.2848,-4.2134,-4.1411,-4.0944,-4.04,-3.9865,-3.9513,-3.938,-3.9305,-3.9305,-3.9305,-3.9305,-3.9305,-3.9305,-3.9305,-3.9305,-3.9305,-3.9305,-3.9305,-3.9305,-3.9305,-3.8935,-3.8349,-3.7188,-3.6285,-3.6001,-3.5066,-3.492,-3.4775,-3.4775,-3.4775,-3.4775,-3.4775,-3.4775,-3.4775,-3.4775,-3.4775,-3.4775,-3.4775,-3.4775,-3.4775,-3.4775,-3.4775,-3.4775,-3.4775,-5.8531,-5.7428,-5.625,-5.5204,-5.4376,-5.3865,-5.3601,-5.3501,-5.3518,-5.3518,-5.3518,-5.3518,-5.3518,-5.3619,-5.416,-5.4377,-5.4297,-5.4448,-5.3681,-5.1995,-5.1431,-5.0601,-4.9525,-4.9276,-4.9011,-4.8862,-4.9375,-4.974,-4.9392,-4.9276,-4.9061,-4.8564,-4.8498,-4.8746,-4.9193,-4.9326,-4.9558,-4.9788,-4.9544,-4.9178,-4.8803,-4.8384,-4.8031,-4.7725,-4.7656,-4.7688,-4.7782,-4.7846,-4.7909,-4.7909,-4.7909,-4.7612,-4.7176,-4.6559,-4.5951,-4.5473,-4.4863,-4.4414,-4.4182,-4.4139,-4.411,-4.4023,-4.3877,-4.3892,-4.379,-4.3485,-4.321,-4.305,-4.2774,-4.2411,-4.2266,-4.1677,-4.1424,-4.1043,-4.0516,-3.9952,-3.9777,-3.9526,-3.9305,-3.9305,-3.9305,-3.9305,-3.9305,-3.9305,-3.9305,-3.9305,-3.9305,-3.9305,-3.9305,-3.9305,-3.9305,-3.8756,-3.8063,-3.6662,-3.5307,-3.5199,-3.4823,-3.4872,-3.4775,-3.4775,-3.4775,-3.4775,-3.4775,-3.4775,-3.4775,-3.4775,-3.4775,-3.4775,-3.4775,-3.4775,-3.4775,-3.4775,-3.4775,-3.4775,-3.4775,-5.7559,-5.6332,-5.5299,-5.4502,-5.3946,-5.3651,-5.3518,-5.3518,-5.3518,-5.3518,-5.3518,-5.3518,-5.3518,-5.3501,-5.3331,-5.3196,-5.3038,-5.2944,-5.2169,-5.0884,-5.0303,-4.9624,-4.8647,-4.8564,-4.8349,-4.8249,-4.873,-4.8978,-4.8564,-4.8547,-4.8349,-4.815,-4.8001,-4.8199,-4.8448,-4.8547,-4.8746,-4.8977,-4.874,-4.8329,-4.791,-4.7425,-4.7019,-4.6909,-4.685,-4.6819,-4.6819,-4.6819,-4.6803,-4.6697,-4.6457,-4.614,-4.5681,-4.5093,-4.4612,-4.4706,-4.4292,-4.379,-4.3544,-4.3456,-4.334,-4.3021,-4.3036,-4.3007,-4.2948,-4.2702,-4.2571,-4.2428,-4.2075,-4.1745,-4.1718,-4.1311,-4.0958,-4.0645,-4.0257,-3.9908,-3.9703,-3.9438,-3.9349,-3.9305,-3.9305,-3.9305,-3.9305,-3.9305,-3.9305,-3.9305,-3.9305,-3.9305,-3.9305,-3.9305,-3.9305,-3.8756,-3.8018,-3.6709,-3.5452,-3.5114,-3.4872,-3.4823,-3.4775,-3.4775,-3.4775,-3.4775,-3.4775,-3.4775,-3.4775,-3.4775,-3.4775,-3.4775,-3.4775,-3.4775,-3.4775,-3.4775,-3.4775,-3.4775,-3.4775,-5.6773,-5.5355,-5.4672,-5.4059,-5.3551,-5.3518,-5.3518,-5.3518,-5.3518,-5.3518,-5.3518,-5.3501,-5.3399,-5.3145,-5.2605,-5.2068,-5.1597,-5.1427,-5.0756,-4.979,-4.9226,-4.8547,-4.8183,-4.8001,-4.8034,-4.8067,-4.81,-4.8001,-4.81,-4.81,-4.8034,-4.8001,-4.8001,-4.8001,-4.8067,-4.8117,-4.8017,-4.7886,-4.7704,-4.7354,-4.6842,-4.6207,-4.5807,-4.5807,-4.5807,-4.5886,-4.5981,-4.5997,-4.5981,-4.584,-4.5483,-4.498,-4.4541,-4.3717,-4.3607,-4.4181,-4.3871,-4.3367,-4.2992,-4.2803,-4.2658,-4.2353,-4.2165,-4.2136,-4.215,-4.2252,-4.2136,-4.2009,-4.1704,-4.1438,-4.1396,-4.0887,-4.0473,-4.0184,-3.9952,-3.9733,-3.9482,-3.9305,-3.9305,-3.9305,-3.9305,-3.9305,-3.9305,-3.9305,-3.9305,-3.9305,-3.9305,-3.9305,-3.9305,-3.9305,-3.9216,-3.8742,-3.8004,-3.6849,-3.5906,-3.5356,-3.5066,-3.4823,-3.4823,-3.4775,-3.4775,-3.4775,-3.4775,-3.4775,-3.4775,-3.4775,-3.4775,-3.4775,-3.4775,-3.4775,-3.4775,-3.4775,-3.4775,-3.4775,-3.4775,-5.6265,-5.5373,-5.4655,-5.4059,-5.3534,-5.3518,-5.3518,-5.3518,-5.3518,-5.3518,-5.3399,-5.3433,-5.3044,-5.2402,-5.2117,-5.153,-5.0961,-5.0476,-4.9759,-4.8696,-4.8332,-4.8199,-4.8017,-4.8001,-4.8001,-4.8001,-4.8001,-4.8001,-4.8001,-4.8001,-4.8001,-4.8001,-4.8001,-4.8001,-4.8001,-4.8001,-4.8001,-4.7968,-4.7935,-4.7554,-4.6892,-4.6171,-4.588,-4.5807,-4.5807,-4.5807,-4.5807,-4.5807,-4.5807,-4.5755,-4.5719,-4.5098,-4.422,-4.3927,-4.3185,-4.2746,-4.2351,-4.2295,-4.2281,-4.2295,-4.2281,-4.2107,-4.2092,-4.2092,-4.2092,-4.2092,-4.2092,-4.2107,-4.1662,-4.1368,-4.1185,-4.0559,-4.017,-3.9865,-3.9645,-3.9482,-3.9305,-3.9305,-3.9305,-3.9305,-3.9305,-3.9305,-3.9305,-3.9305,-3.9305,-3.9305,-3.9305,-3.9305,-3.9216,-3.9172,-3.88,-3.8277,-3.773,-3.6615,-3.581,-3.5343,-3.5163,-3.4835,-3.4823,-3.4775,-3.4775,-3.4775,-3.4775,-3.4775,-3.4775,-3.4775,-3.4775,-3.4775,-3.4775,-3.4775,-3.4775,-3.4775,-3.4775,-3.4763,-3.4751,-5.5478,-5.5296,-5.4299,-5.375,-5.3501,-5.3518,-5.3518,-5.3518,-5.3501,-5.3247,-5.2875,-5.2807,-5.2181,-5.1269,-5.0951,-5.0433,-4.9733,-4.9455,-4.8959,-4.8281,-4.8066,-4.8001,-4.8001,-4.8001,-4.8001,-4.8001,-4.8001,-4.8001,-4.8001,-4.8001,-4.8001,-4.8001,-4.8001,-4.8001,-4.8001,-4.8001,-4.8001,-4.7902,-4.7621,-4.7235,-4.6789,-4.6207,-4.5807,-4.5807,-4.5807,-4.5807,-4.5807,-4.5807,-4.5807,-4.5719,-4.552,-4.503,-4.4373,-4.3834,-4.309,-4.2784,-4.2313,-4.2162,-4.2107,-4.2092,-4.2092,-4.2092,-4.2092,-4.2092,-4.2092,-4.2092,-4.2092,-4.2092,-4.1396,-4.1086,-4.0873,-4.0126,-3.9777,-3.9513,-3.9424,-3.9394,-3.9305,-3.9305,-3.9305,-3.9305,-3.9305,-3.9305,-3.9305,-3.9305,-3.9305,-3.9305,-3.9305,-3.9305,-3.9083,-3.88,-3.8277,-3.7625,-3.7023,-3.6285,-3.5584,-3.5054,-3.5017,-3.4823,-3.4823,-3.4775,-3.4775,-3.4775,-3.4751,-3.4751,-3.4751,-3.4763,-3.4739,-3.4775,-3.4775,-3.4775,-3.4775,-3.4727,-3.4691,-3.4703,-3.4703,-5.4839,-5.5026,-5.3948,-5.3518,-5.3518,-5.3518,-5.3365,-5.3196,-5.3179,-5.2756,-5.2131,-5.1809,-5.1082,-5.0253,-4.9917,-4.9533,-4.887,-4.8595,-4.8388,-4.8195,-4.8099,-4.8001,-4.8001,-4.8001,-4.8001,-4.8001,-4.8001,-4.8001,-4.8001,-4.8001,-4.8001,-4.8001,-4.8001,-4.8001,-4.8001,-4.8001,-4.8001,-4.7935,-4.7302,-4.6979,-4.6789,-4.6171,-4.588,-4.5807,-4.5807,-4.5807,-4.5807,-4.5807,-4.5807,-4.5735,-4.5431,-4.5104,-4.4662,-4.3912,-4.326,-4.2875,-4.2433,-4.2092,-4.2092,-4.2092,-4.2092,-4.2092,-4.2092,-4.2092,-4.2092,-4.2092,-4.1953,-4.187,-4.1213,-4.0744,-4.04,-3.9777,-3.9482,-3.9394,-3.9305,-3.9305,-3.9305,-3.9305,-3.9305,-3.9305,-3.9305,-3.9305,-3.9305,-3.9305,-3.9305,-3.9305,-3.9305,-3.9305,-3.9038,-3.8666,-3.82,-3.7625,-3.707,-3.6427,-3.5775,-3.5211,-3.5066,-3.4787,-3.4775,-3.4727,-3.4691,-3.4739,-3.4727,-3.4739,-3.4607,-3.4414,-3.4174,-3.4499,-3.4775,-3.4775,-3.4751,-3.4655,-3.4655,-3.457,-3.4475,-5.4544,-5.4391,-5.3749,-5.345,-5.345,-5.3501,-5.3044,-5.2418,-5.2401,-5.1978,-5.1234,-5.0625,-5.0253,-4.9932,-4.9427,-4.9044,-4.8801,-4.8595,-4.8388,-4.8227,-4.8099,-4.8001,-4.8001,-4.8001,-4.8001,-4.8001,-4.8001,-4.8001,-4.8001,-4.8001,-4.8001,-4.8001,-4.8001,-4.8001,-4.8001,-4.8001,-4.7935,-4.7787,-4.7218,-4.6876,-4.6649,-4.6207,-4.5807,-4.5807,-4.5807,-4.5807,-4.5807,-4.5807,-4.5807,-4.5807,-4.5646,-4.5268,-4.4737,-4.4105,-4.3536,-4.2996,-4.2433,-4.2133,-4.2092,-4.2092,-4.2092,-4.2092,-4.2092,-4.2092,-4.2092,-4.2107,-4.1926,-4.1522,-4.0958,-4.0487,-4.0097,-3.9645,-3.9349,-3.9305,-3.9305,-3.9305,-3.9305,-3.9305,-3.9305,-3.9305,-3.9305,-3.9305,-3.9305,-3.9305,-3.9305,-3.9305,-3.9305,-3.9305,-3.9083,-3.8711,-3.8381,-3.7913,-3.7394,-3.679,-3.6108,-3.5715,-3.5343,-3.4848,-3.4534,-3.4558,-3.4607,-3.4595,-3.4366,-3.427,-3.409,-3.3825,-3.3693,-3.4042,-3.439,-3.4691,-3.4667,-3.4378,-3.4126,-3.3982,-3.3789,-5.3269,-5.2418,-5.2195,-5.235,-5.2739,-5.2283,-5.1928,-5.1641,-5.164,-5.1217,-5.0473,-4.9779,-4.9424,-4.934,-4.9221,-4.8925,-4.8769,-4.8595,-4.8388,-4.8244,-4.8099,-4.8001,-4.8001,-4.8001,-4.8001,-4.8001,-4.8001,-4.8001,-4.8001,-4.8001,-4.8001,-4.8001,-4.8001,-4.8001,-4.8001,-4.7968,-4.7886,-4.7571,-4.7184,-4.6807,-4.6442,-4.61,-4.5807,-4.5807,-4.5807,-4.5807,-4.5807,-4.5807,-4.5807,-4.5807,-4.5807,-4.5395,-4.4812,-4.422,-4.3615,-4.3036,-4.2433,-4.2133,-4.2092,-4.2092,-4.2092,-4.2092,-4.2092,-4.2092,-4.2051,-4.187,-4.1662,-4.1255,-4.073,-4.027,-4.0039,-3.9615,-3.9305,-3.9305,-3.9305,-3.9305,-3.9305,-3.9305,-3.9305,-3.9305,-3.9305,-3.9305,-3.9305,-3.9305,-3.9305,-3.9305,-3.9305,-3.9261,-3.9038,-3.8671,-3.8283,-3.7736,-3.7147,-3.6493,-3.5802,-3.5637,-3.5519,-3.493,-3.4294,-3.427,-3.4174,-3.3873,-3.3669,-3.3597,-3.3573,-3.3404,-3.3404,-3.3645,-3.3873,-3.4054,-3.3982,-3.3765,-3.3549,-3.3356,-3.3188,-5.2247,-5.1217,-5.098,-5.1319,-5.186,-5.142,-5.1033,-5.0879,-5.0879,-5.0456,-4.9729,-4.9204,-4.9018,-4.9018,-4.9001,-4.8909,-4.8769,-4.8578,-4.8388,-4.8195,-4.8099,-4.8001,-4.8001,-4.8001,-4.8001,-4.8001,-4.8001,-4.8001,-4.8001,-4.8001,-4.8001,-4.8001,-4.8001,-4.8001,-4.8001,-4.7968,-4.7853,-4.7571,-4.7116,-4.6807,-4.6477,-4.6064,-4.5807,-4.5807,-4.5807,-4.5807,-4.5807,-4.5807,-4.5807,-4.5807,-4.5735,-4.5447,-4.4843,-4.4205,-4.3654,-4.3036,-4.2514,-4.2133,-4.2092,-4.2092,-4.2092,-4.2092,-4.2092,-4.2092,-4.2009,-4.1787,-4.1704,-4.1354,-4.0702,-4.0126,-3.9996,-3.9601,-3.9349,-3.9305,-3.9305,-3.9305,-3.9305,-3.9305,-3.9305,-3.9305,-3.9305,-3.9305,-3.9305,-3.9292,-3.9264,-3.9278,-3.9305,-3.9261,-3.9172,-3.8644,-3.7951,-3.7378,-3.6685,-3.5986,-3.5293,-3.4932,-3.4538,-3.4276,-3.3801,-3.3693,-3.3549,-3.3272,-3.3092,-3.3056,-3.3032,-3.2984,-3.2887,-3.2803,-3.3032,-3.3332,-3.3224,-3.3116,-3.2971,-3.2791,-3.2659,-5.1768,-5.1165,-5.0405,-5.0541,-5.1133,-5.1168,-5.0744,-5.0152,-5.0118,-4.9746,-4.9187,-4.9018,-4.9018,-4.9018,-4.9018,-4.8925,-4.8769,-4.8595,-4.8388,-4.8179,-4.8066,-4.8001,-4.8001,-4.8001,-4.8001,-4.8001,-4.8001,-4.8001,-4.8001,-4.8001,-4.8001,-4.8001,-4.8001,-4.8001,-4.8001,-4.8001,-4.8001,-4.7853,-4.7218,-4.6979,-4.6633,-4.6136,-4.5936,-4.5807,-4.5807,-4.5807,-4.5807,-4.5807,-4.5807,-4.5807,-4.5807,-4.541,-4.4715,-4.4182,-4.3576,-4.2915,-4.2392,-4.2133,-4.2092,-4.2092,-4.2092,-4.2092,-4.2092,-4.2092,-4.2092,-4.1953,-4.1704,-4.1227,-4.0702,-4.03,-3.9996,-3.9601,-3.9394,-3.9305,-3.9305,-3.9305,-3.9305,-3.9305,-3.9305,-3.9305,-3.9305,-3.9305,-3.9292,-3.9264,-3.9224,-3.9224,-3.9278,-3.922,-3.9081,-3.8367,-3.7516,-3.7052,-3.6328,-3.5508,-3.4783,-3.4015,-3.3579,-3.3379,-3.3248,-3.3128,-3.3056,-3.2899,-3.2731,-3.2575,-3.2491,-3.2442,-3.2151,-3.1813,-3.2271,-3.2659,-3.2599,-3.2491,-3.2358,-3.2274,-3.2235,-5.1109,-4.9729,-4.9458,-4.9509,-4.9729,-4.9746,-4.9593,-4.939,-4.934,-4.9221,-4.9052,-4.9018,-4.9018,-4.9018,-4.897,-4.8846,-4.8627,-4.8564,-4.8373,-4.8099,-4.8017,-4.8017,-4.8001,-4.8001,-4.8001,-4.8001,-4.8001,-4.8001,-4.8001,-4.8001,-4.8001,-4.8001,-4.8001,-4.8001,-4.8001,-4.7968,-4.7886,-4.7638,-4.7286,-4.7032,-4.6547,-4.6246,-4.5992,-4.5807,-4.5807,-4.5807,-4.5807,-4.5807,-4.5807,-4.5771,-4.5771,-4.5262,-4.4488,-4.3888,-4.3433,-4.2688,-4.2092,-4.2092,-4.2092,-4.2092,-4.2092,-4.2092,-4.2092,-4.2092,-4.2092,-4.1452,-4.1185,-4.0915,-4.0487,-3.9996,-3.9482,-3.9424,-3.9305,-3.9305,-3.9305,-3.9305,-3.9305,-3.9305,-3.9305,-3.9305,-3.9305,-3.9264,-3.9237,-3.8966,-3.8871,-3.8667,-3.8613,-3.8681,-3.8597,-3.7658,-3.6814,-3.6537,-3.6004,-3.5122,-3.4363,-3.3752,-3.3205,-3.2995,-3.275,-3.2527,-3.2466,-3.2442,-3.2319,-3.2082,-3.1985,-3.1934,-3.1813,-3.1729,-3.1837,-3.2018,-3.2102,-3.2082,-3.2054,-3.197,-3.1898,-5.0333,-4.9049,-4.9018,-4.9018,-4.9018,-4.9018,-4.9018,-4.9018,-4.9018,-4.9018,-4.9018,-4.9018,-4.9018,-4.8987,-4.8925,-4.8784,-4.8515,-4.842,-4.8308,-4.8033,-4.8001,-4.8001,-4.8001,-4.8001,-4.8001,-4.8001,-4.8001,-4.8001,-4.8001,-4.8001,-4.8001,-4.8001,-4.8001,-4.8001,-4.8001,-4.7968,-4.7902,-4.7638,-4.7387,-4.6979,-4.6598,-4.6246,-4.5992,-4.588,-4.5807,-4.5807,-4.5807,-4.5807,-4.5771,-4.5735,-4.5447,-4.4986,-4.4197,-4.3576,-4.3115,-4.2392,-4.2092,-4.2092,-4.2092,-4.2092,-4.2092,-4.2092,-4.2092,-4.2092,-4.2051,-4.1662,-4.1311,-4.0873,-4.0257,-3.9996,-3.9791,-3.9689,-3.9469,-3.9482,-3.9349,-3.9349,-3.9305,-3.9305,-3.9305,-3.9305,-3.9251,-3.9197,-3.8993,-3.8722,-3.845,-3.8165,-3.7908,-3.7975,-3.7987,-3.7166,-3.6323,-3.6012,-3.5687,-3.493,-3.4243,-3.3657,-3.3141,-3.2629,-3.2378,-3.2126,-3.203,-3.203,-3.1825,-3.1717,-3.1777,-3.1813,-3.1765,-3.1753,-3.1801,-3.1801,-3.1813,-3.1789,-3.1717,-3.1705,-3.1705,-4.9555,-4.9032,-4.9018,-4.9018,-4.9018,-4.9018,-4.9018,-4.9018,-4.9018,-4.9018,-4.9018,-4.9018,-4.9018,-4.8987,-4.8894,-4.8738,-4.8515,-4.8356,-4.8179,-4.8066,-4.8001,-4.8001,-4.8001,-4.8001,-4.8001,-4.8001,-4.8001,-4.8001,-4.8001,-4.8001,-4.8001,-4.8001,-4.8001,-4.8001,-4.8001,-4.8001,-4.7935,-4.7671,-4.7354,-4.6979,-4.6633,-4.6191,-4.5972,-4.5844,-4.5807,-4.5807,-4.5771,-4.5682,-4.5646,-4.5484,-4.5104,-4.4488,-4.3873,-4.3324,-4.2729,-4.2269,-4.2092,-4.2092,-4.2092,-4.2092,-4.2092,-4.2092,-4.2092,-4.2092,-4.2009,-4.1829,-4.1536,-4.1269,-4.0873,-4.073,-4.0559,-4.0213,-3.9865,-3.9689,-3.9424,-3.9394,-3.9305,-3.9305,-3.9305,-3.9264,-3.9169,-3.8979,-3.8477,-3.8165,-3.7826,-3.7501,-3.7216,-3.7039,-3.7023,-3.692,-3.6109,-3.5505,-3.5159,-3.4705,-3.4075,-3.3339,-3.2808,-3.2261,-3.2055,-3.1849,-3.1729,-3.1705,-3.1705,-3.1705,-3.1705,-3.1705,-3.1705,-3.1705,-3.1717,-3.1705,-3.1705,-3.1705,-3.1705,-3.1705,-3.1705,-4.9555,-4.9001,-4.9018,-4.9018,-4.9018,-4.9018,-4.9018,-4.9018,-4.9018,-4.9018,-4.9018,-4.9018,-4.9018,-4.9018,-4.894,-4.8753,-4.8595,-4.842,-4.8244,-4.8082,-4.8001,-4.8001,-4.8001,-4.8001,-4.8001,-4.8001,-4.8001,-4.8001,-4.8001,-4.8001,-4.8001,-4.8001,-4.8001,-4.8001,-4.8001,-4.8001,-4.782,-4.7571,-4.7286,-4.6963,-4.6633,-4.6246,-4.5992,-4.588,-4.5807,-4.5807,-4.5771,-4.5395,-4.5268,-4.5067,-4.4526,-4.3912,-4.3299,-4.3061,-4.2729,-4.2201,-4.2092,-4.2092,-4.2092,-4.2092,-4.2092,-4.2092,-4.2092,-4.2092,-4.2009,-4.187,-4.162,-4.1438,-4.117,-4.0915,-4.0559,-4.0213,-3.9908,-3.9689,-3.9482,-3.9349,-3.9305,-3.9305,-3.9292,-3.9074,-3.8979,-3.841,-3.7878,-3.746,-3.7107,-3.6795,-3.6551,-3.6375,-3.6225,-3.6208,-3.6055,-3.5414,-3.4876,-3.4491,-3.352,-3.2729,-3.2318,-3.1906,-3.1793,-3.1793,-3.1793,-3.1793,-3.1749,-3.1705,-3.1705,-3.1705,-3.1705,-3.1705,-3.1705,-3.1705,-3.1705,-3.1705,-3.1705,-3.1705,-3.1705,-4.9333,-4.9032,-4.9018,-4.9018,-4.9018,-4.9018,-4.9018,-4.9018,-4.9018,-4.9018,-4.9018,-4.9018,-4.9001,-4.9001,-4.8925,-4.8769,-4.8515,-4.8388,-4.8195,-4.8066,-4.8001,-4.8001,-4.8001,-4.8001,-4.8001,-4.8001,-4.8001,-4.8001,-4.8001,-4.8001,-4.8001,-4.8001,-4.8001,-4.8001,-4.8001,-4.7968,-4.7688,-4.7387,-4.71,-4.6894,-4.6617,-4.6246,-4.6008,-4.588,-4.5807,-4.5807,-4.5771,-4.5268,-4.5179,-4.5104,-4.4617,-4.3989,-4.3339,-4.2996,-4.2581,-4.2092,-4.2092,-4.2092,-4.2092,-4.2092,-4.2092,-4.2092,-4.2092,-4.2092,-4.2051,-4.1912,-4.1662,-4.1438,-4.1128,-4.083,-4.0473,-4.0083,-3.9878,-3.9659,-3.9482,-3.9305,-3.9305,-3.9305,-3.9129,-3.8871,-3.8423,-3.7826,-3.7311,-3.6836,-3.6469,-3.6252,-3.6103,-3.6008,-3.59,-3.5818,-3.5777,-3.5479,-3.4876,-3.4353,-3.3373,-3.2785,-3.2655,-3.2394,-3.1925,-3.1925,-3.1925,-3.1837,-3.1749,-3.1705,-3.1705,-3.1705,-3.1705,-3.1705,-3.1705,-3.1705,-3.1705,-3.1705,-3.1705,-3.1705,-3.1705,-4.9001,-4.9018,-4.9018,-4.9018,-4.9018,-4.9018,-4.9018,-4.9018,-4.9018,-4.9018,-4.9018,-4.9018,-4.9018,-4.897,-4.8925,-4.8738,-4.8532,-4.8356,-4.8195,-4.8001,-4.8001,-4.8001,-4.8001,-4.8001,-4.8001,-4.8001,-4.8001,-4.8001,-4.8001,-4.8001,-4.8001,-4.8001,-4.8001,-4.8001,-4.8001,-4.8001,-4.7721,-4.7252,-4.7014,-4.6807,-4.6528,-4.6171,-4.5807,-4.5807,-4.5807,-4.5807,-4.5771,-4.5735,-4.5682,-4.5484,-4.4955,-4.422,-4.3418,-4.2784,-4.2284,-4.2133,-4.2092,-4.2092,-4.2092,-4.2092,-4.2092,-4.2092,-4.2092,-4.2009,-4.1912,-4.1829,-4.1564,-4.1396,-4.1128,-4.073,-4.0386,-4.0083,-3.9878,-3.9659,-3.9438,-3.9349,-3.9305,-3.9088,-3.8627,-3.8301,-3.7745,-3.7175,-3.6714,-3.6266,-3.6198,-3.5886,-3.5778,-3.5723,-3.5669,-3.5629,-3.5588,-3.5535,-3.4964,-3.4509,-3.4259,-3.3713,-3.3458,-3.3074,-3.2351,-3.2013,-3.2013,-3.1881,-3.1705,-3.1705,-3.1705,-3.1705,-3.1705,-3.1705,-3.1705,-3.1705,-3.1705,-3.1705,-3.1705,-3.1705,-3.1705,-4.9018,-4.9018,-4.9018,-4.9018,-4.9018,-4.9018,-4.9018,-4.9018,-4.9018,-4.9018,-4.9018,-4.9018,-4.9018,-4.9018,-4.8956,-4.8784,-4.8515,-4.8388,-4.8244,-4.8099,-4.8001,-4.8001,-4.8001,-4.8001,-4.8001,-4.8001,-4.8001,-4.8001,-4.8001,-4.8001,-4.8001,-4.8001,-4.8001,-4.8001,-4.8001,-4.7968,-4.7688,-4.715,-4.6911,-4.658,-4.6136,-4.6008,-4.5807,-4.5807,-4.5807,-4.5807,-4.5682,-4.5358,-4.5194,-4.4918,-4.3912,-4.3195,-4.2514,-4.2257,-4.2133,-4.2092,-4.2092,-4.2092,-4.2092,-4.2092,-4.2092,-4.2092,-4.2051,-4.1829,-4.1704,-4.1606,-4.148,-4.1297,-4.1043,-4.0645,-4.03,-4.0097,-3.9878,-3.9601,-3.9326,-3.9282,-3.9237,-3.8667,-3.8125,-3.7596,-3.7053,-3.6578,-3.613,-3.594,-3.5859,-3.5791,-3.575,-3.571,-3.571,-3.5669,-3.5669,-3.5548,-3.5087,-3.4675,-3.4509,-3.4176,-3.367,-3.3172,-3.2481,-3.2232,-3.2057,-3.1881,-3.1705,-3.1705,-3.1705,-3.1705,-3.1705,-3.1705,-3.1705,-3.1705,-3.1705,-3.1705,-3.1705,-3.1705,-3.1705,-4.9018,-4.9018,-4.9018,-4.9018,-4.9018,-4.9018,-4.9018,-4.9018,-4.9018,-4.9018,-4.9018,-4.9018,-4.9018,-4.8987,-4.8956,-4.8784,-4.8515,-4.8388,-4.8212,-4.8066,-4.8001,-4.8001,-4.8001,-4.8001,-4.8001,-4.8001,-4.8001,-4.8001,-4.8001,-4.8001,-4.8001,-4.8001,-4.8001,-4.8001,-4.7968,-4.7853,-4.7571,-4.715,-4.6825,-4.6369,-4.5844,-4.5807,-4.5807,-4.5807,-4.5807,-4.5807,-4.5735,-4.5358,-4.5142,-4.4601,-4.3717,-4.3101,-4.2622,-4.2325,-4.2133,-4.2092,-4.2092,-4.2092,-4.2092,-4.2092,-4.2092,-4.2065,-4.1843,-4.1578,-4.1396,-4.1255,-4.0958,-4.0744,-4.0573,-4.0227,-4.0053,-3.9878,-3.9659,-3.938,-3.8983,-3.8708,-3.8328,-3.7758,-3.7379,-3.7066,-3.6564,-3.6157,-3.5845,-3.5832,-3.5764,-3.5764,-3.5723,-3.571,-3.571,-3.571,-3.571,-3.5629,-3.5209,-3.4592,-3.4134,-3.3839,-3.3501,-3.3,-3.2698,-3.2232,-3.1925,-3.1793,-3.1705,-3.1705,-3.1705,-3.1705,-3.1705,-3.1705,-3.1705,-3.1705,-3.1705,-3.1705,-3.1705,-3.1705,-3.1705,-4.9018,-4.9018,-4.9018,-4.9018,-4.9018,-4.9018,-4.9018,-4.9018,-4.9018,-4.9018,-4.9018,-4.9018,-4.9018,-4.8956,-4.8894,-4.869,-4.8515,-4.842,-4.8212,-4.8066,-4.8001,-4.8001,-4.8001,-4.8001,-4.8001,-4.8001,-4.8001,-4.8001,-4.8001,-4.8001,-4.8001,-4.8001,-4.8001,-4.8001,-4.7886,-4.7671,-4.7387,-4.7014,-4.6633,-4.6246,-4.5956,-4.5807,-4.5807,-4.5807,-4.5807,-4.5771,-4.5735,-4.5557,-4.5268,-4.4526,-4.36,-4.3036,-4.2607,-4.2284,-4.216,-4.2092,-4.2092,-4.2092,-4.2092,-4.2092,-4.2051,-4.1926,-4.1578,-4.1311,-4.1128,-4.0787,-4.0487,-4.0227,-4.0053,-3.9895,-3.9719,-3.9631,-3.9411,-3.902,-3.8559,-3.807,-3.7501,-3.6999,-3.6768,-3.6537,-3.6171,-3.5764,-3.5737,-3.571,-3.571,-3.571,-3.571,-3.571,-3.571,-3.571,-3.571,-3.571,-3.5548,-3.484,-3.4217,-3.4008,-3.3924,-3.3628,-3.3288,-3.2481,-3.1925,-3.2013,-3.1969,-3.1705,-3.1705,-3.1705,-3.1705,-3.1705,-3.1705,-3.1705,-3.1705,-3.1705,-3.1705,-3.1705,-3.1705,-4.9018,-4.9018,-4.9018,-4.9018,-4.9018,-4.9018,-4.9018,-4.9018,-4.9018,-4.9018,-4.9018,-4.9018,-4.9018,-4.9018,-4.8987,-4.8815,-4.8564,-4.842,-4.8195,-4.8017,-4.8001,-4.8001,-4.8001,-4.8001,-4.8001,-4.8001,-4.8001,-4.8001,-4.8001,-4.8001,-4.8001,-4.8001,-4.8001,-4.8001,-4.8001,-4.7754,-4.7437,-4.703,-4.6684,-4.6333,-4.5936,-4.5807,-4.5807,-4.5807,-4.5807,-4.5447,-4.5194,-4.503,-4.4639,-4.4066,-4.3418,-4.2809,-4.2459,-4.2201,-4.2133,-4.2092,-4.2092,-4.2092,-4.2092,-4.2092,-4.2051,-4.1745,-4.1438,-4.1128,-4.083,-4.04,-4.0039,-3.9719,-3.956,-3.9417,-3.9316,-3.9316,-3.9129,-3.8505,-3.7975,-3.7433,-3.6863,-3.6632,-3.6442,-3.6185,-3.5886,-3.5723,-3.5723,-3.571,-3.571,-3.571,-3.571,-3.571,-3.571,-3.571,-3.571,-3.571,-3.571,-3.5683,-3.5345,-3.4977,-3.4799,-3.4413,-3.3784,-3.2815,-3.232,-3.2494,-3.2363,-3.1837,-3.1705,-3.1705,-3.1705,-3.1705,-3.1705,-3.1705,-3.1705,-3.1705,-3.1705,-3.1705,-3.1705]},{"header":{"parameterUnit":"m.s-1","parameterCategory":1,"la1":31.0,"la2":29.5877,"lo1":-88.7671,"lo2":-86.6584,"dy":0.0162,"dx":0.0185,"nx":115,"ny":88,"refTime":"2023-08-06T00:00:00:Z","depth":0,"parameterNumber":3,"parameterNumberName":"V-component_of_WINDS"},"data":[0.0,0.0,0.0,0.0,0.0,0.0,0.0,0.0,0.0,0.0,0.0,0.0,0.0,0.0,0.0,0.0,0.0,0.0,0.0,0.0,0.0,0.0,0.0,0.0,0.0,0.0,0.0,0.0,0.0,0.0,0.0,0.0,0.0,0.0,0.0,0.0,0.0,0.0,0.0,0.0,0.0,0.0,0.0,0.0,0.0,0.0,0.0,0.0,0.0,0.0,0.0,0.0,0.0,0.0,0.0,0.0,0.0,0.0,0.0,0.0,0.0,0.0,0.0,0.0,0.0,0.0,0.0,0.0,0.0,0.0,0.0,0.0,0.0,0.0,0.0,0.0,0.0,0.0,0.0,0.0,0.0,0.0,0.0,0.0,0.0,0.0,0.0,0.0,0.0,0.0,0.0,0.0,0.0,0.0,0.0,0.0,0.0,0.0,0.0,0.0,0.0,0.0,0.0,0.0,0.0,0.0,0.0,0.0,0.0,0.0,0.0,0.0,0.0,0.0,0.0,0.0,0.0,0.0,0.0,0.0,0.0,0.0,0.0,0.0,0.0,0.0,0.0,0.0,0.0,0.0,0.0,0.0,0.0,0.0,0.0,0.0,0.0,0.0,0.0,0.0,0.0,0.0,0.0,0.0,0.0,0.0,0.0,0.0,0.0,0.0,0.0,0.0,0.0,0.0,0.0,0.0,0.0,0.0,0.0,0.0,0.0,0.0,0.0,0.0,0.0,0.0,0.0,0.0,0.0,0.0,0.0,0.0,0.0,0.0,0.0,0.0,0.0,0.0,0.0,0.0,0.0,0.0,0.0,0.0,0.0,0.0,0.0,0.0,0.0,0.0,0.0,0.0,0.0,0.0,0.0,0.0,0.0,0.0,0.0,0.0,0.0,0.0,0.0,0.0,0.0,0.0,0.0,0.0,0.0,0.0,0.0,0.0,0.0,0.0,0.0,0.0,0.0,0.0,0.0,0.0,0.0,0.0,0.0,0.0,0.0,0.0,0.0,0.0,0.0,0.0,0.0,0.0,0.0,0.0,0.0,0.0,0.0,0.0,0.0,0.0,0.0,0.0,0.0,0.0,0.0,0.0,0.0,0.0,0.0,0.0,0.0,0.0,0.0,0.0,0.0,0.0,0.0,0.0,0.0,0.0,0.0,0.0,0.0,0.0,0.0,0.0,0.0,0.0,0.0,0.0,0.0,0.0,0.0,0.0,0.0,0.0,0.0,0.0,0.0,0.0,0.0,0.0,0.0,0.0,0.0,0.0,0.0,0.0,0.0,0.0,0.0,0.0,0.0,0.0,0.0,0.0,0.0,0.0,0.0,0.0,0.0,0.0,0.0,0.0,0.0,0.0,0.0,0.0,0.0,0.0,0.0,0.0,0.0,0.0,0.0,0.0,0.0,0.0,0.0,0.0,0.0,0.0,0.0,0.0,0.0,0.0,0.0,0.0,0.0,0.0,0.0,0.0,0.0,0.0,0.0,0.0,0.0,0.0,0.0,0.0,0.0,0.0,0.0,0.0,0.0,0.0,0.0,0.0,0.0,0.0,0.0,0.0,0.0,0.0,0.0,0.0,0.0,0.0,0.0,0.0,0.0,0.0,0.0,0.0,0.0,0.0,0.0,0.0,0.0,0.0,0.0,0.0,0.0,0.0,0.0,0.0,0.0,0.0,0.0,0.0,0.0,0.0,0.0,0.0,0.0,0.0,0.0,0.0,0.0,0.0,0.0,0.0,0.0,0.0,0.0,0.0,0.0,0.0,0.0,0.0,0.0,0.0,0.0,0.0,0.0,0.0,0.0,0.0,0.0,0.0,0.0,0.0,0.0,0.0,0.0,0.0,0.0,0.0,0.0,0.0,0.0,0.0,0.0,0.0,0.0,0.0,0.0,0.0,0.0,0.0,0.0,0.0,0.0,0.0,0.0,0.0,0.0,0.0,0.0,0.0,0.0,0.0,0.0,0.0,0.0,0.0,0.0,0.0,0.0,0.0,0.0,0.0,0.0,0.0,0.0,0.0,0.0,0.0,0.0,0.0,0.0,0.0,0.0,0.0,0.0,0.0,0.0,0.0,0.0,0.0,0.0,0.0,0.0,0.0,0.0,0.0,0.0,0.0,0.0,0.0,0.0,0.0,0.0,0.0,0.0,0.0,0.0,0.0,0.0,0.0,0.0,0.0,0.0,0.0,0.0,0.0,0.0,0.0,0.0,0.0,0.0,0.0,0.0,0.0,0.0,0.0,0.0,0.0,0.0,0.0,0.0,0.0,0.0,0.0,0.0,0.0,0.0,0.0,0.0,0.0,0.0,0.0,0.0,0.0,0.0,0.0,0.0,0.0,0.0,0.0,0.0,0.0,0.0,0.0,0.0,0.0,0.0,0.0,0.0,0.0,0.0,0.0,0.0,0.0,0.0,0.0,0.0,0.0,0.0,0.0,0.0,0.0,0.0,0.0,0.0,0.0,0.0,0.0,0.0,0.0,0.0,0.0,0.0,0.0,0.0,0.0,0.0,0.0,0.0,0.0,0.0,0.0,0.0,0.0,0.0,0.0,0.0,0.0,0.0,0.0,0.0,0.0,0.0,0.0,0.0,0.0,0.0,0.0,0.0,0.0,0.0,0.0,0.0,0.0,0.0,0.0,0.0,0.0,0.0,0.0,0.0,0.0,0.0,0.0,0.0,0.0,0.0,0.0,0.0,0.0,0.0,0.0,0.0,0.0,0.0,0.0,0.0,0.0,0.0,0.0,0.0,0.0,0.0,0.0,0.0,0.0,0.0,0.0,0.0,0.0,0.0,0.0,0.0,0.0,0.0,0.0,0.0,0.0,0.0,0.0,0.0,0.0,0.0,0.0,0.0,0.0,0.0,0.0,0.0,0.0,0.0,0.0,0.0,0.0,0.0,0.0,0.0,0.0,0.0,0.0,0.0,0.0,0.0,0.0,0.0,0.0,0.0,0.0,0.0,0.0,0.0,0.0,0.0,0.0,0.0,0.0,0.0,0.0,0.0,0.0,0.0,0.0,0.0,0.0,0.0,0.0,0.0,0.0,0.0,0.0,0.0,0.0,0.0,0.0,0.0,0.0,0.0,0.0,0.0,0.0,0.0,0.0,0.0,0.0,0.0,0.0,0.0,0.0,0.0,0.0,0.0,0.0,0.0,0.0,0.0,0.0,0.0,0.0,0.0,0.0,0.0,0.0,0.0,0.0,0.0,0.0,0.0,0.0,0.0,0.0,0.0,0.0,0.0,0.0,0.0,0.0,0.0,0.0,0.0,0.0,0.0,0.0,0.0,0.0,0.0,0.0,0.0,0.0,0.0,0.0,0.0,0.0,0.0,0.0,0.0,0.0,0.0,0.0,0.0,0.0,0.0,0.0,0.0,0.0,0.0,0.0,0.0,0.0,0.0,0.0,0.0,0.0,0.0,0.0,0.0,0.0,0.0,0.0,0.0,0.0,0.0,0.0,0.0,0.0,0.0,0.0,0.0,0.0,0.0,0.0,0.0,0.0,0.0,0.0,0.0,0.0,0.0,0.0,0.0,0.0,0.0,0.0,0.0,0.0,0.0,0.0,0.0,0.0,0.0,0.0,0.0,0.0,0.0,0.0,0.0,0.0,0.0,0.0,0.0,0.0,0.0,0.0,0.0,0.0,0.0,0.0,0.0,0.0,0.0,0.0,0.0,0.0,0.0,0.0,0.0,0.0,0.0,0.0,0.0,0.0,0.0,0.0,0.0,0.0,0.0,0.0,0.0,0.0,0.0,0.0,0.0,0.0,0.0,0.0,0.0,0.0,0.0,0.0,0.0,0.0,0.0,0.0,0.0,0.0,0.0,0.0,0.0,0.0,0.0,0.0,0.0,0.0,0.0,0.0,0.0,0.0,0.0,0.0,0.0,0.0,0.0,0.0,0.0,0.0,0.0,0.0,0.0,0.0,0.0,0.0,0.0,0.0,0.0,0.0,0.0,0.0,0.0,0.0,0.0,0.0,0.0,0.0,0.0,0.0,0.0,0.0,0.0,0.0,0.0,0.0,0.0,0.0,0.0,0.0,0.0,0.0,0.0,0.0,0.0,0.0,0.0,0.0,0.0,0.0,0.0,0.0,0.0,0.0,0.0,0.0,0.0,0.0,0.0,0.0,0.0,0.0,0.0,0.0,0.0,0.0,0.0,0.0,0.0,0.0,0.0,0.0,0.0,0.0,0.0,0.0,0.0,0.0,0.0,0.0,0.0,0.0,0.0,0.0,0.0,0.0,0.0,0.0,0.0,0.0,0.0,0.0,-2.0319,0.0,0.0,0.0,0.0,0.0,0.0,0.0,0.0,0.0,0.0,0.0,0.0,0.0,0.0,0.0,0.0,0.0,0.0,0.0,0.0,0.0,0.0,0.0,0.0,0.0,0.0,0.0,0.0,0.0,0.0,0.0,0.0,0.0,0.0,0.0,0.0,0.0,0.0,0.0,0.0,0.0,0.0,0.0,0.0,0.0,0.0,0.0,0.0,0.0,0.0,0.0,0.0,0.0,0.0,0.0,0.0,0.0,0.0,0.0,0.0,0.0,0.0,0.0,0.0,0.0,0.0,0.0,0.0,0.0,0.0,0.0,0.0,0.0,0.0,0.0,0.0,0.0,0.0,0.0,0.0,0.0,0.0,0.0,0.0,0.0,0.0,0.0,0.0,0.0,0.0,0.0,0.0,0.0,0.0,0.0,0.0,0.0,0.0,0.0,0.0,0.0,0.0,0.0,0.0,0.0,0.0,0.0,0.0,0.0,0.0,-1.9643,-1.9794,-2.0223,-2.0543,-2.0814,0.0,0.0,0.0,0.0,0.0,0.0,0.0,0.0,0.0,0.0,0.0,0.0,0.0,0.0,0.0,0.0,0.0,0.0,0.0,0.0,0.0,0.0,0.0,0.0,0.0,0.0,0.0,0.0,0.0,0.0,0.0,0.0,0.0,0.0,0.0,0.0,0.0,0.0,0.0,0.0,0.0,0.0,0.0,0.0,0.0,0.0,0.0,0.0,0.0,0.0,0.0,0.0,0.0,0.0,0.0,0.0,0.0,0.0,0.0,0.0,0.0,0.0,0.0,0.0,0.0,0.0,0.0,0.0,0.0,0.0,0.0,0.0,0.0,0.0,0.0,0.0,0.0,0.0,0.0,0.0,0.0,0.0,0.0,0.0,0.0,0.0,0.0,0.0,0.0,0.0,0.0,0.0,0.0,0.0,0.0,0.0,0.0,0.0,0.0,0.0,0.0,0.0,0.0,0.0,0.0,0.0,0.0,0.0,0.0,0.0,0.0,0.0,-2.1073,-2.1365,-2.2013,0.0,0.0,0.0,0.0,0.0,0.0,0.0,0.0,0.0,0.0,0.0,0.0,0.0,0.0,0.0,0.0,0.0,0.0,0.0,0.0,0.0,0.0,0.0,0.0,0.0,0.0,0.0,0.0,0.0,0.0,0.0,0.0,0.0,0.0,0.0,0.0,0.0,0.0,0.0,0.0,0.0,0.0,0.0,0.0,0.0,0.0,0.0,0.0,0.0,0.0,0.0,0.0,0.0,0.0,0.0,0.0,0.0,0.0,0.0,0.0,0.0,0.0,0.0,0.0,0.0,0.0,0.0,0.0,0.0,0.0,0.0,0.0,0.0,0.0,0.0,0.0,0.0,0.0,0.0,0.0,0.0,0.0,0.0,0.0,0.0,0.0,0.0,0.0,0.0,0.0,0.0,0.0,0.0,0.0,0.0,0.0,0.0,0.0,0.0,0.0,0.0,0.0,0.0,0.0,0.0,0.0,0.0,0.0,0.0,0.0,-2.3016,-2.3436,-2.2747,0.0,-2.4314,0.0,0.0,0.0,0.0,0.0,0.0,0.0,0.0,0.0,0.0,0.0,0.0,0.0,0.0,0.0,0.0,0.0,0.0,0.0,0.0,0.0,0.0,0.0,0.0,0.0,0.0,0.0,0.0,0.0,0.0,0.0,0.0,0.0,0.0,0.0,0.0,0.0,0.0,0.0,0.0,0.0,0.0,0.0,0.0,0.0,0.0,0.0,0.0,0.0,0.0,0.0,0.0,0.0,0.0,0.0,0.0,0.0,0.0,0.0,0.0,0.0,0.0,0.0,0.0,0.0,0.0,0.0,0.0,0.0,0.0,0.0,0.0,0.0,0.0,0.0,0.0,0.0,0.0,0.0,0.0,0.0,0.0,0.0,0.0,0.0,0.0,0.0,0.0,0.0,0.0,0.0,0.0,0.0,0.0,0.0,0.0,0.0,0.0,0.0,0.0,0.0,0.0,0.0,0.0,0.0,0.0,0.0,0.0,0.0,0.0,-2.3915,-2.4108,-2.3892,-2.4408,0.0,0.0,0.0,0.0,0.0,0.0,0.0,0.0,0.0,0.0,0.0,0.0,0.0,0.0,0.0,0.0,0.0,0.0,0.0,0.0,0.0,0.0,0.0,0.0,0.0,0.0,0.0,0.0,0.0,0.0,0.0,0.0,0.0,0.0,0.0,0.0,0.0,0.0,0.0,0.0,0.0,0.0,0.0,0.0,0.0,0.0,0.0,0.0,0.0,0.0,0.0,0.0,0.0,0.0,0.0,0.0,0.0,0.0,0.0,0.0,0.0,0.0,0.0,0.0,0.0,0.0,0.0,0.0,0.0,0.0,0.0,0.0,0.0,0.0,0.0,0.0,0.0,0.0,0.0,0.0,0.0,0.0,0.0,0.0,0.0,0.0,0.0,0.0,0.0,0.0,0.0,0.0,0.0,0.0,0.0,0.0,0.0,0.0,0.0,0.0,0.0,0.0,0.0,0.0,0.0,0.0,0.0,0.0,0.0,0.0,-2.5356,-2.5147,-2.493,-2.5411,-2.5954,-2.6463,0.0,0.0,0.0,0.0,0.0,0.0,0.0,0.0,0.0,0.0,0.0,0.0,0.0,0.0,0.0,0.0,0.0,0.0,0.0,0.0,0.0,0.0,0.0,0.0,0.0,0.0,0.0,0.0,0.0,0.0,0.0,0.0,0.0,0.0,0.0,0.0,0.0,0.0,0.0,0.0,0.0,0.0,0.0,0.0,0.0,0.0,0.0,0.0,0.0,0.0,0.0,0.0,0.0,0.0,0.0,0.0,0.0,0.0,0.0,0.0,0.0,0.0,0.0,0.0,0.0,0.0,0.0,0.0,0.0,0.0,0.0,0.0,0.0,0.0,0.0,0.0,0.0,0.0,0.0,0.0,0.0,0.0,0.0,0.0,0.0,0.0,0.0,0.0,0.0,0.0,0.0,0.0,0.0,0.0,0.0,0.0,0.0,0.0,0.0,0.0,0.0,0.0,0.0,0.0,0.0,0.0,0.0,0.0,-2.7516,-2.7542,-2.7199,-2.6481,-2.7501,-2.7628,0.0,0.0,0.0,0.0,0.0,0.0,0.0,0.0,0.0,0.0,0.0,0.0,0.0,0.0,0.0,0.0,0.0,0.0,0.0,0.0,0.0,0.0,0.0,0.0,0.0,0.0,0.0,0.0,0.0,0.0,0.0,0.0,0.0,0.0,0.0,0.0,0.0,0.0,0.0,0.0,0.0,0.0,0.0,0.0,0.0,0.0,0.0,0.0,0.0,0.0,0.0,0.0,0.0,0.0,0.0,0.0,0.0,0.0,0.0,0.0,0.0,0.0,0.0,0.0,0.0,0.0,0.0,0.0,0.0,0.0,0.0,0.0,0.0,0.0,0.0,0.0,0.0,0.0,0.0,0.0,0.0,0.0,0.0,0.0,0.0,0.0,0.0,0.0,0.0,0.0,0.0,0.0,0.0,0.0,0.0,0.0,0.0,0.0,0.0,0.0,0.0,0.0,0.0,0.0,0.0,0.0,0.0,0.0,0.0,-2.7718,-2.7761,-2.7752,-2.7672,-2.7906,-2.7906,0.0,0.0,0.0,0.0,0.0,0.0,0.0,0.0,0.0,0.0,0.0,0.0,0.0,0.0,0.0,0.0,0.0,0.0,0.0,0.0,0.0,0.0,0.0,0.0,0.0,0.0,0.0,0.0,0.0,0.0,0.0,0.0,0.0,0.0,0.0,0.0,0.0,0.0,0.0,0.0,0.0,0.0,0.0,0.0,0.0,0.0,0.0,0.0,0.0,0.0,0.0,0.0,0.0,0.0,0.0,0.0,0.0,0.0,0.0,0.0,0.0,0.0,0.0,0.0,0.0,0.0,0.0,0.0,0.0,0.0,0.0,0.0,0.0,0.0,0.0,0.0,0.0,0.0,0.0,0.0,0.0,0.0,0.0,0.0,0.0,0.0,0.0,0.0,0.0,0.0,0.0,0.0,0.0,0.0,0.0,0.0,0.0,0.0,0.0,0.0,0.0,0.0,0.0,0.0,0.0,0.0,0.0,0.0,0.0,-2.7924,0.0,-2.813,0.0,-2.8121,-2.813,0.0,0.0,0.0,0.0,0.0,0.0,0.0,0.0,0.0,0.0,0.0,0.0,0.0,0.0,0.0,0.0,0.0,0.0,0.0,0.0,0.0,0.0,0.0,0.0,0.0,0.0,0.0,0.0,0.0,0.0,0.0,0.0,0.0,0.0,0.0,0.0,0.0,0.0,0.0,0.0,0.0,0.0,0.0,0.0,0.0,0.0,0.0,0.0,0.0,0.0,0.0,0.0,0.0,0.0,0.0,0.0,0.0,0.0,0.0,0.0,0.0,0.0,0.0,0.0,0.0,0.0,0.0,0.0,0.0,0.0,0.0,0.0,0.0,0.0,0.0,0.0,0.0,0.0,0.0,0.0,0.0,0.0,0.0,0.0,0.0,0.0,0.0,0.0,0.0,0.0,0.0,0.0,0.0,0.0,0.0,0.0,0.0,0.0,0.0,0.0,0.0,0.0,0.0,0.0,0.0,0.0,0.0,0.0,-2.7871,-2.8262,-2.8291,-2.8291,-2.8301,-2.8291,-2.8291,0.0,0.0,0.0,0.0,0.0,0.0,0.0,0.0,0.0,0.0,0.0,0.0,0.0,0.0,0.0,0.0,0.0,0.0,0.0,0.0,0.0,0.0,0.0,0.0,0.0,0.0,0.0,0.0,0.0,0.0,0.0,0.0,0.0,0.0,0.0,0.0,0.0,0.0,0.0,0.0,0.0,0.0,0.0,0.0,0.0,0.0,0.0,0.0,0.0,0.0,0.0,0.0,0.0,0.0,0.0,0.0,0.0,0.0,0.0,0.0,0.0,0.0,0.0,0.0,0.0,0.0,0.0,0.0,0.0,0.0,0.0,0.0,0.0,0.0,0.0,0.0,0.0,0.0,0.0,0.0,0.0,0.0,0.0,0.0,0.0,0.0,0.0,0.0,0.0,0.0,0.0,0.0,0.0,0.0,0.0,0.0,0.0,0.0,0.0,0.0,0.0,0.0,0.0,0.0,0.0,0.0,0.0,0.0,0.0,-2.8291,-2.813,-2.813,-2.8291,-2.8121,-2.813,0.0,0.0,0.0,0.0,0.0,0.0,0.0,0.0,0.0,0.0,0.0,0.0,0.0,0.0,0.0,0.0,0.0,0.0,0.0,0.0,0.0,0.0,0.0,0.0,0.0,0.0,0.0,0.0,0.0,0.0,0.0,0.0,0.0,0.0,0.0,0.0,0.0,0.0,0.0,0.0,0.0,0.0,0.0,0.0,0.0,0.0,0.0,0.0,0.0,0.0,0.0,0.0,0.0,0.0,0.0,0.0,0.0,0.0,0.0,0.0,0.0,0.0,0.0,0.0,0.0,0.0,0.0,0.0,0.0,0.0,0.0,0.0,0.0,0.0,0.0,0.0,0.0,0.0,0.0,0.0,0.0,0.0,0.0,0.0,0.0,0.0,0.0,0.0,0.0,0.0,0.0,0.0,0.0,0.0,0.0,0.0,0.0,0.0,0.0,0.0,0.0,0.0,0.0,0.0,0.0,0.0,0.0,0.0,0.0,-2.8301,-2.8121,-2.813,-2.8291,-2.813,-2.813,-2.8291,0.0,0.0,0.0,0.0,0.0,0.0,0.0,0.0,0.0,0.0,0.0,0.0,0.0,0.0,0.0,0.0,0.0,0.0,0.0,0.0,0.0,0.0,0.0,0.0,0.0,0.0,0.0,0.0,0.0,0.0,0.0,0.0,0.0,0.0,0.0,0.0,0.0,0.0,0.0,0.0,0.0,0.0,0.0,0.0,0.0,0.0,0.0,0.0,0.0,0.0,0.0,0.0,0.0,0.0,0.0,0.0,0.0,0.0,0.0,0.0,0.0,0.0,0.0,0.0,0.0,0.0,0.0,0.0,0.0,0.0,0.0,0.0,0.0,0.0,0.0,0.0,0.0,0.0,0.0,0.0,0.0,0.0,0.0,0.0,0.0,0.0,0.0,0.0,0.0,0.0,0.0,0.0,0.0,0.0,0.0,0.0,0.0,0.0,0.0,0.0,0.0,0.0,0.0,0.0,0.0,0.0,0.0,0.0,-2.8301,-2.8301,-2.8301,-2.8301,-2.8301,-2.8301,0.0,0.0,0.0,0.0,0.0,0.0,0.0,0.0,0.0,0.0,0.0,0.0,0.0,0.0,0.0,0.0,0.0,0.0,0.0,0.0,0.0,0.0,0.0,0.0,0.0,0.0,0.0,0.0,0.0,0.0,0.0,0.0,0.0,0.0,0.0,0.0,0.0,0.0,0.0,0.0,0.0,0.0,0.0,0.0,0.0,0.0,0.0,0.0,0.0,0.0,0.0,0.0,0.0,0.0,0.0,0.0,0.0,0.0,0.0,0.0,0.0,0.0,0.0,0.0,0.0,0.0,0.0,0.0,0.0,0.0,0.0,0.0,0.0,0.0,0.0,0.0,0.0,0.0,0.0,0.0,0.0,0.0,0.0,0.0,0.0,0.0,0.0,0.0,0.0,0.0,0.0,0.0,0.0,0.0,0.0,0.0,0.0,0.0,0.0,0.0,0.0,0.0,0.0,0.0,0.0,0.0,0.0,0.0,0.0,-2.8301,-2.8301,-2.8301,-2.8301,-2.8301,-2.8301,0.0,0.0,0.0,0.0,0.0,0.0,0.0,0.0,0.0,0.0,0.0,0.0,0.0,0.0,0.0,0.0,0.0,0.0,0.0,0.0,0.0,0.0,0.0,0.0,0.0,0.0,0.0,0.0,0.0,0.0,0.0,0.0,0.0,0.0,0.0,0.0,0.0,0.0,0.0,0.0,0.0,0.0,0.0,0.0,0.0,0.0,0.0,0.0,0.0,0.0,0.0,0.0,0.0,0.0,0.0,0.0,0.0,0.0,0.0,0.0,0.0,0.0,0.0,0.0,0.0,0.0,0.0,0.0,0.0,0.0,0.0,0.0,0.0,0.0,0.0,0.0,0.0,0.0,0.0,0.0,0.0,0.0,0.0,0.0,0.0,0.0,0.0,0.0,0.0,0.0,0.0,0.0,0.0,0.0,0.0,0.0,0.0,0.0,0.0,0.0,0.0,0.0,0.0,0.0,0.0,0.0,0.0,0.0,-2.8301,-2.8301,-2.8301,-2.8301,-2.8301,-2.8301,-2.8301,0.0,0.0,0.0,0.0,0.0,0.0,0.0,0.0,0.0,0.0,0.0,0.0,0.0,0.0,0.0,0.0,0.0,0.0,0.0,0.0,0.0,0.0,0.0,0.0,0.0,0.0,0.0,0.0,0.0,0.0,0.0,0.0,0.0,0.0,0.0,0.0,0.0,0.0,0.0,0.0,0.0,0.0,0.0,0.0,0.0,0.0,0.0,0.0,0.0,0.0,0.0,0.0,0.0,0.0,0.0,0.0,0.0,0.0,0.0,0.0,0.0,0.0,0.0,0.0,0.0,0.0,0.0,0.0,0.0,0.0,0.0,0.0,0.0,0.0,0.0,0.0,0.0,0.0,0.0,0.0,0.0,0.0,0.0,0.0,0.0,0.0,0.0,0.0,0.0,0.0,0.0,0.0,0.0,0.0,0.0,0.0,0.0,0.0,0.0,0.0,0.0,0.0,0.0,0.0,0.0,0.0,0.0,0.0,-2.8301,-2.8301,-2.8301,-2.8301,-2.8301,-2.8301,-2.8301,0.0,0.0,0.0,0.0,0.0,0.0,0.0,0.0,0.0,0.0,0.0,0.0,0.0,0.0,0.0,0.0,0.0,0.0,0.0,0.0,0.0,0.0,0.0,0.0,0.0,0.0,0.0,0.0,0.0,0.0,0.0,0.0,0.0,0.0,0.0,0.0,0.0,0.0,0.0,0.0,0.0,0.0,0.0,0.0,0.0,0.0,0.0,0.0,0.0,0.0,0.0,0.0,0.0,0.0,0.0,0.0,0.0,0.0,0.0,0.0,0.0,0.0,0.0,0.0,0.0,0.0,0.0,0.0,0.0,0.0,0.0,0.0,0.0,0.0,0.0,0.0,0.0,0.0,0.0,0.0,0.0,0.0,0.0,0.0,0.0,0.0,0.0,0.0,0.0,0.0,0.0,0.0,0.0,0.0,0.0,0.0,0.0,0.0,0.0,0.0,0.0,0.0,0.0,0.0,0.0,0.0,0.0,0.0,-2.8301,-2.8301,-2.8301,-2.8301,-2.8301,-2.8301,-2.8301,0.0,0.0,0.0,0.0,0.0,0.0,0.0,0.0,0.0,0.0,0.0,0.0,0.0,0.0,0.0,0.0,0.0,0.0,0.0,0.0,0.0,0.0,0.0,0.0,0.0,0.0,0.0,0.0,0.0,0.0,0.0,0.0,0.0,0.0,0.0,0.0,0.0,0.0,0.0,0.0,0.0,0.0,0.0,0.0,0.0,0.0,0.0,0.0,-3.0947,0.0,0.0,0.0,0.0,0.0,0.0,0.0,0.0,0.0,0.0,0.0,0.0,0.0,0.0,0.0,0.0,0.0,0.0,0.0,0.0,0.0,0.0,0.0,0.0,0.0,0.0,0.0,0.0,0.0,0.0,0.0,0.0,0.0,0.0,0.0,0.0,0.0,0.0,0.0,0.0,0.0,0.0,0.0,0.0,0.0,0.0,0.0,0.0,0.0,0.0,0.0,0.0,0.0,0.0,0.0,0.0,0.0,0.0,0.0,-2.8301,-2.8301,-2.8301,-2.8301,-2.8301,-2.8301,-2.8389,0.0,0.0,0.0,0.0,0.0,0.0,0.0,0.0,0.0,0.0,0.0,0.0,0.0,0.0,0.0,0.0,0.0,0.0,0.0,0.0,0.0,0.0,0.0,0.0,0.0,0.0,0.0,0.0,0.0,0.0,0.0,0.0,0.0,0.0,0.0,0.0,0.0,0.0,0.0,0.0,0.0,0.0,0.0,0.0,0.0,0.0,0.0,0.0,0.0,0.0,0.0,0.0,0.0,0.0,0.0,0.0,0.0,0.0,0.0,0.0,0.0,0.0,0.0,0.0,0.0,0.0,0.0,0.0,0.0,0.0,0.0,0.0,0.0,0.0,0.0,0.0,0.0,0.0,0.0,0.0,0.0,0.0,0.0,0.0,0.0,0.0,0.0,0.0,0.0,0.0,0.0,0.0,0.0,0.0,0.0,0.0,0.0,0.0,0.0,0.0,0.0,0.0,0.0,0.0,0.0,0.0,0.0,-2.8301,-2.8301,-2.8301,-2.8301,-2.8301,-2.8301,-2.8301,-2.8525,-2.8994,0.0,0.0,0.0,0.0,0.0,0.0,0.0,0.0,0.0,0.0,0.0,0.0,0.0,0.0,0.0,0.0,0.0,0.0,0.0,0.0,0.0,0.0,0.0,0.0,0.0,0.0,0.0,0.0,0.0,0.0,0.0,0.0,0.0,0.0,0.0,0.0,0.0,0.0,-3.0339,-3.1091,0.0,0.0,0.0,0.0,0.0,0.0,0.0,0.0,-3.4191,0.0,0.0,0.0,0.0,0.0,0.0,0.0,0.0,0.0,0.0,0.0,0.0,0.0,0.0,0.0,0.0,0.0,0.0,0.0,0.0,0.0,0.0,0.0,0.0,0.0,0.0,0.0,0.0,0.0,0.0,0.0,0.0,0.0,0.0,0.0,0.0,0.0,0.0,0.0,0.0,0.0,0.0,0.0,0.0,0.0,0.0,0.0,0.0,0.0,0.0,0.0,0.0,0.0,0.0,0.0,0.0,-2.8301,-2.8301,-2.8301,-2.8301,-2.8301,-2.8301,-2.8301,-2.8301,-2.8662,-2.9394,0.0,0.0,0.0,0.0,0.0,0.0,0.0,0.0,0.0,0.0,0.0,0.0,0.0,0.0,0.0,0.0,0.0,0.0,0.0,0.0,0.0,0.0,0.0,0.0,0.0,0.0,0.0,0.0,0.0,0.0,0.0,0.0,0.0,0.0,0.0,0.0,0.0,0.0,0.0,-3.2413,-3.3298,0.0,0.0,0.0,0.0,0.0,0.0,0.0,0.0,-3.5024,0.0,0.0,0.0,0.0,0.0,0.0,0.0,0.0,0.0,0.0,0.0,0.0,0.0,0.0,0.0,0.0,0.0,0.0,0.0,0.0,0.0,0.0,0.0,0.0,0.0,0.0,0.0,0.0,0.0,0.0,0.0,0.0,0.0,0.0,0.0,0.0,0.0,0.0,0.0,0.0,0.0,0.0,0.0,0.0,0.0,0.0,0.0,0.0,0.0,0.0,0.0,0.0,0.0,0.0,0.0,-2.8301,-2.8301,-2.8301,-2.8301,-2.8301,-2.8301,-2.8301,-2.8301,-2.8691,0.0,0.0,0.0,0.0,0.0,0.0,0.0,0.0,0.0,0.0,0.0,0.0,0.0,0.0,0.0,0.0,0.0,0.0,0.0,0.0,0.0,0.0,0.0,0.0,0.0,0.0,0.0,0.0,0.0,0.0,0.0,0.0,0.0,0.0,0.0,0.0,0.0,0.0,0.0,0.0,-3.3071,-3.4133,-3.4687,0.0,0.0,0.0,0.0,0.0,0.0,-3.6888,-3.7233,0.0,0.0,0.0,0.0,0.0,0.0,0.0,0.0,0.0,0.0,0.0,0.0,0.0,0.0,0.0,0.0,0.0,0.0,0.0,0.0,0.0,0.0,0.0,0.0,0.0,0.0,0.0,0.0,0.0,0.0,0.0,0.0,0.0,0.0,0.0,0.0,0.0,0.0,0.0,0.0,0.0,0.0,0.0,0.0,0.0,0.0,0.0,0.0,0.0,0.0,0.0,0.0,0.0,0.0,0.0,-2.8418,-2.8418,-2.8418,-2.8418,-2.8506,-2.8545,-2.8555,-2.8555,-2.8906,0.0,0.0,0.0,0.0,0.0,0.0,0.0,0.0,0.0,0.0,0.0,0.0,0.0,0.0,0.0,0.0,0.0,0.0,0.0,0.0,0.0,0.0,0.0,0.0,0.0,0.0,0.0,0.0,0.0,0.0,0.0,0.0,0.0,0.0,0.0,0.0,0.0,0.0,0.0,0.0,0.0,-3.4906,-3.4958,-3.5758,0.0,0.0,0.0,0.0,-3.8214,-3.8659,0.0,0.0,0.0,0.0,0.0,0.0,0.0,0.0,0.0,0.0,0.0,0.0,0.0,0.0,0.0,0.0,0.0,0.0,0.0,0.0,0.0,0.0,0.0,0.0,0.0,0.0,0.0,0.0,0.0,0.0,0.0,0.0,0.0,0.0,0.0,0.0,0.0,0.0,0.0,0.0,0.0,0.0,0.0,0.0,0.0,0.0,0.0,0.0,0.0,0.0,0.0,0.0,0.0,0.0,0.0,0.0,-2.8828,-2.8848,-2.8848,-2.8857,-2.9219,-2.9479,-2.947,-2.9424,-2.9648,0.0,0.0,0.0,0.0,0.0,0.0,0.0,0.0,0.0,0.0,0.0,0.0,0.0,0.0,0.0,0.0,0.0,0.0,0.0,0.0,0.0,0.0,0.0,0.0,0.0,0.0,0.0,0.0,0.0,0.0,0.0,0.0,0.0,0.0,0.0,0.0,0.0,0.0,0.0,0.0,0.0,-3.6021,-3.7357,-3.7227,-3.7525,0.0,0.0,-3.8214,-3.931,-3.953,0.0,0.0,0.0,0.0,0.0,0.0,0.0,0.0,0.0,0.0,0.0,0.0,0.0,0.0,0.0,0.0,0.0,0.0,0.0,0.0,0.0,0.0,0.0,0.0,0.0,0.0,0.0,0.0,0.0,0.0,0.0,0.0,0.0,0.0,0.0,0.0,0.0,0.0,0.0,0.0,0.0,0.0,0.0,0.0,0.0,0.0,0.0,0.0,0.0,0.0,0.0,0.0,0.0,0.0,0.0,-2.8623,-2.9248,-2.9053,-2.9033,-2.9277,-2.9528,-2.958,-2.958,-2.958,-2.9888,0.0,0.0,0.0,0.0,0.0,0.0,0.0,0.0,0.0,0.0,0.0,0.0,0.0,0.0,0.0,0.0,0.0,0.0,0.0,0.0,0.0,0.0,0.0,0.0,0.0,0.0,0.0,0.0,0.0,0.0,0.0,0.0,0.0,0.0,0.0,0.0,0.0,0.0,0.0,0.0,0.0,0.0,-3.7451,-3.7879,0.0,0.0,0.0,-3.899,-3.9219,0.0,0.0,0.0,0.0,0.0,0.0,0.0,0.0,0.0,0.0,0.0,0.0,0.0,0.0,0.0,0.0,0.0,0.0,0.0,0.0,0.0,0.0,0.0,0.0,0.0,0.0,0.0,0.0,0.0,0.0,0.0,0.0,0.0,0.0,0.0,0.0,0.0,0.0,0.0,0.0,0.0,0.0,0.0,0.0,0.0,0.0,0.0,0.0,0.0,0.0,0.0,0.0,0.0,0.0,0.0,0.0,0.0,-2.9753,-2.9404,-2.9404,-2.9717,-2.99,-2.9959,-3.0005,-2.9898,0.0,0.0,0.0,0.0,0.0,0.0,0.0,0.0,0.0,0.0,0.0,0.0,0.0,0.0,0.0,0.0,0.0,0.0,0.0,0.0,0.0,0.0,0.0,0.0,0.0,0.0,0.0,-3.6452,0.0,0.0,0.0,0.0,0.0,0.0,0.0,0.0,0.0,0.0,0.0,0.0,0.0,0.0,-3.7023,-3.7161,-3.7902,-3.8554,0.0,0.0,-3.9132,-3.8718,-3.8655,-3.8467,0.0,0.0,0.0,0.0,0.0,0.0,0.0,0.0,0.0,0.0,0.0,0.0,0.0,0.0,0.0,0.0,0.0,0.0,0.0,0.0,0.0,0.0,0.0,0.0,0.0,0.0,0.0,0.0,0.0,0.0,0.0,0.0,0.0,0.0,0.0,0.0,0.0,0.0,0.0,0.0,0.0,0.0,0.0,0.0,0.0,0.0,0.0,0.0,0.0,0.0,0.0,0.0,0.0,0.0,0.0,-3.0137,-3.0127,-3.0107,-3.0166,-3.0576,-3.0917,-3.1168,-3.0782,-3.0876,0.0,0.0,0.0,0.0,0.0,0.0,0.0,0.0,0.0,0.0,0.0,0.0,0.0,0.0,0.0,0.0,0.0,0.0,0.0,0.0,0.0,0.0,0.0,0.0,0.0,0.0,0.0,0.0,0.0,0.0,0.0,0.0,0.0,0.0,0.0,0.0,0.0,0.0,0.0,0.0,0.0,-3.6644,-3.7111,-3.7249,-3.7475,0.0,0.0,-3.8103,-3.8078,-3.8065,-3.7864,-3.7324,0.0,0.0,0.0,0.0,0.0,0.0,0.0,0.0,0.0,0.0,0.0,0.0,0.0,0.0,0.0,0.0,0.0,0.0,0.0,0.0,0.0,0.0,0.0,0.0,0.0,0.0,0.0,0.0,0.0,0.0,0.0,0.0,0.0,0.0,0.0,0.0,0.0,0.0,0.0,0.0,0.0,0.0,0.0,0.0,0.0,0.0,0.0,0.0,0.0,0.0,0.0,0.0,0.0,-2.9922,-3.0605,-3.0342,-3.0447,-3.0894,-3.1081,-3.1276,-3.1614,-3.1127,-3.1147,0.0,0.0,0.0,0.0,0.0,0.0,0.0,0.0,0.0,0.0,0.0,0.0,0.0,0.0,0.0,0.0,0.0,0.0,0.0,0.0,0.0,0.0,0.0,0.0,0.0,0.0,0.0,0.0,-3.6922,-3.6828,-3.6722,0.0,0.0,0.0,0.0,0.0,0.0,0.0,0.0,0.0,0.0,-3.6493,-3.6646,-3.696,0.0,0.0,-3.7789,-3.7889,-3.755,-3.75,-3.7312,-3.682,-3.6719,0.0,0.0,0.0,0.0,0.0,0.0,0.0,0.0,0.0,0.0,0.0,0.0,0.0,0.0,0.0,0.0,0.0,0.0,0.0,0.0,0.0,0.0,0.0,0.0,0.0,0.0,0.0,0.0,0.0,0.0,0.0,0.0,0.0,0.0,0.0,0.0,0.0,0.0,0.0,0.0,0.0,0.0,0.0,0.0,0.0,0.0,0.0,0.0,0.0,0.0,0.0,0.0,-3.0321,-3.0986,-3.0672,-3.0825,-3.1431,-3.1441,-3.1554,-3.1758,-3.1267,-3.1203,0.0,0.0,0.0,0.0,0.0,0.0,0.0,0.0,0.0,0.0,0.0,0.0,0.0,0.0,0.0,0.0,0.0,0.0,0.0,0.0,0.0,0.0,0.0,0.0,0.0,0.0,0.0,0.0,-3.7261,-3.7062,-3.6628,0.0,0.0,0.0,0.0,0.0,0.0,0.0,0.0,0.0,0.0,-3.6417,-3.6417,-3.6744,-3.6935,-3.6935,-3.7262,-3.7374,-3.6998,-3.6983,-3.6845,-3.6468,0.0,0.0,0.0,0.0,0.0,0.0,0.0,0.0,0.0,0.0,0.0,0.0,0.0,0.0,0.0,0.0,0.0,0.0,0.0,0.0,0.0,0.0,0.0,0.0,0.0,0.0,0.0,0.0,0.0,0.0,0.0,0.0,0.0,0.0,0.0,0.0,0.0,0.0,0.0,0.0,0.0,0.0,0.0,0.0,0.0,0.0,0.0,0.0,0.0,0.0,0.0,0.0,0.0,-3.1024,-3.1267,-3.1257,-3.1421,-3.1777,-3.1777,-3.1738,-3.1585,-3.1146,-3.1076,-3.1381,0.0,0.0,0.0,0.0,0.0,0.0,0.0,0.0,0.0,0.0,0.0,0.0,0.0,0.0,0.0,0.0,0.0,0.0,0.0,0.0,0.0,0.0,0.0,0.0,0.0,0.0,-3.7795,-3.7657,-3.7214,0.0,0.0,0.0,0.0,0.0,0.0,0.0,0.0,0.0,0.0,-3.6417,-3.6417,-3.6405,-3.6417,-3.6455,-3.6443,-3.6455,-3.6455,-3.6443,-3.6443,-3.643,0.0,0.0,0.0,0.0,0.0,0.0,0.0,0.0,0.0,0.0,0.0,0.0,0.0,0.0,0.0,0.0,0.0,0.0,0.0,0.0,0.0,0.0,0.0,0.0,0.0,0.0,0.0,0.0,-2.3106,0.0,0.0,0.0,0.0,0.0,0.0,0.0,0.0,0.0,0.0,0.0,-3.0889,-3.0732,0.0,0.0,0.0,0.0,0.0,0.0,0.0,0.0,0.0,0.0,0.0,0.0,-3.1556,-3.1624,-3.1614,-3.1647,-3.1629,-3.1686,-3.1595,-3.1488,-3.098,-3.0797,-3.0926,0.0,0.0,0.0,0.0,0.0,0.0,0.0,0.0,0.0,0.0,0.0,0.0,0.0,0.0,0.0,0.0,0.0,0.0,0.0,0.0,0.0,0.0,0.0,0.0,0.0,-3.7703,0.0,0.0,0.0,0.0,0.0,0.0,0.0,0.0,0.0,0.0,0.0,-3.6781,-3.6628,-3.6581,-3.6568,-3.6568,-3.6487,-3.6452,0.0,0.0,0.0,0.0,0.0,0.0,0.0,0.0,0.0,0.0,0.0,0.0,0.0,0.0,-3.8204,-3.8185,-3.8459,-3.8666,-3.8679,0.0,0.0,0.0,0.0,0.0,0.0,0.0,0.0,0.0,0.0,0.0,0.0,0.0,0.0,0.0,0.0,-2.3604,0.0,0.0,0.0,0.0,0.0,0.0,0.0,0.0,-3.0898,-3.0898,-3.0898,-3.0898,-3.0898,0.0,-3.0586,-3.035,0.0,0.0,0.0,0.0,0.0,0.0,0.0,0.0,-3.1775,-3.1738,-3.1728,-3.1686,-3.1548,-3.1517,-3.1412,-3.1153,-3.0688,-3.045,-3.045,-3.0149,-3.0139,0.0,0.0,0.0,0.0,0.0,0.0,0.0,0.0,0.0,0.0,0.0,0.0,0.0,0.0,0.0,0.0,0.0,0.0,0.0,0.0,0.0,0.0,0.0,-3.7854,0.0,0.0,0.0,0.0,0.0,0.0,0.0,0.0,0.0,-3.6862,-3.7015,-3.7015,-3.6862,-3.6862,-3.6862,-3.6815,0.0,0.0,0.0,0.0,0.0,0.0,0.0,-3.6687,-3.6815,-3.6862,-3.6922,-3.7049,-3.7413,-3.7611,-3.7505,0.0,0.0,-3.789,-3.8122,-3.8427,-3.8795,-3.8517,-3.8374,-3.8752,-3.8576,-3.8311,0.0,0.0,0.0,0.0,0.0,0.0,0.0,0.0,-2.3106,-2.3106,0.0,-2.4456,0.0,0.0,0.0,0.0,0.0,0.0,0.0,0.0,-3.0898,-3.0898,-3.0898,-3.0898,-3.0898,-3.0898,-3.0889,-3.1034,-3.1207,-3.0189,0.0,0.0,0.0,0.0,0.0,0.0,-3.1748,-3.1661,-3.1671,-3.1558,-3.1433,-3.1412,-3.1174,-3.0708,-3.0243,-3.0005,-2.9994,-2.9994,-2.9994,-3.0005,-2.9994,0.0,0.0,0.0,0.0,0.0,0.0,0.0,0.0,0.0,0.0,0.0,0.0,0.0,0.0,0.0,0.0,0.0,0.0,0.0,0.0,-3.79,0.0,0.0,0.0,0.0,0.0,0.0,0.0,0.0,0.0,0.0,-3.7168,-3.7168,-3.7121,-3.7108,0.0,0.0,0.0,0.0,-3.7108,-3.7108,-3.7108,-3.7108,-3.7108,-3.7108,-3.7108,-3.7108,0.0,0.0,-3.7155,-3.7551,-3.7808,-3.7551,-3.7703,-3.79,-3.7959,-3.7755,-3.7834,-3.8661,-3.8796,-3.8877,-3.9011,-3.9587,-4.0087,-2.1102,0.0,0.0,0.0,0.0,-2.2104,-2.2487,-2.3106,-2.3106,-2.3106,-2.3168,-2.4525,0.0,0.0,0.0,0.0,0.0,0.0,-3.0898,-3.0898,-3.0898,-3.0898,-3.0898,-3.0898,-3.0898,-3.0898,-3.1112,-3.1218,-3.1315,-3.1192,-3.1314,-3.1471,0.0,0.0,0.0,0.0,-3.2272,-3.1917,-3.2241,-3.22,-3.1802,-3.1857,-3.1474,-3.0698,-3.0232,-2.9994,-2.9994,-2.9994,-2.9994,-2.9994,-2.9994,0.0,0.0,0.0,0.0,0.0,0.0,0.0,0.0,0.0,0.0,0.0,0.0,0.0,0.0,0.0,0.0,0.0,0.0,0.0,-3.79,-3.79,-3.7854,0.0,0.0,0.0,0.0,0.0,0.0,0.0,0.0,0.0,-3.7703,-3.7703,-3.7611,0.0,0.0,-3.7366,-3.74,-3.7214,-3.7168,-3.7366,0.0,0.0,0.0,-3.7108,-3.7155,-3.7353,-3.7551,-3.7657,-3.7657,-3.7808,-3.79,-3.7808,-3.7854,-3.807,-3.8639,-3.8258,-3.7933,-3.8116,-3.8194,-3.8395,-3.9015,-3.9431,-3.9768,-2.1102,-2.1109,-2.1235,-2.1607,-2.2111,-2.223,-2.2606,-2.3106,-2.3106,-2.3106,-2.323,-2.5071,-2.6294,-2.7073,-2.8879,0.0,0.0,0.0,-3.0898,-3.0898,-3.0898,-3.0898,-3.0898,-3.0995,-3.1054,-3.1054,-3.1325,-3.1556,-3.1672,-3.1721,-3.1903,-3.2123,0.0,0.0,-3.203,-3.2468,-3.2442,-3.2019,-3.2266,-3.224,-3.1785,-3.1774,-3.1516,-3.0977,-3.0688,-3.045,-3.0284,-3.0274,-3.0191,-3.0005,-2.9994,-2.9994,0.0,0.0,0.0,0.0,0.0,0.0,0.0,0.0,0.0,0.0,0.0,-3.7749,-3.79,0.0,0.0,0.0,-3.79,-3.79,-3.79,-3.79,0.0,0.0,0.0,0.0,0.0,0.0,0.0,-3.7403,-3.7678,-3.79,-3.79,-3.79,-3.7854,-3.7703,-3.7657,-3.7657,-3.7657,0.0,-3.7459,-3.7611,-3.7518,-3.7413,-3.7413,-3.74,-3.7459,-3.7644,-3.7749,-3.79,-3.79,-3.79,-3.79,-3.79,-3.79,-3.807,-3.8594,-3.8226,-3.833,-3.9322,-3.9516,-3.9722,-4.0216,-4.0603,-4.093,-2.1102,-2.1109,-2.1481,-2.1803,-2.2111,-2.2425,-2.2738,-2.3106,-2.3106,-2.3106,-2.3285,-2.5859,-2.7134,-2.7435,-2.9804,0.0,0.0,-3.0898,-3.0898,-3.0898,-3.0898,-3.0898,-3.0947,-3.116,-3.1325,-3.1325,-3.1672,-3.2018,-3.2238,-3.1896,-3.201,-3.2659,-3.243,-3.241,-3.2618,-3.2659,-3.2452,-3.1988,-3.2029,-3.1899,-3.1495,-3.1454,-3.1433,-3.1433,-3.1402,-3.1228,-3.077,-3.0698,-3.0491,-3.0077,-3.0067,-3.0047,-3.0088,0.0,0.0,0.0,0.0,0.0,0.0,0.0,0.0,0.0,0.0,0.0,0.0,0.0,0.0,0.0,-3.79,0.0,-3.79,-3.79,0.0,0.0,0.0,-3.79,-3.79,-3.79,-3.79,-3.79,0.0,0.0,0.0,0.0,-3.79,-3.79,-3.79,-3.79,-3.79,-3.79,-3.79,-3.79,-3.79,-3.79,-3.7854,-3.7854,-3.7854,-3.7854,-3.79,-3.79,-3.7946,-3.8024,-3.8024,-3.8057,-3.8057,-3.8239,-3.8239,-3.8453,-3.9011,-4.1561,-4.1784,-4.1686,-4.1811,-4.24,-4.2699,-2.1102,-2.1109,-2.1481,-2.1796,-2.2104,-2.2167,-2.2543,-2.3106,-2.3106,-2.3106,-2.3293,-2.5835,-2.8086,-2.9981,-3.0645,-3.0898,-3.0898,-3.0898,-3.0898,-3.0898,-3.0898,-3.0898,-3.0898,-3.117,-3.1325,-3.1325,-3.1903,-3.219,-3.2305,-3.2385,-3.2499,-3.2669,-3.2612,-3.2447,-3.2173,-3.2494,-3.2452,-3.1988,-3.2328,-3.2463,-3.2406,-3.2064,-3.1878,-3.1878,-3.1557,-3.1329,-3.1215,-3.0874,-3.0636,-3.0522,-3.059,-3.0588,-3.0651,-3.1362,0.0,0.0,0.0,0.0,0.0,0.0,0.0,0.0,0.0,-3.79,-3.79,0.0,-3.79,0.0,-3.79,-3.79,-3.79,-3.79,0.0,0.0,-3.79,-3.79,-3.79,-3.79,-3.79,-3.79,-3.79,-3.79,-3.79,-3.79,-3.79,-3.79,-3.79,-3.79,-3.79,-3.79,-3.79,-3.79,-3.79,-3.79,-3.79,-3.79,-3.79,-3.79,-3.79,-3.79,-3.79,-3.8472,-3.8881,-3.8912,-3.9489,-4.0144,-4.0788,-4.1015,-4.1436,-4.2522,-4.1365,-4.0332,-4.1686,-4.2196,-4.2456,-2.1102,-2.1109,-2.1488,-2.1796,-2.2104,-2.223,-2.2606,-2.3106,-2.3106,-2.3417,-2.4154,-2.6745,-2.8989,-3.0889,-3.0898,-3.0898,-3.0898,-3.0898,-3.0898,-3.0898,-3.0898,-3.0898,-3.0947,-3.1334,-3.1498,-3.1556,-3.2201,-3.2487,-3.2487,-3.2612,-3.2669,-3.2669,-3.2669,-3.2545,-3.2318,-3.2556,-3.2545,-3.2354,-3.2545,-3.2669,-3.2659,-3.2432,-3.2287,-3.2287,-3.2106,-3.1888,-3.1671,-3.1422,-3.1195,-3.1052,-3.1053,-3.1104,-3.1145,-3.1984,-3.2812,0.0,0.0,0.0,0.0,0.0,0.0,0.0,0.0,0.0,0.0,0.0,-3.79,0.0,-3.79,0.0,-3.79,-3.79,-3.79,-3.79,-3.79,-3.79,-3.79,-3.79,-3.79,-3.79,-3.79,-3.79,-3.79,-3.79,-3.79,-3.79,-3.79,-3.79,-3.79,-3.79,-3.79,-3.79,-3.79,-3.79,-3.79,-3.79,-3.79,-3.7946,-3.8226,-3.8472,-3.8517,-3.9224,-3.9812,-3.9855,-4.0246,-4.0731,-4.1254,-4.138,-4.1686,-4.2237,-4.1547,-4.1113,-4.2278,-4.2592,-4.2754,-2.1162,-2.1169,-2.1502,-2.179,-2.2111,-2.248,-2.2793,-2.3106,-2.3106,-2.3961,-2.5501,-2.7718,-2.9481,-3.0889,-3.0898,-3.0898,-3.0898,-3.0898,-3.0898,-3.0898,-3.0898,-3.0947,-3.0947,-3.1508,-3.1845,-3.1913,-3.243,-3.2669,-3.2669,-3.2669,-3.2669,-3.2669,-3.2669,-3.2669,-3.2669,-3.2669,-3.2669,-3.2669,-3.2669,-3.2669,-3.2669,-3.2669,-3.2669,-3.2669,-3.2669,-3.254,-3.2091,-3.2131,-3.1968,-3.1639,-3.1752,-3.1773,-3.1762,-3.2938,-3.3717,0.0,-3.5547,0.0,0.0,0.0,0.0,0.0,0.0,0.0,0.0,-3.79,-3.79,-3.79,-3.79,-3.79,-3.79,-3.79,-3.79,-3.79,-3.79,-3.79,-3.79,-3.79,-3.79,-3.79,-3.79,-3.79,-3.79,-3.79,-3.79,-3.79,-3.79,-3.79,-3.79,-3.79,-3.79,-3.79,-3.79,-3.79,-3.79,-3.79,-3.79,-3.7979,-3.8427,-3.9046,-3.9121,-3.9899,-4.0589,-4.076,-4.0944,-4.1029,-4.093,-4.1029,-4.1281,-4.2114,-4.2196,-4.2333,-4.2996,-4.321,-4.3305,-2.147,-2.1514,-2.1583,-2.1796,-2.2111,-2.248,-2.2793,-2.3106,-2.3106,-2.444,-2.6624,-2.7125,-2.8701,-3.083,-3.0898,-3.0898,-3.0898,-3.0898,-3.0898,-3.0898,-3.0898,-3.1005,-3.1218,-3.1624,-3.196,-3.219,-3.2555,-3.2669,-3.2669,-3.2669,-3.2669,-3.2669,-3.2669,-3.2669,0.0,0.0,0.0,0.0,-3.2669,-3.2669,-3.2669,-3.2669,-3.2669,-3.2669,-3.2669,0.0,-3.2592,-3.2679,-3.2715,-3.2619,-3.3191,0.0,0.0,0.0,0.0,0.0,0.0,0.0,0.0,0.0,0.0,0.0,-3.7835,-3.79,-3.79,-3.79,-3.79,-3.79,-3.79,-3.79,-3.79,-3.79,-3.79,-3.79,-3.79,-3.79,-3.79,-3.79,-3.79,-3.79,-3.79,-3.79,-3.79,-3.79,-3.79,-3.79,-3.79,-3.79,-3.79,-3.79,-3.79,-3.79,-3.79,-3.79,-3.79,-3.7926,-3.7952,-3.7946,-3.7992,-3.8512,-3.9278,-4.0128,-4.0958,-4.1604,-4.2333,-4.2769,-4.2784,-4.2765,-4.2813,-4.301,-4.308,-4.313,-4.3265,-4.3305,-4.3305,-2.177,0.0,-2.2178,-2.2347,0.0,-2.2905,-2.3071,-2.3106,-2.3106,-2.4201,-2.6147,-2.7366,-2.8701,-2.9962,-3.0635,-3.0898,-3.0898,-3.0898,-3.0898,-3.0889,-3.1054,-3.117,-3.1325,-3.1787,-3.2143,-3.2315,-3.2545,-3.2669,-3.2669,-3.2669,-3.2669,-3.2669,-3.2669,-3.2669,-3.2669,-3.2669,-3.2669,-3.2669,-3.2669,-3.2669,-3.2669,-3.2669,-3.2669,-3.2669,0.0,0.0,0.0,0.0,0.0,0.0,0.0,0.0,0.0,0.0,0.0,-3.5379,-3.611,-3.6776,-3.7286,-3.767,-3.79,-3.79,-3.79,-3.79,-3.79,-3.79,-3.79,-3.79,-3.79,-3.79,-3.79,-3.79,-3.79,-3.79,-3.79,-3.79,-3.79,-3.79,-3.79,-3.79,-3.79,-3.79,-3.79,-3.79,-3.79,-3.79,-3.79,-3.7913,-3.79,-3.79,-3.79,-3.79,-3.79,-3.8004,-3.824,-3.8292,-3.8642,-3.9256,-3.9887,-4.0525,-4.1357,-4.2267,-4.3088,-4.3561,-4.4002,-4.4302,-4.4302,-4.4302,-4.4261,-4.4302,-4.4302,-4.4302,-4.4257,-4.3753,-4.3305,-2.2064,-2.2124,-2.2721,-2.2881,-2.2721,-2.3428,-2.3501,-2.3193,0.0,0.0,0.0,-2.7667,-2.8811,-2.9344,-3.0392,-3.0898,-3.0898,-3.0898,-3.0889,-3.1005,-3.1218,-3.1383,-3.1508,-3.2018,-3.2305,-3.2373,-3.2612,-3.2669,-3.2669,-3.2669,-3.2669,-3.2669,-3.2669,-3.2669,-3.2669,-3.2669,-3.2669,-3.2669,-3.2669,-3.2669,-3.2669,-3.2669,-3.2669,-3.2669,-3.2669,-3.3012,-3.3579,-3.3681,-3.4054,-3.4636,-3.4822,-3.4836,-3.48,-3.5451,-3.577,-3.5635,-3.6763,-3.74,-3.724,-3.7712,-3.7991,-3.7913,-3.79,-3.79,-3.79,-3.79,-3.79,-3.79,-3.79,-3.79,-3.79,-3.79,-3.79,-3.79,-3.79,-3.79,-3.79,-3.79,-3.79,-3.79,-3.79,-3.79,-3.79,-3.79,-3.7952,-3.8031,-3.8083,-3.8096,-3.8161,-3.8161,-3.8083,-3.8096,-3.824,-3.8423,-3.8736,-3.888,-3.9474,-4.0713,-4.1603,-4.2592,-4.3676,-4.4518,-4.5066,-4.5087,-4.5274,-4.5244,-4.5259,-4.52,-4.5289,-4.5289,-4.5289,-4.5289,-4.52,-4.4436,-4.3693,-2.2358,-2.2405,-2.2811,-2.3007,-2.2965,-2.3688,-2.3823,-2.3508,-2.323,-2.4456,-2.6771,-2.7073,-2.8522,-3.0645,-3.083,-3.0898,-3.0898,-3.0898,-3.0995,0.0,-3.1276,-3.1614,-3.2133,-3.2248,-3.242,-3.2612,-3.2669,-3.2669,-3.2669,-3.2669,-3.2669,-3.2669,-3.2669,-3.2669,-3.2669,-3.2669,-3.2669,-3.2669,-3.2669,-3.2669,-3.2669,-3.2669,-3.2669,-3.2669,-3.2669,-3.2955,-3.3568,-3.411,-3.4658,-3.5256,-3.5749,-3.5859,-3.5436,-3.5504,-3.5963,-3.6819,-3.7121,-3.779,-3.9064,-3.8846,-3.8397,-3.7952,-3.79,-3.79,-3.79,-3.79,-3.79,-3.79,-3.7926,-3.79,-3.79,-3.7939,-3.7978,-3.7939,-3.7913,-3.79,-3.7965,-3.7965,-3.7978,-3.7991,-3.79,-3.7939,-3.8004,-3.7978,-3.8161,-3.8488,-3.8606,-3.8762,-3.9076,-3.8919,-3.8632,-3.8671,-3.905,-3.9364,-3.9455,-3.9481,-3.9997,-4.0908,-4.1374,-4.2238,-4.3921,-4.4367,-4.4722,-4.5209,-4.5439,-4.5409,-4.5379,-4.5289,-4.5409,-4.5454,-4.5454,-4.5424,-4.5439,-4.517,-4.4811,-2.2659,-2.2713,-2.3326,-2.3434,-2.3332,-2.3825,-2.3998,-2.3909,-2.4512,-2.5226,-2.6059,-2.7426,-2.8692,-2.9844,-3.0587,-3.0898,-3.0898,-3.0898,-3.1054,-3.1334,-3.1508,-3.1845,-3.2305,-3.243,-3.2555,-3.2669,-3.2669,-3.2669,-3.2669,-3.2669,-3.2669,-3.2669,-3.2669,-3.2669,-3.2669,-3.2669,-3.2669,-3.2669,-3.2669,-3.2669,-3.2669,-3.2669,-3.2669,-3.2737,-3.3012,-3.3455,-3.4054,-3.4658,-3.5256,-3.5884,-3.6157,-3.6162,-3.5944,-3.5921,-3.6267,-3.6958,-3.737,-3.7991,-3.891,-3.9099,-3.9089,-3.8854,-3.8828,-3.8828,-3.8828,-3.8253,-3.8031,-3.8305,-3.8344,-3.8475,-3.8789,-3.8828,-3.8828,-3.8841,-3.8841,-3.8828,-3.8828,-3.8828,-3.8828,-3.8828,-3.8828,-3.8841,-3.8841,-3.8828,-3.8893,-3.9168,-3.9207,-3.9337,-3.9612,-3.9638,-3.9534,-3.9298,-3.9442,-3.9716,-3.9978,-4.0043,-4.0811,-4.2475,-4.2823,-4.3638,-4.5274,-4.5723,-4.5895,-4.6282,-4.6367,-4.6381,-4.6367,-4.6381,-4.6396,-4.6396,-4.6396,-4.6396,-4.6367,-4.6127,-4.5499,-2.2926,-2.2934,-2.3686,-2.3954,-2.3849,-2.421,-2.4262,-2.4384,-2.5974,-2.6388,-2.6138,-2.8135,-2.919,-2.9471,-3.046,-3.0898,-3.0898,-3.0898,-3.1122,-3.1441,-3.1672,-3.2018,-3.2363,-3.2612,-3.2669,-3.2669,-3.2669,-3.2669,-3.2669,-3.2669,-3.2669,-3.2669,-3.2669,-3.2669,-3.2669,-3.2669,-3.2669,-3.2669,-3.2669,-3.2669,-3.2669,-3.2669,-3.2794,-3.2955,-3.3353,-3.3952,-3.4647,-3.5146,-3.5653,-3.6211,-3.6266,-3.6266,-3.632,-3.6483,-3.6771,-3.7252,-3.7983,-3.8541,-3.887,-3.943,-3.9743,-3.9625,-3.9625,-3.9612,-3.9547,-3.8815,-3.8462,-3.8828,-3.8919,-3.9102,-3.9468,-3.9573,-3.9625,-3.9625,-3.9625,-3.956,-3.9599,-3.9625,-3.9625,-3.9625,-3.9625,-3.9586,-3.9625,-3.9625,-3.9638,-3.9743,-3.9899,-3.9991,-4.0043,-4.037,-4.0396,-4.0161,-4.0004,-4.0174,-4.0553,-4.0618,-4.1497,-4.3646,-4.4069,-4.4847,-4.6211,-4.6974,-4.7279,-4.7204,-4.7234,-4.7189,-4.7264,-4.7264,-4.7219,-4.7174,-4.7145,-4.7219,-4.716,-4.6681,-4.5978,-2.3126,-2.3016,-2.37,-2.436,-2.4858,-2.4957,-2.4848,-2.4929,-2.723,-2.8163,-2.7989,-2.9026,-3.0024,-3.0674,-3.084,-3.0908,-3.0898,-3.0898,-3.1228,-3.173,-3.1787,-3.2086,-3.2612,-3.2669,-3.2669,-3.2669,-3.2669,-3.2669,-3.2669,-3.2669,-3.2669,-3.2669,-3.2669,-3.2669,-3.2669,-3.2669,-3.2669,-3.2669,-3.2669,-3.2669,-3.2669,-3.2669,-3.2955,-3.3512,-3.3568,-3.411,-3.5201,-3.5367,-3.5653,-3.6211,-3.6266,-3.6266,-3.6375,-3.6935,-3.7767,-3.8549,-3.9404,-3.9994,-4.0164,-4.0295,-4.0148,-3.9677,-3.9677,-3.9677,-3.9677,-3.9534,-3.9468,-3.956,-3.9547,-3.9573,-3.9599,-3.9664,-3.973,-3.9769,-3.973,-3.9625,-3.969,-3.9625,-3.9625,-3.9625,-3.9743,-3.9625,-3.9743,-3.9756,-3.9873,-4.0318,-4.0697,-4.0958,-4.0971,-4.1036,-4.1128,-4.1102,-4.1115,-4.1102,-4.1167,-4.1219,-4.1713,-4.2827,-4.3735,-4.4762,-4.5838,-4.6785,-4.7309,-4.7309,-4.7309,-4.7309,-4.7309,-4.7309,-4.7309,-4.7279,-4.7279,-4.7264,-4.7219,-4.6726,-4.5963,-2.3547,-2.3542,-2.4018,-2.4531,-2.5066,-2.5059,-2.551,-2.6292,-2.8104,-2.9197,-2.9798,-3.0943,-3.1392,-3.1269,-3.1269,-3.1133,-3.0898,-3.1054,-3.1392,-3.1787,-3.2018,-3.2315,-3.2669,-3.2669,-3.2669,-3.2669,-3.2669,-3.2669,-3.2669,-3.2669,-3.2669,-3.2669,-3.2669,-3.2669,-3.2669,-3.2669,-3.2669,-3.2669,-3.2669,-3.2841,-3.3182,-3.3239,-3.3342,-3.3625,-3.4289,-3.488,-3.5378,-3.5763,-3.6048,-3.6266,-3.6266,-3.6266,-3.632,-3.6634,-3.7418,-3.8739,-4.0058,-4.0843,-4.0921,-4.0932,-4.0853,-4.0631,-4.0618,-4.0618,-4.0631,-4.0618,-4.0618,-4.0579,-4.0305,-4.0213,-4.0527,-4.0605,-4.0618,-4.0618,-4.0618,-4.0605,-4.0618,-4.0605,-4.0618,-4.0618,-4.0618,-4.0592,-4.0618,-4.0618,-4.071,-4.0932,-4.1193,-4.1298,-4.1311,-4.1311,-4.1311,-4.1311,-4.1311,-4.1311,-4.1311,-4.1311,-4.1769,-4.266,-4.364,-4.4624,-4.5644,-4.6638,-4.7294,-4.7309,-4.7309,-4.7309,-4.7309,-4.7309,-4.7309,-4.7204,-4.689,-4.6726,-4.6896,-4.6341,-4.5842,-2.3921,-2.4058,-2.4386,-2.4796,-2.5134,-2.5517,-2.6167,-2.7278,-2.8977,-3.0194,-3.0964,-3.2315,-3.2568,-3.1914,-3.1758,-3.1465,-3.1152,-3.1338,-3.1618,-3.1808,-3.2143,-3.243,-3.2669,-3.2669,-3.2669,-3.2669,-3.2669,-3.2669,-3.2669,-3.2669,-3.2669,-3.2669,-3.2669,-3.2669,-3.2669,-3.2669,-3.2669,-3.2669,-3.2669,-3.2898,-3.3342,-3.3671,-3.3952,-3.4177,-3.4936,-3.5488,-3.5653,-3.6048,-3.6266,-3.6266,-3.6266,-3.6266,-3.632,-3.6538,-3.7376,-3.9,-4.0478,-4.1311,-4.1311,-4.1311,-4.1311,-4.1311,-4.1311,-4.1311,-4.1311,-4.1311,-4.1311,-4.1246,-4.0932,-4.0867,-4.1206,-4.1311,-4.1311,-4.1311,-4.1311,-4.1311,-4.1285,-4.1311,-4.1272,-4.1311,-4.1206,-4.1311,-4.1298,-4.1259,-4.1246,-4.1272,-4.1298,-4.1311,-4.1311,-4.1311,-4.1311,-4.1311,-4.1311,-4.1311,-4.1324,-4.1647,-4.2052,-4.2744,-4.3782,-4.5038,-4.5734,-4.6624,-4.7294,-4.7309,-4.7309,-4.7322,-4.7364,-4.7336,-4.7019,-4.6881,-4.6551,-4.6262,-4.6358,-4.5867,-4.5561,-2.4217,-2.4325,-2.4749,-2.4995,-2.5187,-2.6411,-2.7004,-2.737,-2.9986,-3.1212,-3.1515,-3.2708,-3.3144,-3.2705,-3.2334,-3.1914,-3.1593,-3.1841,-3.1917,-3.1858,-3.2221,-3.244,-3.2669,-3.2669,-3.2669,-3.2669,-3.2669,-3.2669,-3.2669,-3.2669,-3.2669,-3.2669,-3.2669,-3.2669,-3.2669,-3.2669,-3.2669,-3.2669,-3.2669,-3.2737,-3.2955,-3.3885,-3.4703,-3.5157,-3.5378,-3.5708,-3.6157,-3.6266,-3.6266,-3.6266,-3.6266,-3.6266,-3.6375,-3.7054,-3.8214,-3.9801,-4.0795,-4.1311,-4.1311,-4.1311,-4.1311,-4.1311,-4.1311,-4.1311,-4.1311,-4.1311,-4.1311,-4.1311,-4.1246,-4.1246,-4.1298,-4.1311,-4.1311,-4.1311,-4.1311,-4.1311,-4.1311,-4.1311,-4.1311,-4.1311,-4.1311,-4.1311,-4.1311,-4.1311,-4.1361,-4.1361,-4.1361,-4.1411,-4.1448,-4.1398,-4.1332,-4.1319,-4.1319,-4.1285,-4.1372,-4.1967,-4.2514,-4.3177,-4.4251,-4.5629,-4.6062,-4.6491,-4.696,-4.7249,-4.7218,-4.7259,-4.7387,-4.7126,-4.6565,-4.626,-4.6044,-4.5899,-4.594,-4.542,-4.5151,-2.4551,-2.4636,-2.5097,-2.5091,-2.496,-2.6176,-2.7278,-2.8313,-3.01,-3.1602,-3.261,-3.3219,-3.334,-3.3184,-3.3047,-3.2588,-3.2033,-3.2465,-3.2504,-3.2299,-3.2735,-3.288,-3.268,-3.2669,-3.2669,-3.2669,-3.2669,-3.2669,-3.2669,-3.2669,-3.2669,-3.2669,-3.2669,-3.2669,-3.2669,-3.2669,-3.2669,-3.2669,-3.2669,-3.2898,-3.3285,-3.4099,-3.4803,-3.5378,-3.5774,-3.6102,-3.6266,-3.6266,-3.6266,-3.6266,-3.6266,-3.6266,-3.6429,-3.7578,-3.8582,-3.9272,-4.0529,-4.1311,-4.1311,-4.1311,-4.1311,-4.1311,-4.1311,-4.1311,-4.1311,-4.1311,-4.1311,-4.1311,-4.1311,-4.1311,-4.1311,-4.1311,-4.1311,-4.1311,-4.1311,-4.1311,-4.1311,-4.1311,-4.1311,-4.1311,-4.1311,-4.1311,-4.1411,-4.1597,-4.1796,-4.1845,-4.2092,-4.2213,-4.2208,-4.1981,-4.1616,-4.1598,-4.1357,-4.1294,-4.1726,-4.2303,-4.2917,-4.3523,-4.4425,-4.538,-4.5989,-4.6607,-4.71,-4.6751,-4.6794,-4.6668,-4.6656,-4.652,-4.6001,-4.5875,-4.5642,-4.5458,-4.5458,-4.5065,-4.4793,-2.5063,-2.5215,-2.5356,-2.522,-2.4989,-2.637,-2.7623,-2.8775,-3.0427,-3.1922,-3.3039,-3.3213,-3.3291,-3.3398,-3.3418,-3.3144,-3.2649,-3.3093,-3.3075,-3.2712,-3.3148,-3.3223,-3.2965,-3.2799,-3.2669,-3.2669,-3.2669,-3.2669,-3.2669,-3.2669,-3.2669,-3.2669,-3.2669,-3.2669,-3.2669,-3.2669,-3.2669,-3.2669,-3.2669,-3.2898,-3.3342,-3.4099,-3.4692,-3.5146,-3.5872,-3.6266,-3.6266,-3.6266,-3.6266,-3.6266,-3.6266,-3.6266,-3.6429,-3.7897,-3.8792,-3.8961,-4.0377,-4.1311,-4.1311,-4.1311,-4.1311,-4.1311,-4.1311,-4.1311,-4.1311,-4.1311,-4.1311,-4.1311,-4.1311,-4.1311,-4.1311,-4.1311,-4.1311,-4.1311,-4.1311,-4.1311,-4.1311,-4.1311,-4.1411,-4.156,-4.1759,-4.1809,-4.1845,-4.2141,-4.223,-4.2083,-4.2382,-4.25,-4.2276,-4.193,-4.1619,-4.1592,-4.124,-4.1314,-4.1781,-4.2463,-4.3202,-4.3832,-4.4602,-4.542,-4.5903,-4.6526,-4.6734,-4.6341,-4.6135,-4.6003,-4.5854,-4.5758,-4.5656,-4.5544,-4.5257,-4.4993,-4.4909,-4.4764,-4.4634,-2.5822,-2.5798,-2.5589,-2.5369,-2.539,-2.7131,-2.8063,-2.8699,-3.0969,-3.227,-3.2764,-3.2793,-3.2998,-3.332,-3.334,-3.3359,-3.3377,-3.3622,-3.3538,-3.3165,-3.3374,-3.3441,-3.3306,-3.2965,-3.2768,-3.2669,-3.2669,-3.2669,-3.2669,-3.2669,-3.2669,-3.2669,-3.2669,-3.2669,-3.2669,-3.2669,-3.2669,-3.2669,-3.2669,-3.2727,-3.2841,-3.3931,-3.4525,-3.4758,-3.5719,-3.6266,-3.6266,-3.6266,-3.6266,-3.6266,-3.6266,-3.6332,-3.658,-3.7897,-3.8792,-3.9117,-4.0415,-4.1211,-4.1311,-4.1311,-4.1311,-4.1311,-4.1311,-4.1311,-4.1311,-4.1311,-4.1311,-4.1311,-4.1311,-4.1311,-4.1311,-4.1311,-4.1311,-4.1311,-4.1311,-4.1311,-4.1311,-4.1311,-4.1511,-4.2029,-4.2395,-4.2811,-4.286,-4.2635,-4.2439,-4.2073,-4.2045,-4.2017,-4.1669,-4.1423,-4.1115,-4.1102,-4.1192,-4.139,-4.1924,-4.2579,-4.3344,-4.4091,-4.4976,-4.5705,-4.5783,-4.6177,-4.6128,-4.5863,-4.5581,-4.543,-4.5386,-4.5284,-4.5178,-4.5033,-4.4742,-4.4665,-4.4634,-4.4603,-4.4611,-2.5709,-2.5562,-2.5502,-2.5607,-2.5854,-2.7122,-2.8165,-2.929,-3.1029,-3.1973,-3.2314,-3.2363,-3.2598,-3.292,-3.2988,-3.3144,-3.3461,-3.3888,-3.398,-3.3659,-3.3901,-3.378,-3.3451,-3.3234,-3.3016,-3.2711,-3.2669,-3.2669,-3.2669,-3.2669,-3.2669,-3.2669,-3.2669,-3.2669,-3.2669,-3.2669,-3.2669,-3.2669,-3.2669,-3.2898,-3.3342,-3.4099,-3.4703,-3.5146,-3.5884,-3.6266,-3.6266,-3.6266,-3.6266,-3.6266,-3.6266,-3.6526,-3.7203,-3.8161,-3.9052,-3.975,-4.0694,-4.1311,-4.1311,-4.1311,-4.1311,-4.1311,-4.1311,-4.1311,-4.1311,-4.1311,-4.1311,-4.1311,-4.1311,-4.1311,-4.1311,-4.1311,-4.1311,-4.1311,-4.1311,-4.1311,-4.1398,-4.162,-4.2092,-4.2479,-4.2424,-4.2242,-4.2215,-4.2228,-4.2153,-4.1933,-4.2095,-4.2167,-4.2032,-4.1512,-4.1421,-4.1393,-4.1499,-4.1579,-4.2067,-4.2702,-4.3387,-4.4068,-4.4854,-4.54,-4.5491,-4.5587,-4.5536,-4.5418,-4.5133,-4.4991,-4.4926,-4.4834,-4.4803,-4.4726,-4.4664,-4.4618,-4.4572,-4.461,-4.461,-2.5689,-2.5774,-2.5317,-2.5553,-2.6247,-2.7035,-2.8078,-2.9425,-3.0727,-3.1523,-3.1865,-3.1924,-3.2158,-3.2529,-3.2715,-3.2939,-3.3256,-3.3895,-3.4158,-3.4072,-3.4309,-3.4161,-3.3627,-3.3265,-3.3016,-3.2721,-3.2669,-3.2669,-3.2669,-3.2669,-3.2669,-3.2669,-3.2669,-3.2669,-3.2669,-3.2669,-3.2669,-3.2727,-3.2898,-3.3239,-3.3681,-3.4379,-3.5035,-3.5433,-3.5993,-3.6266,-3.6266,-3.6266,-3.6266,-3.6266,-3.6266,-3.6688,-3.7459,-3.8319,-3.9169,-4.0019,-4.0808,-4.1311,-4.1311,-4.1311,-4.1311,-4.1311,-4.1311,-4.1311,-4.1311,-4.1311,-4.1311,-4.1311,-4.1311,-4.1311,-4.1311,-4.1311,-4.1361,-4.1597,-4.1597,-4.1696,-4.1881,-4.2123,-4.2424,-4.2624,-4.2477,-4.2175,-4.2136,-4.2136,-4.198,-4.1872,-4.2027,-4.205,-4.191,-4.1459,-4.1376,-4.138,-4.1497,-4.1736,-4.216,-4.2784,-4.3503,-4.4016,-4.4561,-4.4871,-4.5017,-4.512,-4.5137,-4.5024,-4.4772,-4.478,-4.4718,-4.4672,-4.4618,-4.461,-4.461,-4.461,-4.461,-4.461,-4.461,-2.5748,-2.6217,-2.5103,-2.5421,-2.6559,-2.6938,-2.7891,-2.9194,-3.0362,-3.1152,-3.1435,-3.1484,-3.1719,-3.2148,-3.2451,-3.2666,-3.2995,-3.3592,-3.4175,-3.4386,-3.4636,-3.4548,-3.3969,-3.3192,-3.2789,-3.268,-3.2669,-3.2669,-3.2669,-3.2669,-3.2669,-3.2669,-3.2669,-3.2669,-3.2669,-3.2669,-3.2669,-3.2784,-3.3239,-3.3568,-3.3738,-3.478,-3.5433,-3.5488,-3.5982,-3.6266,-3.6266,-3.6266,-3.6266,-3.6266,-3.632,-3.6742,-3.7566,-3.8372,-3.9208,-4.0173,-4.0896,-4.1211,-4.1311,-4.1311,-4.1311,-4.1311,-4.1311,-4.1311,-4.1311,-4.1311,-4.1311,-4.1311,-4.1311,-4.1311,-4.1311,-4.1311,-4.1484,-4.1914,-4.1919,-4.2177,-4.2751,-4.2704,-4.2563,-4.2611,-4.259,-4.2528,-4.2365,-4.2326,-4.202,-4.1697,-4.1515,-4.1348,-4.1095,-4.0926,-4.0786,-4.0972,-4.134,-4.1856,-4.2252,-4.2966,-4.3615,-4.415,-4.451,-4.461,-4.4694,-4.478,-4.4826,-4.468,-4.4626,-4.4603,-4.4572,-4.4572,-4.461,-4.461,-4.461,-4.461,-4.461,-4.461,-4.461,-2.5356,-2.5356,-2.4838,-2.5778,-2.741,-2.7216,-2.8325,-3.0274,-3.0704,-3.0967,-3.1055,-3.1055,-3.1309,-3.168,-3.1826,-3.2289,-3.3055,-3.3592,-3.4213,-3.4746,-3.5077,-3.4786,-3.402,-3.3161,-3.2669,-3.2669,-3.2669,-3.2669,-3.2669,-3.2669,-3.2669,-3.2669,-3.2669,-3.2669,-3.2669,-3.2669,-3.2669,-3.2784,-3.3296,-3.384,-3.4323,-3.4991,-3.5598,-3.6036,-3.62,-3.6266,-3.6266,-3.6266,-3.6266,-3.6266,-3.6266,-3.7012,-3.8267,-3.8687,-3.9428,-4.0694,-4.111,-4.1311,-4.1311,-4.1311,-4.1311,-4.1311,-4.1311,-4.1311,-4.1311,-4.1311,-4.1311,-4.1311,-4.1311,-4.1298,-4.1311,-4.1259,-4.1337,-4.1422,-4.1724,-4.2154,-4.2512,-4.2334,-4.2191,-4.2513,-4.2144,-4.1908,-4.1812,-4.1559,-4.125,-4.1053,-4.0983,-4.094,-4.0758,-4.0702,-4.0702,-4.0915,-4.1255,-4.1813,-4.2415,-4.3101,-4.3732,-4.4289,-4.455,-4.4565,-4.4634,-4.4672,-4.4679,-4.4587,-4.4618,-4.4572,-4.4572,-4.461,-4.461,-4.461,-4.461,-4.461,-4.461,-4.461,-4.461,-2.4876,-2.4793,-2.4494,-2.5701,-2.7639,-2.7235,-2.8513,-3.0587,-3.0898,-3.0898,-3.0898,-3.0898,-3.1025,-3.126,-3.1445,-3.1995,-3.2858,-3.3515,-3.4154,-3.4603,-3.4749,-3.4538,-3.3938,-3.3161,-3.2669,-3.2669,-3.2669,-3.2669,-3.2669,-3.2669,-3.2669,-3.2669,-3.2669,-3.2669,-3.2669,-3.2669,-3.2669,-3.2784,-3.3285,-3.3896,-3.448,-3.5102,-3.5719,-3.6157,-3.6266,-3.6266,-3.6266,-3.6266,-3.6266,-3.6266,-3.6375,-3.7054,-3.8582,-3.8792,-3.9583,-4.111,-4.1311,-4.1311,-4.1311,-4.1311,-4.1311,-4.1311,-4.1311,-4.1311,-4.1311,-4.1311,-4.1311,-4.1311,-4.1311,-4.118,-4.0995,-4.108,-4.1151,-4.1247,-4.1554,-4.1929,-4.232,-4.1973,-4.1879,-4.1934,-4.1657,-4.1235,-4.1235,-4.0912,-4.0772,-4.073,-4.0772,-4.0744,-4.0702,-4.0702,-4.0744,-4.0873,-4.1226,-4.184,-4.2441,-4.3126,-4.381,-4.4381,-4.4572,-4.4572,-4.461,-4.461,-4.461,-4.461,-4.461,-4.461,-4.461,-4.461,-4.461,-4.461,-4.461,-4.461,-4.461,-4.461,-4.461,-2.4396,-2.447,-2.4291,-2.5493,-2.7342,-2.7358,-2.8701,-3.0587,-3.0898,-3.0898,-3.0898,-3.0898,-3.0918,-3.0918,-3.126,-3.1769,-3.2319,-3.3254,-3.3971,-3.4329,-3.4348,-3.4041,-3.372,-3.3078,-3.269,-3.2669,-3.2669,-3.2607,-3.2545,-3.2545,-3.2535,-3.2478,-3.2489,-3.2545,-3.2504,-3.2556,-3.2618,-3.2841,-3.3445,-3.3998,-3.4591,-3.5201,-3.5829,-3.6211,-3.6266,-3.6266,-3.6266,-3.6266,-3.6266,-3.6266,-3.6266,-3.7162,-3.8477,-3.8792,-3.9634,-4.0896,-4.1311,-4.1311,-4.1311,-4.1311,-4.1311,-4.1311,-4.1311,-4.1311,-4.1298,-4.1232,-4.1115,-4.1102,-4.1167,-4.0775,-4.0481,-4.0661,-4.0649,-4.0614,-4.1031,-4.1352,-4.1484,-4.1485,-4.1473,-4.1459,-4.0997,-4.0772,-4.0702,-4.0702,-4.0702,-4.0702,-4.0702,-4.0702,-4.0702,-4.0702,-4.0702,-4.0744,-4.1283,-4.1881,-4.2522,-4.3165,-4.381,-4.4419,-4.4534,-4.461,-4.461,-4.461,-4.461,-4.461,-4.461,-4.461,-4.461,-4.461,-4.461,-4.461,-4.461,-4.461,-4.461,-4.461,-4.461,-2.4064,-2.414,-2.4906,-2.6082,-2.7492,-2.8255,-2.9412,-3.0889,-3.0898,-3.0898,-3.0898,-3.0898,-3.0898,-3.0898,-3.1045,-3.1613,-3.2533,-3.3175,-3.3801,-3.4594,-3.4292,-3.3637,-3.3161,-3.2727,-3.2659,-3.2618,-3.2649,-3.2473,-3.2215,-3.2112,-3.2012,-3.1754,-3.1826,-3.1857,-3.2157,-3.2142,-3.2328,-3.2815,-3.3674,-3.4181,-3.4548,-3.5387,-3.6011,-3.6174,-3.6185,-3.6286,-3.6254,-3.6266,-3.6266,-3.6266,-3.6329,-3.6937,-3.8295,-3.8739,-3.9583,-4.0782,-4.1261,-4.1311,-4.1298,-4.1259,-4.1285,-4.1206,-4.1167,-4.1311,-4.1272,-4.084,-4.0644,-4.0527,-4.0239,-4.0017,-3.9804,-3.9436,-3.9462,-3.9521,-3.9753,-3.9977,-4.0001,-4.0533,-4.0911,-4.0898,-4.0828,-4.0702,-4.0702,-4.0702,-4.0702,-4.0702,-4.0702,-4.0702,-4.0702,-4.0702,-4.0702,-4.0702,-4.1283,-4.1937,-4.2563,-4.3245,-4.3981,-4.4419,-4.4534,-4.461,-4.461,-4.461,-4.461,-4.461,-4.461,-4.461,-4.461,-4.461,-4.461,-4.461,-4.461,-4.461,-4.461,-4.461,-4.461,-2.3994,-2.4511,-2.5233,-2.6525,-2.806,-2.8714,-2.9658,-3.0772,-3.0898,-3.0898,-3.0898,-3.0898,-3.0898,-3.0898,-3.0986,-3.1535,-3.2674,-3.3407,-3.3849,-3.4033,-3.3606,-3.2934,-3.2261,-3.2095,-3.2095,-3.2095,-3.2085,-3.193,-3.1785,-3.1723,-3.1629,-3.1402,-3.136,-3.1526,-3.1692,-3.1733,-3.1836,-3.2159,-3.2944,-3.354,-3.3977,-3.4695,-3.5363,-3.5524,-3.5577,-3.5577,-3.5554,-3.5566,-3.5566,-3.5588,-3.5653,-3.6395,-3.7918,-3.857,-3.9467,-4.0478,-4.1161,-4.1091,-4.101,-4.088,-4.0762,-4.0566,-4.0527,-4.0527,-4.0488,-4.0187,-4.0082,-3.9991,-3.9782,-3.9534,-3.9207,-3.8951,-3.8741,-3.9034,-3.9361,-3.9703,-3.9952,-4.04,-4.0702,-4.0702,-4.073,-4.0702,-4.0702,-4.0702,-4.0702,-4.0702,-4.0702,-4.0702,-4.0702,-4.0702,-4.0702,-4.083,-4.1325,-4.1937,-4.2618,-4.3339,-4.4174,-4.4458,-4.4572,-4.461,-4.461,-4.461,-4.461,-4.461,-4.461,-4.461,-4.461,-4.461,-4.461,-4.461,-4.461,-4.461,-4.461,-4.461,-4.461,-2.4006,-2.5133,-2.5524,-2.6981,-2.876,-2.9166,-2.9903,-3.083,-3.0898,-3.0898,-3.0898,-3.0898,-3.0898,-3.0908,-3.0996,-3.1683,-3.2635,-3.3538,-3.3856,-3.3134,-3.2861,-3.2178,-3.1536,-3.134,-3.1257,-3.1195,-3.1412,-3.1402,-3.1309,-3.1257,-3.1174,-3.1143,-3.1133,-3.1133,-3.1226,-3.1278,-3.136,-3.1605,-3.2163,-3.2717,-3.3245,-3.3779,-3.4385,-3.4829,-3.4934,-3.4957,-3.4957,-3.4934,-3.4865,-3.4808,-3.4808,-3.5707,-3.6949,-3.8077,-3.8921,-3.9766,-4.0495,-4.0647,-4.0396,-4.0278,-4.0122,-3.9638,-3.9651,-3.9664,-3.9677,-3.9586,-3.9468,-3.9416,-3.9272,-3.9024,-3.8665,-3.8609,-3.8786,-3.9109,-3.9615,-4.0126,-4.0473,-4.0602,-4.0702,-4.0702,-4.0702,-4.0702,-4.0702,-4.0702,-4.0702,-4.0702,-4.0702,-4.0702,-4.0702,-4.0702,-4.0702,-4.1029,-4.1577,-4.2592,-4.3339,-4.3576,-4.4381,-4.4496,-4.461,-4.461,-4.461,-4.461,-4.461,-4.461,-4.461,-4.461,-4.461,-4.461,-4.461,-4.461,-4.461,-4.461,-4.461,-4.461,-4.461,-2.3797,-2.5493,-2.638,-2.7599,-2.8989,-3.0089,-3.0635,-3.0889,-3.0898,-3.0898,-3.0898,-3.0898,-3.0898,-3.0957,-3.1269,-3.1791,-3.2464,-3.3121,-3.3138,-3.2411,-3.206,-3.1619,-3.0946,-3.0791,-3.0626,-3.0532,-3.0853,-3.1081,-3.0864,-3.0791,-3.0657,-3.0346,-3.0305,-3.046,-3.0739,-3.0822,-3.0967,-3.1262,-3.1792,-3.2319,-3.2918,-3.3565,-3.4102,-3.4595,-3.4624,-3.4647,-3.4716,-3.4762,-3.4808,-3.4808,-3.4808,-3.5311,-3.6117,-3.7035,-3.7879,-3.8752,-3.9605,-3.9991,-3.9782,-3.9743,-3.9716,-3.9638,-3.9507,-3.952,-3.9429,-3.9155,-3.8906,-3.8762,-3.8514,-3.8187,-3.8057,-3.8442,-3.8629,-3.8948,-3.9469,-4.0039,-4.0213,-4.0487,-4.0702,-4.0702,-4.0702,-4.0702,-4.0702,-4.0702,-4.0702,-4.0702,-4.0702,-4.0702,-4.0702,-4.0702,-4.0702,-4.1198,-4.1813,-4.3021,-4.4189,-4.4251,-4.4572,-4.4534,-4.461,-4.461,-4.461,-4.461,-4.461,-4.461,-4.461,-4.461,-4.461,-4.461,-4.461,-4.461,-4.461,-4.461,-4.461,-4.461,-4.461,-2.4655,-2.6343,-2.7496,-2.8751,-2.9903,-3.0587,-3.0898,-3.0898,-3.0898,-3.0898,-3.0898,-3.0898,-3.0898,-3.0889,-3.0791,-3.1179,-3.179,-3.2286,-3.2204,-3.1719,-3.1433,-3.1008,-3.0398,-3.0346,-3.0212,-3.0149,-3.045,-3.0605,-3.0346,-3.0336,-3.0212,-3.0087,-2.9994,-3.0118,-3.0274,-3.0336,-3.046,-3.0827,-3.12,-3.1762,-3.2391,-3.3131,-3.3771,-3.3925,-3.4039,-3.4016,-3.4016,-3.4016,-3.4004,-3.4083,-3.4376,-3.4769,-3.537,-3.6272,-3.7351,-3.8267,-3.9101,-3.9429,-3.9207,-3.9128,-3.9024,-3.8736,-3.8749,-3.8723,-3.8671,-3.8449,-3.8331,-3.8286,-3.8471,-3.8253,-3.8311,-3.8692,-3.9038,-3.9336,-3.9733,-4.0083,-4.0314,-4.0573,-4.0659,-4.0702,-4.0702,-4.0702,-4.0702,-4.0702,-4.0702,-4.0702,-4.0702,-4.0702,-4.0702,-4.0702,-4.0702,-4.1198,-4.1854,-4.2981,-4.4073,-4.4343,-4.4534,-4.4572,-4.461,-4.461,-4.461,-4.461,-4.461,-4.461,-4.461,-4.461,-4.461,-4.461,-4.461,-4.461,-4.461,-4.461,-4.461,-4.461,-4.461,-2.5426,-2.7073,-2.8385,-2.9658,-3.0762,-3.0898,-3.0898,-3.0898,-3.0898,-3.0898,-3.0898,-3.0889,-3.083,-3.0684,-3.0525,-3.0594,-3.1003,-3.136,-3.1332,-3.1037,-3.076,-3.0336,-3.0108,-2.9994,-3.0015,-3.0036,-3.0056,-2.9994,-3.0056,-3.0056,-3.0015,-2.9994,-2.9994,-2.9994,-3.0036,-3.0067,-3.0005,-3.0141,-3.0391,-3.0899,-3.1669,-3.2656,-3.3281,-3.3281,-3.3281,-3.3338,-3.3407,-3.3419,-3.3407,-3.3534,-3.3887,-3.4359,-3.4799,-3.5798,-3.6998,-3.8069,-3.8899,-3.8877,-3.871,-3.854,-3.841,-3.8135,-3.7965,-3.7939,-3.7952,-3.8044,-3.7939,-3.7992,-3.8298,-3.8557,-3.8602,-3.9141,-3.9513,-3.9834,-4.0039,-4.0257,-4.053,-4.0702,-4.0702,-4.0702,-4.0702,-4.0702,-4.0702,-4.0702,-4.0702,-4.0702,-4.0702,-4.0702,-4.0702,-4.0702,-4.0787,-4.1184,-4.184,-4.286,-4.3654,-4.4151,-4.4381,-4.4572,-4.4572,-4.461,-4.461,-4.461,-4.461,-4.461,-4.461,-4.461,-4.461,-4.461,-4.461,-4.461,-4.461,-4.461,-4.461,-4.461,-4.461,-2.5272,-2.7082,-2.8376,-2.9658,-3.083,-3.0898,-3.0898,-3.0898,-3.0898,-3.0898,-3.083,-3.085,-3.0625,-3.0331,-3.047,-3.0505,-3.0545,-3.0705,-3.0642,-3.0281,-3.0201,-3.0118,-3.0005,-2.9994,-2.9994,-2.9994,-2.9994,-2.9994,-2.9994,-2.9994,-2.9994,-2.9994,-2.9994,-2.9994,-2.9994,-2.9994,-2.9994,-3.0047,-3.0099,-3.0661,-3.1629,-3.2706,-3.3181,-3.3281,-3.3281,-3.3281,-3.3281,-3.3281,-3.3281,-3.3319,-3.3369,-3.4139,-3.5174,-3.5571,-3.6559,-3.7487,-3.805,-3.8083,-3.807,-3.8083,-3.807,-3.7913,-3.79,-3.79,-3.79,-3.79,-3.79,-3.7913,-3.8344,-3.8661,-3.8827,-3.9424,-3.9821,-4.0126,-4.0343,-4.053,-4.0702,-4.0702,-4.0702,-4.0702,-4.0702,-4.0702,-4.0702,-4.0702,-4.0702,-4.0702,-4.0702,-4.0702,-4.0787,-4.083,-4.1156,-4.159,-4.2087,-4.3061,-4.3732,-4.4135,-4.4305,-4.4587,-4.4572,-4.461,-4.461,-4.461,-4.461,-4.461,-4.461,-4.461,-4.461,-4.461,-4.461,-4.461,-4.461,-4.461,-4.461,-4.4594,-4.4579,-2.6685,-2.7194,-2.9176,-3.0333,-3.0889,-3.0898,-3.0898,-3.0898,-3.0889,-3.0742,-3.0527,-3.0488,-3.0127,-2.9675,-2.9639,-2.9559,-2.9515,-2.9789,-2.9855,-2.9877,-2.9889,-2.9994,-2.9994,-2.9994,-2.9994,-2.9994,-2.9994,-2.9994,-2.9994,-2.9994,-2.9994,-2.9994,-2.9994,-2.9994,-2.9994,-2.9994,-2.9994,-3.0151,-3.0557,-3.1116,-3.1783,-3.2656,-3.3281,-3.3281,-3.3281,-3.3281,-3.3281,-3.3281,-3.3281,-3.3369,-3.3607,-3.4164,-3.4981,-3.5655,-3.664,-3.7028,-3.7683,-3.788,-3.7913,-3.79,-3.79,-3.79,-3.79,-3.79,-3.79,-3.79,-3.79,-3.79,-3.8602,-3.8904,-3.9127,-3.9865,-4.0213,-4.0473,-4.0559,-4.0616,-4.0702,-4.0702,-4.0702,-4.0702,-4.0702,-4.0702,-4.0702,-4.0702,-4.0702,-4.0702,-4.0702,-4.0702,-4.0915,-4.1156,-4.159,-4.2155,-4.2684,-4.3339,-4.3942,-4.4366,-4.4419,-4.4572,-4.4572,-4.461,-4.461,-4.461,-4.4579,-4.4579,-4.4579,-4.4594,-4.4564,-4.461,-4.461,-4.461,-4.461,-4.4548,-4.4502,-4.4517,-4.4517,-2.8017,-2.7735,-2.9981,-3.0898,-3.0898,-3.0898,-3.081,-3.0713,-3.0703,-3.0459,-3.0098,-2.9912,-2.9492,-2.9014,-2.8892,-2.8815,-2.8787,-2.8983,-2.929,-2.9606,-2.9837,-2.9994,-2.9994,-2.9994,-2.9994,-2.9994,-2.9994,-2.9994,-2.9994,-2.9994,-2.9994,-2.9994,-2.9994,-2.9994,-2.9994,-2.9994,-2.9994,-3.0099,-3.1013,-3.1465,-3.1783,-3.2706,-3.3181,-3.3281,-3.3281,-3.3281,-3.3281,-3.3281,-3.3281,-3.3381,-3.3694,-3.4066,-3.4581,-3.5559,-3.638,-3.6862,-3.7459,-3.79,-3.79,-3.79,-3.79,-3.79,-3.79,-3.79,-3.79,-3.79,-3.8024,-3.8116,-3.8769,-3.9261,-3.9615,-4.0213,-4.053,-4.0616,-4.0702,-4.0702,-4.0702,-4.0702,-4.0702,-4.0702,-4.0702,-4.0702,-4.0702,-4.0702,-4.0702,-4.0702,-4.0702,-4.0702,-4.0958,-4.1283,-4.1688,-4.2155,-4.2644,-4.322,-4.3786,-4.4266,-4.4381,-4.4526,-4.451,-4.4548,-4.4502,-4.4464,-4.4449,-4.4464,-4.4394,-4.4048,-4.3741,-4.4156,-4.461,-4.461,-4.4579,-4.4456,-4.4356,-4.4348,-4.4125,-2.8545,-2.892,-3.0255,-3.0859,-3.0859,-3.0889,-3.0625,-3.0264,-3.0254,-3.001,-2.958,-2.9228,-2.9014,-2.8828,-2.8609,-2.853,-2.8674,-2.8983,-2.929,-2.9554,-2.9837,-2.9994,-2.9994,-2.9994,-2.9994,-2.9994,-2.9994,-2.9994,-2.9994,-2.9994,-2.9994,-2.9994,-2.9994,-2.9994,-2.9994,-2.9994,-3.0099,-3.0297,-3.1105,-3.1618,-3.1986,-3.2656,-3.3281,-3.3281,-3.3281,-3.3281,-3.3281,-3.3281,-3.3281,-3.3281,-3.3469,-3.388,-3.4483,-3.5319,-3.6048,-3.6722,-3.7459,-3.7854,-3.79,-3.79,-3.79,-3.79,-3.79,-3.79,-3.79,-3.7913,-3.8083,-3.8466,-3.9038,-3.9526,-3.9922,-4.0343,-4.0659,-4.0702,-4.0702,-4.0702,-4.0702,-4.0702,-4.0702,-4.0702,-4.0702,-4.0702,-4.0702,-4.0702,-4.0702,-4.0702,-4.0702,-4.0702,-4.0915,-4.1241,-4.1521,-4.1922,-4.236,-4.2886,-4.3512,-4.381,-4.4036,-4.4205,-4.4302,-4.4332,-4.4295,-4.4279,-4.3987,-4.3864,-4.3633,-4.3294,-4.3125,-4.3571,-4.4018,-4.4402,-4.4471,-4.4002,-4.3679,-4.3494,-4.3248,-2.8698,-2.9355,-2.9907,-3.0225,-3.0449,-3.0185,-2.998,-2.989,-2.9814,-2.957,-2.9141,-2.874,-2.8535,-2.8486,-2.8418,-2.8461,-2.8727,-2.8983,-2.929,-2.9564,-2.9837,-2.9994,-2.9994,-2.9994,-2.9994,-2.9994,-2.9994,-2.9994,-2.9994,-2.9994,-2.9994,-2.9994,-2.9994,-2.9994,-2.9994,-3.0047,-3.0141,-3.0599,-3.1157,-3.1721,-3.2218,-3.2807,-3.3281,-3.3281,-3.3281,-3.3281,-3.3281,-3.3281,-3.3281,-3.3281,-3.3281,-3.3744,-3.4385,-3.5174,-3.5953,-3.6675,-3.7459,-3.7854,-3.79,-3.79,-3.79,-3.79,-3.79,-3.79,-3.7946,-3.8116,-3.8344,-3.8724,-3.9247,-3.9747,-3.9952,-4.04,-4.0702,-4.0702,-4.0702,-4.0702,-4.0702,-4.0702,-4.0702,-4.0702,-4.0702,-4.0702,-4.0702,-4.0702,-4.0702,-4.0702,-4.0702,-4.0744,-4.0958,-4.1198,-4.1505,-4.1819,-4.2265,-4.2728,-4.3335,-4.3521,-4.3667,-4.3815,-4.3994,-4.3864,-4.3741,-4.3356,-4.3094,-4.3002,-4.2971,-4.2756,-4.2756,-4.3063,-4.3356,-4.3587,-4.3494,-4.3217,-4.294,-4.2694,-4.2479,-2.8738,-2.957,-2.9434,-2.9629,-2.9941,-2.9687,-2.9538,-2.9375,-2.9375,-2.9131,-2.8711,-2.8408,-2.8301,-2.8301,-2.8291,-2.8451,-2.8727,-2.8973,-2.929,-2.9606,-2.9837,-2.9994,-2.9994,-2.9994,-2.9994,-2.9994,-2.9994,-2.9994,-2.9994,-2.9994,-2.9994,-2.9994,-2.9994,-2.9994,-2.9994,-3.0047,-3.0193,-3.0599,-3.1259,-3.1721,-3.2167,-3.2857,-3.3281,-3.3281,-3.3281,-3.3281,-3.3281,-3.3281,-3.3281,-3.3281,-3.3381,-3.3706,-3.4409,-3.5162,-3.5906,-3.6675,-3.7366,-3.7854,-3.79,-3.79,-3.79,-3.79,-3.79,-3.79,-3.7992,-3.8207,-3.8298,-3.8647,-3.9305,-3.9865,-3.9996,-4.0386,-4.0659,-4.0702,-4.0702,-4.0702,-4.0702,-4.0702,-4.0702,-4.0702,-4.0702,-4.0702,-4.0702,-4.0688,-4.0659,-4.0674,-4.0702,-4.0744,-4.083,-4.1169,-4.1598,-4.1878,-4.2202,-4.2697,-4.3196,-4.3138,-4.3129,-4.3188,-4.3264,-4.3125,-4.294,-4.2586,-4.2355,-4.2309,-4.2279,-4.2217,-4.2094,-4.1986,-4.2279,-4.2663,-4.2525,-4.2386,-4.2202,-4.1971,-4.1801,-2.8474,-2.9466,-2.9101,-2.918,-2.9521,-2.9616,-2.9297,-2.8955,-2.8935,-2.8721,-2.8398,-2.8301,-2.8301,-2.8301,-2.8301,-2.8461,-2.8727,-2.8983,-2.929,-2.9669,-2.9889,-2.9994,-2.9994,-2.9994,-2.9994,-2.9994,-2.9994,-2.9994,-2.9994,-2.9994,-2.9994,-2.9994,-2.9994,-2.9994,-2.9994,-2.9994,-2.9994,-3.0193,-3.1105,-3.1465,-3.1975,-3.2757,-3.3069,-3.3281,-3.3281,-3.3281,-3.3281,-3.3281,-3.3281,-3.3281,-3.3281,-3.3755,-3.4544,-3.5223,-3.6001,-3.6815,-3.7505,-3.7854,-3.79,-3.79,-3.79,-3.79,-3.79,-3.79,-3.79,-3.8024,-3.8298,-3.8782,-3.9305,-3.9689,-3.9996,-4.0386,-4.0616,-4.0702,-4.0702,-4.0702,-4.0702,-4.0702,-4.0702,-4.0702,-4.0702,-4.0702,-4.0688,-4.0659,-4.0617,-4.0617,-4.0674,-4.0702,-4.0646,-4.0786,-4.1122,-4.1331,-4.1607,-4.213,-4.2478,-4.2572,-4.2594,-4.2627,-4.2556,-4.2402,-4.2309,-4.2109,-4.1894,-4.1694,-4.1586,-4.1524,-4.1058,-4.0628,-4.1212,-4.1801,-4.1724,-4.1586,-4.1417,-4.1309,-4.1166,-2.7104,-2.8711,-2.8555,-2.8584,-2.8711,-2.8721,-2.8633,-2.8516,-2.8486,-2.8418,-2.832,-2.8301,-2.8301,-2.8301,-2.8344,-2.8558,-2.893,-2.9036,-2.9353,-2.9837,-3.0005,-3.0005,-2.9994,-2.9994,-2.9994,-2.9994,-2.9994,-2.9994,-2.9994,-2.9994,-2.9994,-2.9994,-2.9994,-2.9994,-2.9994,-3.0047,-3.0141,-3.0495,-3.1002,-3.1351,-3.2066,-3.2533,-3.2958,-3.3281,-3.3281,-3.3281,-3.3281,-3.3281,-3.3281,-3.3331,-3.3331,-3.3953,-3.4836,-3.5619,-3.6203,-3.7108,-3.79,-3.79,-3.79,-3.79,-3.79,-3.79,-3.79,-3.79,-3.79,-3.857,-3.8827,-3.9083,-3.9526,-3.9996,-4.053,-4.0559,-4.0702,-4.0702,-4.0702,-4.0702,-4.0702,-4.0702,-4.0702,-4.0702,-4.0702,-4.0659,-4.0631,-4.035,-4.0252,-4.0041,-3.9985,-4.0055,-4.0055,-4.0032,-4.0176,-4.0401,-4.0695,-4.1305,-4.1686,-4.168,-4.1744,-4.1761,-4.173,-4.1632,-4.1555,-4.1524,-4.1274,-4.1063,-4.094,-4.0782,-4.0628,-4.052,-4.0659,-4.0889,-4.0997,-4.1063,-4.0935,-4.0828,-4.0735,-2.6692,-2.8247,-2.8301,-2.8301,-2.8301,-2.8301,-2.8301,-2.8301,-2.8301,-2.8301,-2.8301,-2.8301,-2.8301,-2.8354,-2.8461,-2.8664,-2.9079,-2.9237,-2.9459,-2.9942,-2.9994,-2.9994,-2.9994,-2.9994,-2.9994,-2.9994,-2.9994,-2.9994,-2.9994,-2.9994,-2.9994,-2.9994,-2.9994,-2.9994,-2.9994,-3.0047,-3.0151,-3.0495,-3.0847,-3.1465,-3.2026,-3.2533,-3.2958,-3.3181,-3.3281,-3.3281,-3.3281,-3.3281,-3.3331,-3.3381,-3.3706,-3.4286,-3.5235,-3.6001,-3.6581,-3.7505,-3.79,-3.79,-3.79,-3.79,-3.79,-3.79,-3.79,-3.79,-3.7946,-3.8344,-3.8692,-3.9127,-3.9733,-3.9996,-4.0227,-4.03,-4.0516,-4.053,-4.0659,-4.0659,-4.0702,-4.0702,-4.0702,-4.0702,-4.0645,-4.0589,-4.0378,-4.0097,-3.9816,-3.9521,-3.9255,-3.9325,-3.9422,-3.9422,-3.938,-3.9559,-3.9722,-4.0182,-4.0539,-4.0648,-4.0743,-4.0929,-4.0979,-4.1028,-4.0905,-4.0905,-4.0643,-4.0505,-4.0582,-4.0628,-4.0566,-4.0551,-4.0612,-4.0612,-4.0628,-4.0597,-4.0505,-4.0489,-4.0489,-2.7187,-2.8237,-2.8301,-2.8301,-2.8301,-2.8301,-2.8301,-2.8301,-2.8301,-2.8301,-2.8301,-2.8301,-2.8301,-2.8354,-2.8514,-2.8781,-2.9079,-2.9343,-2.9669,-2.9889,-2.9994,-2.9994,-2.9994,-2.9994,-2.9994,-2.9994,-2.9994,-2.9994,-2.9994,-2.9994,-2.9994,-2.9994,-2.9994,-2.9994,-2.9994,-2.9994,-3.0099,-3.0443,-3.0899,-3.1465,-3.1975,-3.2645,-3.3019,-3.3231,-3.3281,-3.3281,-3.3331,-3.3419,-3.3469,-3.3656,-3.4066,-3.4836,-3.5607,-3.6273,-3.7062,-3.7644,-3.79,-3.79,-3.79,-3.79,-3.79,-3.79,-3.79,-3.79,-3.7992,-3.8161,-3.848,-3.8737,-3.9127,-3.9247,-3.9424,-3.9777,-4.0126,-4.03,-4.0559,-4.0616,-4.0702,-4.0702,-4.0702,-4.0659,-4.0561,-4.0364,-3.9845,-3.9521,-3.917,-3.8833,-3.8538,-3.8355,-3.8506,-3.8821,-3.8807,-3.8832,-3.8962,-3.9054,-3.9372,-3.9997,-4.0334,-4.0648,-4.0662,-4.0674,-4.052,-4.0489,-4.0489,-4.0489,-4.0489,-4.0489,-4.0489,-4.0489,-4.0505,-4.0489,-4.0489,-4.0489,-4.0489,-4.0489,-4.0489,-2.7187,-2.8291,-2.8301,-2.8301,-2.8301,-2.8301,-2.8301,-2.8301,-2.8301,-2.8301,-2.8301,-2.8301,-2.8301,-2.8301,-2.8398,-2.8717,-2.8983,-2.9237,-2.9564,-2.9827,-2.9994,-2.9994,-2.9994,-2.9994,-2.9994,-2.9994,-2.9994,-2.9994,-2.9994,-2.9994,-2.9994,-2.9994,-2.9994,-2.9994,-2.9994,-2.9994,-3.0245,-3.0599,-3.1002,-3.1454,-3.1975,-3.2533,-3.2958,-3.3181,-3.3281,-3.3281,-3.3331,-3.3744,-3.388,-3.4115,-3.4787,-3.5559,-3.6332,-3.6615,-3.7062,-3.7749,-3.79,-3.79,-3.79,-3.79,-3.79,-3.79,-3.79,-3.79,-3.7992,-3.8116,-3.8389,-3.8557,-3.8814,-3.9083,-3.9424,-3.9777,-4.0083,-4.03,-4.053,-4.0659,-4.0702,-4.0702,-4.0688,-4.0463,-4.0364,-3.9774,-3.931,-3.8791,-3.8426,-3.8102,-3.785,-3.7667,-3.7676,-3.7989,-3.8161,-3.8226,-3.848,-3.8643,-3.9334,-3.9969,-4.0177,-4.0381,-4.042,-4.042,-4.042,-4.042,-4.0455,-4.0489,-4.0489,-4.0489,-4.0489,-4.0489,-4.0489,-4.0489,-4.0489,-4.0489,-4.0489,-4.0489,-4.0489,-2.7628,-2.8237,-2.8301,-2.8301,-2.8301,-2.8301,-2.8301,-2.8301,-2.8301,-2.8301,-2.8301,-2.8301,-2.8291,-2.8291,-2.8461,-2.8727,-2.9079,-2.929,-2.9606,-2.9889,-2.9994,-2.9994,-2.9994,-2.9994,-2.9994,-2.9994,-2.9994,-2.9994,-2.9994,-2.9994,-2.9994,-2.9994,-2.9994,-2.9994,-2.9994,-3.0047,-3.0453,-3.0847,-3.1249,-3.1556,-3.1964,-3.2533,-3.2969,-3.3181,-3.3281,-3.3281,-3.3331,-3.388,-3.3967,-3.4066,-3.4702,-3.5463,-3.6285,-3.6722,-3.7261,-3.79,-3.79,-3.79,-3.79,-3.79,-3.79,-3.79,-3.79,-3.79,-3.7946,-3.807,-3.8344,-3.8557,-3.8859,-3.9172,-3.9513,-3.9908,-4.014,-4.0357,-4.053,-4.0702,-4.0702,-4.0702,-4.0519,-4.0252,-3.9788,-3.917,-3.8636,-3.8145,-3.7765,-3.754,-3.7386,-3.7288,-3.7256,-3.7416,-3.7537,-3.755,-3.7978,-3.8321,-3.9075,-3.9595,-3.9702,-3.9915,-4.0316,-4.0316,-4.0316,-4.0385,-4.0455,-4.0489,-4.0489,-4.0489,-4.0489,-4.0489,-4.0489,-4.0489,-4.0489,-4.0489,-4.0489,-4.0489,-4.0489,-2.8291,-2.8301,-2.8301,-2.8301,-2.8301,-2.8301,-2.8301,-2.8301,-2.8301,-2.8301,-2.8301,-2.8301,-2.8301,-2.8344,-2.8461,-2.8781,-2.9089,-2.9343,-2.9606,-2.9994,-2.9994,-2.9994,-2.9994,-2.9994,-2.9994,-2.9994,-2.9994,-2.9994,-2.9994,-2.9994,-2.9994,-2.9994,-2.9994,-2.9994,-2.9994,-2.9994,-3.0401,-3.1054,-3.1414,-3.1721,-3.2128,-3.2706,-3.3281,-3.3281,-3.3281,-3.3281,-3.3331,-3.3381,-3.3419,-3.3656,-3.4262,-3.5174,-3.6191,-3.7028,-3.7657,-3.7854,-3.79,-3.79,-3.79,-3.79,-3.79,-3.79,-3.79,-3.7992,-3.807,-3.8161,-3.8421,-3.8602,-3.8859,-3.9247,-3.9601,-3.9908,-4.014,-4.0357,-4.0573,-4.0659,-4.0702,-4.0477,-3.9999,-3.9662,-3.9086,-3.8496,-3.8018,-3.7555,-3.7484,-3.7161,-3.7049,-3.6993,-3.7017,-3.7056,-3.7095,-3.712,-3.7658,-3.8075,-3.83,-3.8782,-3.9002,-3.9328,-3.995,-4.0246,-4.0246,-4.0351,-4.0489,-4.0489,-4.0489,-4.0489,-4.0489,-4.0489,-4.0489,-4.0489,-4.0489,-4.0489,-4.0489,-4.0489,-4.0489,-2.8301,-2.8301,-2.8301,-2.8301,-2.8301,-2.8301,-2.8301,-2.8301,-2.8301,-2.8301,-2.8301,-2.8301,-2.8301,-2.8301,-2.8408,-2.8664,-2.9079,-2.929,-2.9564,-2.9837,-2.9994,-2.9994,-2.9994,-2.9994,-2.9994,-2.9994,-2.9994,-2.9994,-2.9994,-2.9994,-2.9994,-2.9994,-2.9994,-2.9994,-2.9994,-3.0047,-3.0453,-3.1208,-3.1567,-3.2088,-3.2757,-3.2969,-3.3281,-3.3281,-3.3281,-3.3281,-3.3419,-3.3793,-3.3979,-3.4311,-3.5559,-3.6487,-3.7366,-3.7716,-3.7854,-3.79,-3.79,-3.79,-3.79,-3.79,-3.79,-3.79,-3.7946,-3.8161,-3.8298,-3.8376,-3.8512,-3.8679,-3.8948,-3.9336,-3.9689,-3.9922,-4.014,-4.0386,-4.0546,-4.0589,-4.0631,-4.0041,-3.9479,-3.8931,-3.8369,-3.7878,-3.7414,-3.7217,-3.7133,-3.7063,-3.7021,-3.6978,-3.6978,-3.7017,-3.7017,-3.7134,-3.7544,-3.7924,-3.8075,-3.8375,-3.8819,-3.9271,-3.9844,-4.0071,-4.0211,-4.0351,-4.0489,-4.0489,-4.0489,-4.0489,-4.0489,-4.0489,-4.0489,-4.0489,-4.0489,-4.0489,-4.0489,-4.0489,-4.0489,-2.8301,-2.8301,-2.8301,-2.8301,-2.8301,-2.8301,-2.8301,-2.8301,-2.8301,-2.8301,-2.8301,-2.8301,-2.8301,-2.8354,-2.8408,-2.8664,-2.9079,-2.929,-2.9617,-2.9889,-2.9994,-2.9994,-2.9994,-2.9994,-2.9994,-2.9994,-2.9994,-2.9994,-2.9994,-2.9994,-2.9994,-2.9994,-2.9994,-2.9994,-3.0047,-3.0193,-3.0599,-3.1208,-3.1659,-3.2392,-3.3231,-3.3281,-3.3281,-3.3281,-3.3281,-3.3281,-3.3381,-3.3793,-3.4017,-3.469,-3.5798,-3.6568,-3.7214,-3.7611,-3.7854,-3.79,-3.79,-3.79,-3.79,-3.79,-3.79,-3.7959,-3.8175,-3.8434,-3.8602,-3.8724,-3.9038,-3.9261,-3.9438,-3.9791,-3.9966,-4.014,-4.0357,-4.0602,-4.028,-4.0083,-3.969,-3.91,-3.8707,-3.8383,-3.7864,-3.7442,-3.7119,-3.7105,-3.7035,-3.7035,-3.6993,-3.6978,-3.6978,-3.6978,-3.6978,-3.7056,-3.7429,-3.8,-3.8412,-3.8671,-3.8965,-3.9415,-3.9666,-4.0071,-4.0316,-4.042,-4.0489,-4.0489,-4.0489,-4.0489,-4.0489,-4.0489,-4.0489,-4.0489,-4.0489,-4.0489,-4.0489,-4.0489,-4.0489,-2.8301,-2.8301,-2.8301,-2.8301,-2.8301,-2.8301,-2.8301,-2.8301,-2.8301,-2.8301,-2.8301,-2.8301,-2.8301,-2.8408,-2.8514,-2.8824,-2.9079,-2.9237,-2.9617,-2.9889,-2.9994,-2.9994,-2.9994,-2.9994,-2.9994,-2.9994,-2.9994,-2.9994,-2.9994,-2.9994,-2.9994,-2.9994,-2.9994,-2.9994,-3.0141,-3.0443,-3.0847,-3.1414,-3.1975,-3.2533,-3.3008,-3.3281,-3.3281,-3.3281,-3.3281,-3.3331,-3.3381,-3.3557,-3.388,-3.4787,-3.5941,-3.6675,-3.7201,-3.7657,-3.7795,-3.79,-3.79,-3.79,-3.79,-3.79,-3.7946,-3.8083,-3.8434,-3.8692,-3.8859,-3.9216,-3.9526,-3.9791,-3.9966,-4.0069,-4.0243,-4.0329,-4.0545,-4.0407,-3.9929,-3.9423,-3.8833,-3.8313,-3.8074,-3.7835,-3.7456,-3.7035,-3.7007,-3.6978,-3.6978,-3.6978,-3.6978,-3.6978,-3.6978,-3.6978,-3.6978,-3.6978,-3.7134,-3.7772,-3.8337,-3.8523,-3.8598,-3.8855,-3.9147,-3.9844,-4.0316,-4.0246,-4.0281,-4.0489,-4.0489,-4.0489,-4.0489,-4.0489,-4.0489,-4.0489,-4.0489,-4.0489,-4.0489,-4.0489,-4.0489,-2.8301,-2.8301,-2.8301,-2.8301,-2.8301,-2.8301,-2.8301,-2.8301,-2.8301,-2.8301,-2.8301,-2.8301,-2.8301,-2.8301,-2.8354,-2.8611,-2.9036,-2.9237,-2.9606,-2.9931,-2.9994,-2.9994,-2.9994,-2.9994,-2.9994,-2.9994,-2.9994,-2.9994,-2.9994,-2.9994,-2.9994,-2.9994,-2.9994,-2.9994,-2.9994,-3.0349,-3.0806,-3.1424,-3.1936,-3.2443,-3.3069,-3.3281,-3.3281,-3.3281,-3.3281,-3.3706,-3.3979,-3.4164,-3.4641,-3.5367,-3.6191,-3.6968,-3.74,-3.7749,-3.7854,-3.79,-3.79,-3.79,-3.79,-3.79,-3.7946,-3.8253,-3.8557,-3.8859,-3.9172,-3.9615,-3.9952,-4.0243,-4.0345,-4.0375,-4.0447,-4.0447,-4.0519,-3.9873,-3.9325,-3.8763,-3.8173,-3.7934,-3.7737,-3.747,-3.7161,-3.6993,-3.6993,-3.6978,-3.6978,-3.6978,-3.6978,-3.6978,-3.6978,-3.6978,-3.6978,-3.6978,-3.6978,-3.7031,-3.7327,-3.7672,-3.781,-3.8136,-3.8694,-3.9544,-4.0001,-3.9859,-3.9965,-4.0385,-4.0489,-4.0489,-4.0489,-4.0489,-4.0489,-4.0489,-4.0489,-4.0489,-4.0489,-4.0489,-4.0489]}]]